GFSSE_con_mlcape_000.txt.gz
CAPE
535 443 563 752 710 696 682 740 807 861 822 830 877 795 697 703 648 655 629 639 722 877 1031 1098 1287 887 757 955 1774 1251 973 1148 918 650 429 233 403 946 522 542 798 758 325
648 558 642 756 792 738 753 812 887 1007 1063 1032 937 942 927 962 962 842 790 815 942 1096 1342 1457 1664 1703 1914 1886 1756 1438 1212 972 1297 1063 333 160 571 460 558 371 712 349 215
645 695 861 825 888 865 855 1052 1125 1229 1287 1179 1116 1068 1082 1138 1009 959 910 875 954 1128 1389 1500 1652 1644 1392 1750 1508 1471 1257 1090 962 1067 696 144 720 556 289 307 663 613 553
934 1013 1110 1014 1021 1064 1100 1177 1186 1221 1178 1164 1213 1324 1255 1238 1027 843 596 531 778 1041 1120 1179 1038 1560 1243 1006 913 828 1006 938 965 955 768 608 930 652 507 645 882 720 436
1335 1292 1260 1356 1246 1354 1529 1496 1409 1314 1202 1339 1443 1584 1473 1128 778 435 389 561 626 711 786 823 623 432 386 555 659 763 691 664 672 612 820 945 483 47 195 414 615 682 174
1027 1193 1292 1439 1689 1799 1807 1677 1633 1494 1357 1312 1349 1404 1145 767 445 334 333 164 82 47 115 180 230 288 406 514 541 395 332 431 394 421 430 760 57 14 301 371 812 960 875
733 1072 1184 1235 1348 1411 1407 1377 1375 1252 1052 840 734 647 572 466 183 57 19 0 0 0 0 0 0 0 0 59 171 309 412 334 214 285 710 406 8 4 291 310 399 498 445
496 647 724 705 690 693 696 678 625 544 492 508 511 370 337 173 73 32 3 0 0 0 0 0 0 0 0 0 0 0 6 50 169 467 809 637 241 0 293 494 341 132 95
172 171 400 323 68 138 161 246 290 332 284 118 86 83 57 19 0 0 0 0 0 0 0 0 0 0 0 0 0 0 0 0 5 138 337 353 396 454 369 545 457 213 37
192 284 430 459 538 374 86 25 67 48 38 16 21 15 70 108 22 0 0 0 0 0 0 0 0 0 0 0 0 0 0 0 0 122 174 98 180 286 462 433 375 316 244
114 307 331 391 368 830 247 13 33 7 55 156 316 251 226 492 320 101 2 0 0 0 0 0 0 0 0 0 0 0 0 0 0 0 153 6 12 69 364 328 311 308 320
175 275 724 508 454 97 57 169 587 207 595 682 580 549 711 350 262 127 145 119 11 9 0 0 0 0 0 0 0 0 0 0 0 0 0 0 0 0 56 249 221 273 290
254 350 1064 853 614 426 14 140 277 308 218 664 721 605 536 305 542 429 417 293 164 65 98 0 0 0 0 0 0 0 0 0 0 0 0 0 0 0 0 3 26 59 121
202 271 1241 1003 741 456 452 134 177 251 109 245 311 546 408 326 216 40 16 0 0 0 0 0 0 0 0 0 0 0 0 0 0 0 0 0 0 0 0 0 0 0 0
270 246 804 933 606 687 112 477 496 334 362 110 278 235 183 193 97 40 7 0 0 0 0 0 0 0 0 0 0 0 0 0 0 0 0 0 0 0 0 0 0 0 0
162 409 954 1202 594 211 220 394 619 414 176 246 46 0 47 74 77 52 8 20 4 1 2 0 0 0 0 0 0 0 0 0 0 0 0 0 0 0 0 0 0 0 0
11 97 1244 1429 493 42 77 302 344 7 1 13 8 15 23 41 48 74 51 32 68 70 28 15 25 8 0 2 0 0 0 0 0 0 0 0 0 0 0 0 0 0 0
180 97 342 893 282 1 110 55 45 56 36 49 58 38 21 34 30 42 55 53 85 133 79 78 52 35 37 13 15 2 0 0 0 0 0 0 0 0 0 0 0 0 0
32 101 586 194 46 0 80 68 78 55 59 21 0 5 0 0 8 6 10 39 58 66 77 122 119 122 138 113 110 73 28 25 0 0 0 0 0 0 0 0 0 0 0
83 59 362 241 0 0 46 101 4 1 5 2 0 0 0 0 0 0 1 0 47 74 37 69 126 68 53 60 92 94 99 66 25 27 2 0 0 0 0 0 0 0 0
102 101 282 63 39 47 76 0 0 0 0 0 0 0 0 0 0 0 0 0 0 0 0 0 0 0 0 47 49 90 66 95 190 131 40 42 9 0 0 0 0 0 0
211 90 72 0 0 0 0 0 0 0 0 0 0 0 0 0 0 0 0 0 0 0 0 0 0 0 0 0 0 19 0 0 21 62 120 145 35 16 0 0 0 0 0
5 1 0 0 0 0 0 0 0 0 0 0 0 0 0 0 0 0 0 0 0 0 0 0 0 0 0 0 0 9 5 3 2 2 8 38 78 99 48 8 2 5 13
0 0 0 0 0 0 0 0 0 0 0 0 0 0 0 0 0 0 0 0 0 0 0 0 0 0 0 0 0 0 0 0 0 0 1 1 0 80 80 58 18 4 17
0 0 0 0 0 0 0 0 0 0 0 0 0 0 0 0 0 0 0 0 0 0 0 0 0 5 6 0 0 0 0 0 0 0 0 0 0 0 0 0 0 0 0
0 0 0 0 0 0 0 0 0 0 0 0 0 0 0 0 0 0 0 0 0 0 0 10 10 9 1 0 1 2 0 0 1 1 1 0 0 0 0 0 0 0 0

GFSSE_con_mlcape_003.txt.gz
CAPE
325 554 569 542 533 575 649 705 664 658 730 668 573 520 588 558 528 530 591 668 799 959 1239 1462 1685 1647 1455 1697 1786 1387 1216 1167 1473 1181 956 967 948 847 950 891 950 442 385
400 629 569 577 576 647 731 802 835 793 722 705 717 757 770 729 683 653 559 510 543 735 937 1272 1560 1493 1353 1687 1674 1737 1476 1290 1349 1358 817 478 1122 451 649 734 587 306 647
480 662 685 656 643 785 877 947 1053 1004 958 907 863 840 822 823 755 599 392 399 649 709 906 985 1230 1460 1189 955 870 967 1166 1394 1218 1106 782 623 494 1001 666 300 430 745 758
737 758 798 765 810 947 957 983 1049 1059 1056 1032 1108 1130 1046 933 691 378 341 350 418 484 557 463 406 322 307 440 585 802 893 931 1117 1060 920 690 1008 682 103 830 409 495 573
980 968 966 964 1143 1216 1118 1012 987 977 1121 1186 1282 1119 966 703 394 247 140 60 72 108 195 214 211 228 252 311 350 332 388 547 641 585 540 748 475 222 223 431 975 643 721
1062 1219 1290 1307 1448 1374 1295 1201 1117 1089 1042 1105 978 781 644 377 176 72 11 0 0 0 0 0 0 0 1 11 54 158 365 439 397 366 509 624 350 126 164 422 519 584 834
1094 1315 1455 1542 1537 1493 1459 1404 1221 939 685 554 441 444 355 157 59 21 0 0 0 0 0 0 0 0 0 0 0 0 0 0 150 325 600 616 200 63 265 152 187 500 647
657 1060 1166 1117 1019 935 843 671 503 428 379 255 190 192 100 26 9 0 0 0 0 0 0 0 0 0 0 0 0 0 0 0 0 2 631 493 324 278 17 295 404 283 292
421 330 426 364 257 186 209 225 147 77 37 20 12 24 7 35 0 0 0 0 0 0 0 0 0 0 0 0 0 0 0 0 0 1 606 491 484 510 425 583 783 452 345
232 293 123 88 7 1 10 22 11 8 0 0 14 26 115 106 1 0 0 0 0 0 0 0 0 0 0 0 0 0 0 0 0 0 183 194 454 693 612 589 487 489 546
224 299 380 394 317 24 0 5 0 0 10 54 144 145 273 331 132 37 28 0 0 0 0 0 0 0 0 0 0 0 0 0 0 0 26 91 66 68 246 261 480 473 339
116 331 408 363 673 125 77 52 4 160 286 392 482 392 326 345 259 117 101 101 45 18 13 0 0 0 0 0 0 0 0 0 0 0 0 0 0 0 0 211 402 415 379
46 345 355 227 36 196 137 168 248 408 507 556 513 357 395 169 310 154 208 129 34 45 38 37 0 0 0 0 0 0 0 0 0 0 0 0 0 0 0 0 188 382 428
95 543 551 430 263 110 0 63 220 324 481 574 597 482 345 168 28 2 0 0 0 0 10 48 19 0 0 0 0 0 0 0 0 0 0 0 0 0 0 0 19 61 82
125 723 694 366 165 189 238 220 105 198 90 133 362 262 74 92 15 9 9 0 0 0 0 0 0 0 0 0 0 0 0 0 0 0 0 0 0 0 0 0 0 0 21
55 794 760 596 716 380 131 343 388 145 76 174 42 8 17 4 70 39 20 17 6 23 27 2 0 0 0 0 0 0 0 0 0 0 0 0 0 0 0 0 0 0 0
44 748 568 552 572 108 208 202 589 6 0 0 1 0 1 23 39 28 23 11 5 28 56 34 21 17 5 0 14 0 0 0 0 0 0 0 0 0 0 0 0 0 0
132 884 709 98 187 92 123 109 58 29 14 24 1 3 0 0 0 0 0 0 5 15 9 0 1 29 43 21 5 26 8 0 0 0 0 0 0 0 0 0 0 0 0
2 362 618 74 199 71 6 43 38 31 16 1 0 0 0 0 0 0 0 0 0 0 0 0 0 0 0 0 0 0 28 28 23 0 0 0 0 0 0 0 0 0 0
8 220 85 113 68 3 33 1 0 0 0 0 0 0 0 0 0 0 0 0 0 0 0 0 0 0 0 0 1 0 29 30 71 24 16 0 0 0 0 0 0 0 0
57 20 9 0 0 0 0 0 0 0 0 0 0 0 0 0 0 0 0 0 0 0 0 0 0 0 0 0 0 0 0 0 0 0 13 77 60 5 0 0 0 0 0
0 0 0 0 0 0 0 0 0 0 0 0 0 0 0 0 0 0 0 0 0 0 0 0 0 0 0 0 0 0 0 0 0 0 0 0 0 0 15 9 0 0 0
0 0 0 0 0 0 0 0 0 0 0 0 0 0 0 0 0 0 0 0 0 0 0 0 0 0 0 0 0 0 0 0 0 0 0 0 0 0 0 0 0 0 0
0 0 0 0 0 0 0 0 0 0 0 0 0 0 0 0 0 0 0 0 0 0 0 0 0 0 0 0 0 0 0 0 0 0 0 0 0 0 0 0 0 0 0
0 0 0 0 0 0 0 0 0 0 0 0 0 0 0 0 0 0 0 0 0 0 0 0 0 0 0 0 4 0 1 0 0 0 0 0 0 0 0 0 0 0 0
0 0 0 0 0 0 0 0 0 0 0 0 0 0 0 0 0 0 0 0 0 0 0 0 0 0 0 8 17 0 5 0 0 0 0 0 0 0 0 0 0 0 0

GFSSE_con_mlcape_006.txt.gz
CAPE
431 469 444 507 577 592 549 534 555 524 433 371 479 509 500 509 508 487 466 486 632 839 1026 1149 1129 1242 1703 1596 1460 1293 1066 1104 1526 1221 859 599 546 254 328 655 770 669 653
526 476 484 540 602 643 605 564 572 546 540 614 680 665 610 560 445 316 220 205 327 546 741 873 1095 1069 938 835 842 967 1089 1003 926 948 646 403 748 632 585 500 357 397 847
540 522 509 568 671 710 747 746 730 737 758 778 787 721 650 542 305 137 159 179 210 251 319 354 362 280 339 431 489 667 712 879 907 721 513 496 584 788 432 272 367 447 736
574 566 549 673 767 863 953 967 919 946 950 909 876 806 684 380 181 84 21 9 22 91 168 176 202 102 67 68 113 180 329 439 510 635 496 564 1049 692 282 834 560 439 618
617 643 721 811 829 823 821 871 904 907 958 937 817 669 444 217 98 17 0 0 0 5 8 5 2 0 0 0 4 63 182 198 211 272 314 521 420 332 401 316 650 417 757
790 812 924 1028 968 887 817 782 843 932 950 720 456 446 242 126 34 0 0 0 0 0 0 0 0 0 0 0 0 0 0 0 131 208 362 586 441 421 229 308 542 558 868
916 1039 1209 1196 1156 1075 1037 971 821 730 564 358 343 266 138 29 0 0 0 0 0 0 0 0 0 0 0 0 0 0 0 0 0 0 129 501 454 258 424 242 233 337 679
1103 1315 1425 1384 1303 1214 1075 778 451 194 103 112 162 105 12 0 0 0 0 0 0 0 0 0 0 0 0 0 0 0 0 0 0 0 206 440 408 433 324 240 470 343 340
1194 1181 1081 944 826 615 394 169 109 83 10 18 9 0 0 0 0 0 0 0 0 0 0 0 0 0 0 0 0 0 0 0 0 0 95 350 302 601 628 374 396 517 515
427 464 406 305 134 54 58 52 17 0 0 0 0 20 29 0 0 0 0 0 0 0 0 0 0 0 0 0 0 0 0 0 0 0 0 76 448 593 825 898 880 657 764
104 34 90 17 0 0 0 0 0 0 0 35 76 187 160 96 2 0 13 2 3 0 0 0 0 0 0 0 0 0 0 0 0 0 0 0 137 249 269 187 301 615 517
257 176 180 84 0 0 2 0 0 41 135 192 249 274 271 229 212 75 81 88 55 27 12 13 5 4 0 0 0 0 0 0 0 0 0 0 0 39 0 0 13 432 450
323 384 357 294 57 10 34 0 78 189 260 301 436 353 370 389 183 250 84 5 0 0 4 26 24 5 0 0 0 0 0 0 0 0 0 0 0 0 0 0 0 94 440
412 380 317 320 275 126 98 98 130 300 449 511 491 322 185 106 0 0 0 0 0 0 0 0 4 0 0 0 0 0 0 0 0 0 0 0 0 0 0 0 0 0 18
394 352 258 114 151 108 36 185 264 342 512 578 532 342 49 31 0 0 0 0 0 0 0 0 0 0 0 0 0 0 0 0 0 0 0 0 0 0 0 0 0 0 0
452 460 440 45 195 157 179 110 172 104 81 256 286 108 2 0 34 23 2 0 0 1 1 0 0 0 0 0 0 0 0 0 0 0 0 0 0 0 0 0 0 0 0
508 626 484 579 421 93 225 307 166 2 7 69 40 1 4 7 18 1 0 0 0 0 0 0 0 0 0 0 0 0 0 0 0 0 0 0 0 0 0 0 0 0 0
591 782 635 5 124 61 94 146 159 0 0 0 0 0 0 0 0 0 0 0 0 0 0 0 0 0 0 0 0 0 0 0 0 0 0 0 0 0 0 0 0 0 0
646 815 295 66 251 61 54 10 0 0 0 0 0 0 0 0 0 0 0 0 0 0 0 0 0 0 0 0 0 0 0 0 0 0 0 0 0 0 0 0 0 0 0
653 307 198 70 89 7 0 0 0 0 0 0 0 0 0 0 0 0 0 0 0 0 0 0 0 0 0 0 0 0 0 0 0 0 0 0 0 0 0 0 0 0 0
39 39 14 59 13 0 0 0 0 0 0 0 0 0 0 0 0 0 0 0 0 0 0 0 0 0 0 0 0 0 0 0 0 0 0 0 0 0 0 0 0 0 0
0 0 0 0 0 0 0 0 0 0 0 0 0 0 0 0 0 0 0 0 0 0 0 0 0 0 0 0 0 0 0 0 0 0 0 0 0 0 0 0 0 0 0
0 0 0 0 0 0 0 0 0 0 0 0 0 0 0 0 0 0 0 0 0 0 0 0 0 0 0 0 0 0 0 0 0 0 0 0 0 0 0 0 0 0 0
0 0 0 0 0 0 0 0 0 0 0 0 0 0 0 0 0 0 0 0 0 0 0 0 0 0 0 0 0 0 0 0 0 0 0 0 0 0 0 0 0 0 0
0 0 0 0 0 0 0 0 0 0 0 0 0 0 0 0 0 0 0 0 0 0 0 0 0 0 0 0 0 0 0 0 2 0 0 0 0 0 0 0 0 0 0
0 0 0 0 0 0 0 0 0 0 0 0 0 0 0 0 0 0 0 0 0 0 0 0 0 0 0 0 0 0 0 2 1 1 0 0 0 0 0 0 0 0 0

GFSSE_con_mlcape_009.txt.gz
CAPE
398 531 568 580 475 447 416 397 352 307 317 398 442 458 436 389 325 285 279 384 585 649 703 720 716 691 733 695 746 939 838 768 1186 1019 561 349 430 466 702 825 477 736 801
434 525 571 583 513 500 486 460 421 408 529 600 583 561 499 373 220 162 194 217 268 240 278 350 449 482 355 310 370 412 538 708 551 616 452 398 697 833 551 458 611 736 949
463 503 548 618 592 561 578 553 517 600 711 710 663 588 468 234 127 79 17 5 25 116 100 111 124 97 39 51 94 221 245 368 588 542 487 317 373 865 687 609 200 272 858
484 513 611 668 714 688 642 673 735 819 845 784 710 608 313 142 36 2 0 0 0 9 15 6 4 0 0 0 7 57 115 149 177 248 170 252 621 695 434 354 384 422 602
493 550 715 719 779 829 839 897 909 882 822 788 747 458 210 80 14 0 0 0 0 0 0 0 0 0 0 0 0 0 0 1 74 72 88 195 322 346 470 486 269 473 520
545 679 724 732 818 887 872 827 762 794 727 498 386 207 129 55 0 0 0 0 0 0 0 0 0 0 0 0 0 0 0 0 0 0 6 212 393 352 599 187 552 595 743
677 811 802 771 743 716 684 733 819 727 421 220 70 36 29 13 0 0 0 0 0 0 0 0 0 0 0 0 0 0 0 0 0 0 0 41 221 378 477 544 342 343 579
891 1117 1022 925 808 797 857 714 554 350 174 47 12 6 5 0 0 0 0 0 0 0 0 0 0 0 0 0 0 0 0 0 0 0 0 191 269 450 703 368 427 217 362
985 1013 1116 1133 1075 948 708 404 168 11 0 0 0 4 0 0 0 0 0 0 0 0 0 0 0 0 0 0 0 0 0 0 0 0 0 0 173 438 734 647 642 284 332
980 975 954 884 775 516 307 87 0 0 0 0 0 7 0 0 0 0 0 0 0 0 0 0 0 0 0 0 0 0 0 0 0 0 0 0 2 445 426 296 229 227 358
600 462 386 297 164 62 22 0 0 0 0 0 46 67 51 5 0 5 32 16 21 3 0 0 0 0 0 0 0 0 0 0 0 0 0 0 0 135 427 382 261 0 212
32 127 25 3 0 0 0 0 0 1 5 62 115 159 118 127 131 89 59 84 101 82 50 20 29 29 28 0 0 0 0 0 0 0 0 0 0 0 101 66 18 3 0
4 72 16 0 0 0 0 0 5 43 101 143 255 227 249 253 185 90 71 3 1 15 1 8 19 27 14 0 0 0 0 0 0 0 0 0 0 0 0 3 0 0 0
95 147 117 41 0 0 0 0 27 112 189 211 294 312 209 151 15 0 0 0 0 0 0 0 0 0 0 0 0 0 0 0 0 0 0 0 0 0 0 0 0 0 0
261 313 323 284 36 6 30 2 125 222 380 446 389 277 143 32 0 0 0 0 0 0 0 0 0 0 0 0 0 0 0 0 0 0 0 0 0 0 0 0 0 0 0
359 401 336 365 261 121 59 135 193 275 394 520 435 280 94 0 0 0 0 0 0 0 0 0 0 0 0 0 0 0 0 0 0 0 0 0 0 0 0 0 0 0 0
367 449 365 248 123 94 108 135 145 249 126 329 207 83 0 0 0 0 0 0 0 0 0 0 0 0 0 0 0 0 0 0 0 0 0 0 0 0 0 0 0 0 0
401 473 330 216 9 7 71 94 11 0 0 5 0 0 0 0 0 0 0 0 0 0 0 0 0 0 0 0 0 0 0 0 0 0 0 0 0 0 0 0 0 0 0
397 441 161 60 8 9 0 0 0 0 0 0 0 0 0 0 0 0 0 0 0 0 0 0 0 0 0 0 0 0 0 0 0 0 0 0 0 0 0 0 0 0 0
192 118 6 5 0 0 0 0 0 0 0 0 0 0 0 0 0 0 0 0 0 0 0 0 0 0 0 0 0 0 0 0 0 0 0 0 0 0 0 0 0 0 0
28 50 0 0 0 0 0 0 0 0 0 0 0 0 0 0 0 0 0 0 0 0 0 0 0 0 0 0 0 0 0 0 0 0 0 0 0 0 0 0 0 0 0
1 0 0 0 0 0 0 0 0 0 0 0 0 0 0 0 0 0 0 0 0 0 0 0 0 0 0 0 0 0 0 0 0 0 0 0 0 0 0 0 0 0 0
0 0 0 0 0 0 0 0 0 0 0 0 0 0 0 0 0 0 0 0 0 0 0 0 0 0 0 0 0 0 0 0 0 0 0 0 0 0 0 0 0 0 0
0 0 0 0 0 0 0 0 0 0 0 0 0 0 0 0 0 0 0 0 0 0 0 0 0 0 0 0 0 0 0 0 0 0 0 0 0 0 0 0 0 0 0
0 0 0 0 0 0 0 0 0 0 0 0 0 0 0 0 0 0 0 0 0 0 0 0 0 0 0 0 0 0 0 0 1 4 0 0 0 0 0 0 0 0 0
0 0 0 0 0 0 0 0 0 0 0 0 0 0 0 0 0 0 0 0 0 0 0 0 0 0 0 0 0 0 0 4 5 8 5 1 3 0 0 0 0 0 0

GFSSE_con_mlcape_012.txt.gz
CAPE
407 466 449 454 366 285 239 199 188 262 332 392 399 354 292 201 89 29 81 157 228 266 279 333 369 333 286 328 338 405 492 429 552 575 351 222 657 819 642 445 423 572 791
503 628 520 435 403 354 314 272 273 410 513 492 475 422 273 119 87 64 32 43 76 75 102 124 147 172 165 136 164 235 288 360 353 371 422 138 62 446 537 215 229 506 844
553 672 524 454 469 483 420 336 458 616 635 576 573 440 172 63 13 0 0 20 44 26 20 23 30 16 12 12 20 56 96 111 137 200 201 76 104 738 621 614 361 373 610
589 633 593 546 570 537 482 482 679 782 696 632 561 272 74 21 0 0 0 0 0 0 0 0 0 0 0 0 0 0 0 0 0 6 0 41 125 627 712 358 312 760 654
531 656 662 611 592 584 580 664 780 792 744 633 439 200 82 3 0 0 0 0 0 0 0 0 0 0 0 0 0 0 0 0 0 0 0 2 225 128 635 713 278 342 518
566 631 721 675 691 753 759 838 801 688 653 554 260 143 47 0 0 0 0 0 0 0 0 0 0 0 0 0 0 0 0 0 0 0 0 0 57 318 680 693 477 252 378
585 666 761 788 811 815 860 775 648 637 390 235 100 71 5 0 0 0 0 0 0 0 0 0 0 0 0 0 0 0 0 0 0 0 0 7 27 314 612 731 357 228 84
717 758 748 733 732 673 638 672 679 462 191 95 47 7 0 0 0 0 0 0 0 0 0 0 0 0 0 0 0 0 0 0 0 0 0 0 3 319 618 619 526 303 131
906 860 770 710 656 638 707 645 459 308 89 21 0 10 0 0 0 0 0 0 0 0 0 0 0 0 0 0 0 0 0 0 0 0 0 0 0 52 550 347 216 296 13
768 813 901 843 840 796 645 377 116 24 11 11 2 13 0 0 0 0 0 0 0 0 0 0 0 0 0 0 0 0 0 0 0 0 0 0 0 0 285 451 335 11 0
792 839 807 855 814 593 299 118 43 3 0 0 8 67 12 0 0 0 14 7 4 11 2 3 3 0 0 0 0 0 0 0 0 0 0 0 0 0 0 88 153 0 0
385 658 623 555 397 191 83 7 0 0 0 53 96 144 52 47 42 43 39 24 19 30 27 26 17 16 9 0 0 0 0 0 0 0 0 0 0 0 0 0 36 11 0
4 254 250 112 26 0 0 0 0 0 24 98 162 156 149 167 128 26 6 0 0 0 0 0 0 0 0 0 0 0 0 0 0 0 0 0 0 0 0 0 0 0 0
0 68 52 3 0 0 0 0 0 28 64 162 279 253 206 146 26 0 0 0 0 0 0 0 0 0 0 0 0 0 0 0 0 0 0 0 0 0 0 0 0 0 9
2 76 30 0 0 0 0 0 1 84 201 242 325 314 153 68 0 0 0 0 0 0 0 0 0 0 0 0 0 0 0 0 0 0 0 0 0 0 0 0 0 0 0
87 89 116 25 0 0 0 0 8 116 274 384 372 285 162 7 7 0 0 0 0 0 0 0 0 0 0 0 0 0 0 0 0 0 0 0 0 0 0 0 0 0 0
170 209 213 129 48 0 14 24 53 48 108 237 256 78 10 0 0 0 0 0 0 0 0 0 0 0 0 0 0 0 0 0 0 0 0 0 0 0 0 0 0 0 0
143 283 186 109 1 3 0 0 1 1 0 0 0 0 0 0 0 0 0 0 0 0 0 0 0 0 0 0 0 0 0 0 0 0 0 0 0 0 0 0 0 0 0
136 274 110 23 1 0 0 0 0 0 0 0 0 0 0 0 0 0 0 0 0 0 0 0 0 0 0 0 0 0 0 0 0 0 0 0 0 0 0 0 0 0 0
33 65 7 4 0 0 0 0 0 0 0 0 0 0 0 0 0 0 0 0 0 0 0 0 0 0 0 0 0 0 0 0 0 0 0 0 0 0 0 0 0 0 0
0 5 0 0 0 0 0 0 0 0 0 0 0 0 0 0 0 0 0 0 0 0 0 0 0 0 0 0 0 0 0 0 0 0 0 0 0 0 0 0 0 0 0
0 0 0 0 0 0 0 0 0 0 0 0 0 0 0 0 0 0 0 0 0 0 0 0 0 0 0 0 0 0 0 0 0 0 0 0 0 0 0 0 0 0 0
0 0 0 0 0 0 0 0 0 0 0 0 0 0 0 0 0 0 0 0 0 0 0 0 0 0 0 0 0 0 0 0 0 0 0 0 0 0 0 0 0 0 0
0 0 0 0 0 0 0 0 0 0 0 0 0 0 0 0 0 0 0 0 0 0 0 0 0 0 0 0 0 0 0 0 2 0 0 0 0 0 0 0 0 0 0
0 0 0 0 0 0 0 0 0 0 0 0 0 0 0 0 0 0 0 0 0 0 0 0 0 0 0 0 0 0 0 0 0 21 1 0 2 0 0 0 0 0 0
0 0 0 0 0 0 0 0 0 0 0 0 0 0 0 0 0 0 0 0 0 0 0 0 0 0 0 0 0 0 0 0 0 2 1 0 0 0 0 0 0 0 0

GFSSE_con_mlcape_015.txt.gz
CAPE
486 519 339 214 235 210 166 162 183 237 280 293 271 245 181 91 93 82 52 47 82 83 111 163 195 224 241 198 191 189 217 230 217 276 281 236 311 711 474 190 250 444 724
619 682 375 264 317 211 169 212 293 398 391 349 284 153 11 0 0 0 24 50 62 46 51 63 42 28 20 21 26 26 29 34 66 125 126 87 114 625 713 376 238 325 673
741 852 507 346 380 270 249 329 458 476 450 382 247 58 0 0 0 0 10 22 14 0 0 0 0 0 0 0 0 0 0 0 0 3 21 133 156 676 743 465 454 716 525
856 855 577 399 420 367 353 492 613 624 545 470 238 59 0 0 0 0 0 0 0 0 0 0 0 0 0 0 0 0 0 0 0 0 2 61 322 243 698 607 291 376 353
851 804 632 499 494 483 487 653 771 684 601 448 172 83 11 0 0 0 0 0 0 0 0 0 0 0 0 0 0 0 0 0 0 0 0 168 278 310 336 607 274 347 347
768 725 616 545 599 558 630 882 775 656 576 320 177 134 0 0 0 0 0 0 0 0 0 0 0 0 0 0 0 0 0 0 0 0 0 129 271 485 736 535 191 166 131
745 791 723 641 624 725 941 873 716 627 559 242 190 132 12 0 0 0 0 0 0 0 0 0 0 0 0 0 0 0 0 0 0 0 0 0 78 358 646 490 280 258 62
733 991 1018 787 829 940 922 775 651 540 274 79 123 38 0 0 0 0 0 0 0 0 0 0 0 0 0 0 0 0 0 0 0 0 0 0 0 2 465 412 213 82 0
983 965 1017 1113 968 843 726 714 617 353 110 68 20 1 0 0 0 0 0 0 0 0 0 0 0 0 0 0 0 0 0 0 0 0 0 0 0 0 142 360 403 113 0
927 985 925 936 883 818 876 721 478 204 37 6 0 0 0 0 0 0 0 0 0 0 0 0 0 0 0 0 0 0 0 0 0 0 0 0 0 0 0 0 88 70 0
774 755 801 744 751 846 769 545 214 25 2 0 35 0 3 9 26 30 7 6 14 7 0 0 0 0 0 0 0 0 0 0 0 0 0 0 0 0 0 0 0 0 0
816 762 735 780 782 819 547 342 197 73 59 58 117 149 78 94 137 136 100 21 5 0 0 0 0 0 0 0 0 0 0 0 0 0 0 0 0 0 0 0 0 0 0
758 740 656 721 708 538 321 231 39 37 35 102 207 229 203 231 262 182 120 5 0 0 0 0 0 0 0 0 0 0 0 0 0 0 0 0 0 0 0 0 0 0 0
259 384 607 614 400 222 120 72 3 25 78 209 343 320 353 377 167 28 0 0 0 0 0 0 0 0 0 0 0 0 0 0 0 0 0 0 0 0 0 0 0 0 0
68 202 426 261 89 19 4 6 8 101 236 300 429 505 384 227 41 0 0 0 0 0 0 0 0 0 0 0 0 0 0 0 0 0 0 0 0 0 0 0 0 0 0
45 166 202 92 3 0 15 37 25 112 166 194 216 178 127 68 24 0 0 0 0 0 0 0 0 0 0 0 0 0 0 0 0 0 0 0 0 0 0 0 0 0 0
107 199 223 41 14 6 57 7 24 4 2 20 13 0 0 0 0 0 0 0 0 0 0 0 0 0 0 0 0 0 0 0 0 0 0 0 0 0 0 0 0 0 0
188 345 243 87 22 0 0 0 0 0 0 0 0 0 0 0 0 0 0 0 0 0 0 0 0 0 0 0 0 0 0 0 0 0 0 0 0 0 0 0 0 0 0
176 279 260 137 1 0 0 0 0 0 0 0 0 0 0 0 0 0 0 0 0 0 0 0 0 0 0 0 0 0 0 0 0 0 0 0 0 0 0 0 0 0 0
101 175 115 1 0 0 0 0 0 0 0 0 0 0 0 0 0 0 0 0 0 0 0 0 0 0 0 0 0 0 0 0 0 0 0 0 0 0 0 0 0 0 0
62 59 0 0 0 0 0 0 0 0 0 0 0 0 0 0 0 0 0 0 0 0 0 0 0 0 0 0 0 0 0 0 0 0 0 0 0 0 0 0 0 0 0
150 35 9 1 0 0 0 0 0 0 0 0 0 0 0 0 0 0 0 0 0 0 0 0 0 0 0 0 0 0 0 0 0 0 0 0 0 0 0 0 0 0 0
0 0 0 0 0 0 0 0 0 0 0 0 0 0 0 0 0 0 0 0 0 0 0 0 0 0 0 0 0 0 0 0 0 0 0 0 0 0 0 0 0 0 0
0 0 0 0 0 0 0 0 0 0 0 0 0 0 0 0 0 0 0 0 0 0 0 0 0 0 0 0 0 0 0 0 0 0 0 0 0 0 0 0 0 0 0
0 0 0 0 0 0 0 0 0 0 0 0 0 0 0 0 0 0 0 0 0 0 0 0 0 0 0 0 0 0 0 0 0 9 0 0 0 0 3 0 0 0 0
0 0 0 0 0 0 0 0 0 0 0 0 0 0 0 0 0 0 0 0 0 0 0 0 0 0 0 0 0 0 0 0 0 1 2 0 0 0 0 0 0 0 0

GFSSE_con_mlcape_018.txt.gz
CAPE
476 358 208 170 203 168 129 120 167 227 234 249 232 198 137 91 43 0 3 30 60 86 130 155 166 158 106 77 43 33 22 22 43 59 61 85 314 681 699 299 152 309 598
563 393 240 232 237 197 200 242 275 301 290 286 207 105 56 0 0 0 0 18 21 9 2 0 0 0 0 0 0 0 0 0 0 1 16 101 429 787 706 392 297 440 474
667 561 323 251 260 243 285 358 425 430 413 306 139 79 9 0 0 0 0 0 0 0 0 0 0 0 0 0 0 0 0 0 0 0 6 59 197 615 718 481 242 254 338
854 620 469 274 290 318 400 470 535 606 500 269 90 13 0 0 0 0 0 0 0 0 0 0 0 0 0 0 0 0 0 0 0 0 0 204 286 358 325 249 223 354 215
807 867 669 353 336 362 412 537 623 650 449 201 69 2 0 0 0 0 0 0 0 0 0 0 0 0 0 0 0 0 0 0 0 0 0 62 327 332 330 43 111 196 101
913 974 579 452 367 376 499 655 759 641 399 173 124 92 0 0 0 0 0 0 0 0 0 0 0 0 0 0 0 0 0 0 0 0 0 14 161 640 653 361 175 112 67
635 991 701 519 445 444 610 956 749 612 376 224 214 96 0 0 0 0 0 0 0 0 0 0 0 0 0 0 0 0 0 0 0 0 0 0 0 190 559 450 31 0 0
939 1054 818 552 516 588 1075 903 676 601 332 209 129 75 0 0 0 0 0 0 0 0 0 0 0 0 0 0 0 0 0 0 0 0 0 0 0 0 212 487 302 27 0
1153 1105 831 683 754 902 972 763 598 396 195 142 94 19 0 0 0 0 0 0 0 0 0 0 0 0 0 0 0 0 0 0 0 0 0 0 0 0 0 0 191 188 0
1138 1095 994 990 959 949 884 720 493 265 77 55 32 0 0 0 0 0 0 0 0 0 0 0 0 0 0 0 0 0 0 0 0 0 0 0 0 0 0 0 0 9 65
914 995 997 799 847 830 759 753 338 115 73 27 19 0 17 72 113 76 9 0 0 2 0 0 0 0 0 0 0 0 0 0 0 0 0 0 0 0 0 0 0 0 0
851 906 750 921 907 984 526 444 250 45 21 167 212 273 251 407 347 203 86 0 0 0 0 0 0 0 0 0 0 0 0 0 0 0 0 0 0 0 0 0 0 0 0
802 764 741 761 810 654 385 205 1 23 187 461 596 613 677 677 634 256 107 51 54 0 1 0 0 0 0 0 0 0 0 0 0 0 0 0 0 0 0 0 0 0 1
644 658 672 704 854 565 201 21 54 122 426 610 778 920 952 744 599 233 53 83 78 14 0 0 0 0 0 0 0 0 0 0 0 0 0 0 0 0 0 0 0 0 0
353 502 670 582 505 375 185 161 293 559 603 883 928 1044 978 796 629 160 176 51 0 0 0 0 0 0 0 0 0 0 0 0 0 0 0 0 0 0 0 0 0 0 0
258 553 633 387 292 186 303 450 533 584 564 614 760 693 278 198 287 305 98 0 0 0 0 0 0 0 0 0 0 0 0 0 0 0 0 0 0 0 0 0 0 0 0
256 574 595 466 318 405 157 16 1 3 64 164 154 48 10 9 7 1 0 0 0 0 0 0 0 0 0 0 0 0 0 0 0 0 0 0 0 0 0 0 0 0 0
363 632 742 496 432 17 1 0 1 0 0 14 12 0 0 0 0 0 0 0 0 0 0 0 0 0 0 0 0 0 0 0 0 0 0 0 0 0 0 0 0 0 0
578 846 802 673 365 118 0 0 0 0 0 0 0 0 0 0 0 0 0 0 0 0 0 0 0 0 0 0 0 0 0 0 0 0 4 0 0 0 0 0 0 0 0
722 936 942 586 322 31 0 0 0 0 0 0 0 0 0 0 0 0 0 0 0 0 0 0 0 0 0 0 0 0 0 0 0 0 4 0 0 0 0 0 0 0 0
716 787 740 288 129 81 26 0 0 0 0 0 0 0 0 0 0 0 0 0 0 0 0 0 0 0 0 0 0 0 0 0 1 0 1 1 1 0 0 0 0 0 0
720 696 608 415 157 19 5 7 4 0 0 0 0 0 0 0 0 0 0 0 0 0 0 0 0 0 0 6 5 0 0 0 0 4 1 0 0 1 1 0 0 0 0
577 587 391 93 5 1 0 0 0 0 0 0 0 0 0 0 0 0 0 0 0 0 0 0 0 0 0 0 1 0 0 0 0 0 0 0 0 0 0 0 0 0 0
114 1 0 0 0 0 0 0 0 0 0 0 0 0 0 0 0 0 0 0 0 0 0 1 0 0 0 0 0 0 0 0 0 0 0 0 0 0 0 0 0 0 0
0 0 0 0 0 0 0 0 0 0 0 0 0 0 0 0 0 0 0 0 0 0 0 0 0 0 0 0 0 0 0 0 0 0 0 0 0 0 0 0 0 0 0
0 0 0 0 0 0 0 0 0 0 0 0 0 0 0 0 0 0 0 1 2 2 1 0 0 0 0 0 0 0 0 0 0 0 0 0 0 0 0 0 0 2 0

GFSSE_con_mlcape_021.txt.gz
CAPE
197 39 88 102 79 86 97 76 65 118 202 250 212 173 140 43 12 54 82 98 98 71 53 30 11 3 0 0 0 0 0 0 0 0 3 378 683 753 646 199 47 242 507
222 74 113 130 85 83 101 97 168 301 289 211 142 99 0 0 0 2 2 1 0 0 0 0 0 0 0 0 0 0 0 0 0 0 0 429 395 633 662 287 56 183 312
313 119 137 190 155 182 229 284 328 376 254 167 142 20 0 0 0 0 0 0 0 0 0 0 0 0 0 0 0 0 0 0 0 0 0 239 392 242 262 280 184 266 336
421 154 182 236 251 315 369 472 487 467 273 165 44 0 0 0 0 0 0 0 0 0 0 0 0 0 0 0 0 0 0 0 0 0 3 0 338 171 116 231 187 74 185
433 324 290 296 321 352 439 542 561 467 227 139 81 0 0 0 0 0 0 0 0 0 0 0 0 0 0 0 0 0 0 0 0 1 10 0 46 419 447 33 34 110 43
435 414 292 332 328 350 455 595 576 364 203 130 89 0 0 0 0 0 0 0 0 0 0 0 0 0 0 0 0 0 0 0 0 0 0 1 2 393 474 185 7 0 0
305 405 368 329 305 357 551 628 589 362 206 187 97 0 0 0 0 0 0 0 0 0 0 0 0 0 0 0 0 0 0 0 0 0 0 0 0 64 477 442 157 3 0
43 374 493 395 328 406 578 629 565 362 221 180 59 0 0 0 0 0 0 0 0 0 0 0 0 0 0 0 0 0 0 0 0 0 0 0 0 0 0 27 269 57 0
47 457 665 524 461 532 767 614 528 293 145 74 27 0 0 0 0 0 0 0 0 0 0 0 0 0 0 0 0 0 0 0 0 0 0 0 0 0 0 0 0 0 0
5 628 764 745 748 897 795 541 348 117 28 22 2 0 0 0 0 0 0 0 0 0 0 0 0 0 0 0 0 0 0 0 0 0 4 0 0 0 0 0 0 0 0
654 836 790 748 728 752 777 579 190 24 9 0 0 0 3 35 75 23 0 0 0 0 0 0 0 0 0 0 0 0 0 0 0 0 0 0 0 0 0 0 0 0 0
703 727 751 815 756 628 460 367 88 1 0 124 122 63 175 194 296 131 25 0 0 0 0 0 0 0 0 0 0 0 0 0 0 0 0 0 0 0 40 22 16 18 0
669 750 824 884 962 426 288 94 0 0 241 463 536 506 503 334 395 280 179 113 162 0 111 20 22 9 0 0 0 0 0 0 0 0 0 0 0 0 0 0 0 0 0
540 760 847 810 788 380 108 3 20 169 425 390 503 730 699 650 495 193 139 158 168 120 50 26 36 0 0 0 0 0 0 0 0 0 0 0 0 0 0 0 0 0 0
344 497 609 554 412 310 71 240 430 361 825 786 836 987 1015 826 779 328 345 266 176 74 52 22 5 0 0 0 0 0 0 0 0 0 0 0 0 0 0 0 0 0 0
252 437 391 305 207 146 397 580 694 521 494 687 835 742 529 536 29 4 16 206 67 48 9 0 0 0 0 0 0 0 0 0 0 0 0 0 0 0 0 0 0 0 0
269 468 399 363 294 549 603 69 4 5 20 181 386 364 162 122 116 197 63 58 5 0 0 0 0 0 0 0 0 0 0 0 0 0 0 2 1 0 0 0 0 0 0
361 670 622 418 607 437 28 0 0 1 0 38 59 45 33 29 0 0 1 0 0 0 0 0 0 0 0 0 0 0 0 0 0 0 0 5 21 4 0 0 0 0 0
543 932 955 739 702 259 37 0 0 0 0 0 0 0 0 0 0 0 0 0 0 0 0 0 0 0 0 0 0 0 0 0 0 0 0 0 22 16 11 0 0 0 0
586 1060 1156 1059 602 395 38 9 25 46 33 0 0 0 0 0 0 0 0 0 0 0 0 0 0 0 0 0 0 0 0 0 0 0 0 11 5 2 12 4 0 4 0
1040 1296 1063 738 609 311 378 350 206 0 0 0 0 0 0 0 0 0 0 0 0 0 0 0 0 0 0 0 0 0 0 0 0 0 0 3 0 0 2 4 12 1 0
1081 1149 952 730 647 574 445 148 25 57 1 0 0 0 0 0 0 0 0 0 0 0 0 0 0 0 0 0 0 1 0 0 0 0 0 0 0 1 3 6 0 0 1
1036 895 782 668 550 259 106 11 2 0 0 0 0 0 0 0 0 0 0 0 0 0 0 0 0 0 0 0 0 0 0 0 0 0 0 0 0 1 3 0 0 0 0
955 863 597 291 71 14 0 0 0 5 18 0 0 0 0 0 0 0 0 0 0 0 0 0 0 0 0 0 1 2 3 6 4 0 0 0 1 0 2 0 0 0 0
206 67 11 0 0 0 0 0 0 0 0 0 0 0 0 0 0 0 0 0 0 0 0 2 5 5 6 12 10 10 1 0 0 0 0 0 0 0 0 0 2 2 1
0 0 0 0 0 0 0 0 0 0 0 0 0 0 0 0 0 0 0 0 0 0 1 7 14 12 21 19 3 5 5 2 2 4 3 5 8 0 1 0 6 5 4

GFSSE_con_mlcape_024.txt.gz
CAPE
17 61 155 362 322 230 102 57 96 128 160 172 102 9 0 0 33 59 44 19 7 0 0 0 0 0 0 0 0 0 0 0 0 0 163 544 582 450 87 5 40 59 190
20 70 108 277 243 107 71 120 160 181 193 108 0 0 13 0 7 0 0 0 0 0 0 0 0 0 0 0 0 0 0 0 0 0 133 191 326 258 124 20 62 170 335
20 100 88 138 138 121 198 231 227 211 156 70 2 0 0 0 0 0 0 0 0 0 0 0 0 0 0 0 0 0 0 0 0 0 7 271 210 117 201 108 86 129 372
29 75 111 146 156 239 326 368 324 224 107 52 24 0 0 0 0 0 0 0 0 0 0 0 0 0 0 0 0 0 0 0 0 0 9 163 190 317 55 185 178 32 151
39 102 194 182 214 305 397 447 317 180 106 2 0 0 0 0 0 0 0 0 0 0 0 0 0 0 0 0 0 0 0 0 0 1 0 5 18 401 249 10 0 0 0
172 240 180 161 253 393 453 461 257 138 88 0 0 0 0 0 0 0 0 0 0 0 0 0 0 0 0 0 0 0 0 0 0 1 0 0 2 381 365 239 31 0 0
121 56 159 179 265 435 513 433 233 175 102 0 0 0 0 0 0 0 0 0 0 0 0 0 0 0 0 0 0 0 0 0 0 0 0 0 0 0 21 98 184 0 0
31 52 149 217 325 451 564 394 233 153 90 11 0 0 0 0 0 0 0 0 0 0 0 0 0 0 0 0 0 0 0 0 0 2 0 0 0 0 0 0 0 0 0
11 100 158 219 395 514 511 358 175 90 42 21 0 0 0 0 0 0 0 0 0 0 0 0 0 0 0 0 0 0 0 0 0 3 1 0 0 0 0 0 0 0 0
124 3 253 398 496 519 417 206 59 37 19 0 0 0 0 0 0 0 2 0 0 0 0 0 0 0 0 0 0 0 0 0 0 0 0 0 0 1 33 0 0 0 0
3 140 262 373 605 516 362 155 31 8 0 0 0 0 0 4 11 62 0 0 0 0 0 0 0 0 0 0 0 0 0 0 0 0 0 0 0 20 69 76 91 96 63
32 269 376 503 610 643 330 108 3 0 2 1 0 0 64 300 40 31 11 0 0 0 0 0 0 0 0 0 0 0 0 0 0 0 0 0 0 0 0 0 0 0 0
239 481 624 636 671 413 178 212 10 0 296 439 367 459 400 351 242 200 231 18 113 16 74 16 59 15 1 0 0 0 0 0 0 0 0 0 0 0 0 0 0 0 0
652 697 566 509 491 178 114 49 22 298 497 514 533 649 571 521 448 214 240 189 134 51 37 39 42 3 0 0 0 0 0 0 0 0 0 0 0 0 0 0 0 0 0
649 565 567 642 385 104 165 314 525 542 525 662 942 1002 964 757 487 27 5 0 64 31 7 0 0 0 0 0 0 0 0 0 0 0 0 0 0 0 0 0 0 0 0
504 494 514 465 297 273 437 518 424 364 290 490 616 591 340 337 13 0 36 35 7 0 0 0 0 0 0 0 0 0 0 0 0 0 0 0 0 0 0 0 0 0 0
414 380 395 354 186 669 547 258 17 7 26 141 189 377 230 70 52 5 10 0 0 0 0 0 0 0 0 0 0 0 0 0 0 0 0 0 0 0 0 0 0 0 0
339 341 348 275 573 614 207 0 3 1 0 24 12 2 25 19 2 0 1 0 0 0 0 0 0 0 0 0 0 0 0 0 0 0 0 0 0 1 0 0 0 0 0
521 459 442 546 636 204 25 2 0 2 4 3 0 0 0 0 0 0 0 0 0 0 0 0 0 0 0 0 0 0 0 0 0 0 0 0 0 18 13 0 0 0 0
866 810 599 802 368 251 12 0 7 90 76 0 0 0 0 0 0 0 0 0 0 0 0 0 0 0 0 0 0 0 0 0 0 0 0 3 5 0 0 0 0 0 0
1134 1151 878 642 440 351 21 48 164 57 0 0 0 0 0 0 0 0 0 0 0 0 0 0 0 0 0 0 0 0 0 0 0 0 0 0 0 0 0 0 0 0 0
1265 1263 806 673 448 361 338 339 147 1 0 0 0 0 0 0 0 0 0 0 0 0 0 0 0 0 0 0 0 0 0 0 0 0 0 0 0 0 0 0 0 0 0
1168 1116 761 621 523 591 497 121 3 0 0 0 0 0 0 0 0 0 0 0 0 0 0 0 0 0 0 0 0 0 0 0 0 0 0 0 0 0 0 0 0 0 0
936 798 748 602 582 214 17 0 0 0 0 0 0 0 0 0 0 0 0 0 0 0 0 0 0 0 0 0 0 0 0 0 0 0 0 0 0 0 0 0 0 0 0
827 835 800 416 31 0 0 0 0 0 0 0 0 0 0 0 0 0 0 0 0 0 0 0 0 0 0 0 0 0 0 0 0 0 0 0 0 0 0 0 5 0 0
518 159 27 0 0 0 0 0 0 0 0 0 0 0 0 0 0 0 0 0 0 0 0 0 0 3 2 0 7 0 0 0 0 0 0 0 0 0 0 0 0 0 0

GFSSE_con_mlcape_027.txt.gz
CAPE
89 564 679 529 359 185 85 93 110 115 59 0 0 0 0 0 0 0 0 0 0 0 0 0 0 0 0 0 0 0 0 0 0 32 125 117 255 172 40 7 51 172 242
126 579 566 462 325 146 117 135 123 56 0 0 0 0 0 0 0 0 0 0 0 0 0 0 0 0 0 0 0 0 0 0 0 0 153 72 208 249 122 19 117 366 339
106 517 501 345 220 190 198 205 119 22 4 1 0 0 0 0 0 0 0 0 0 0 0 0 0 0 0 0 0 0 0 0 0 0 39 75 78 56 175 70 26 169 224
36 218 337 240 220 267 263 214 129 76 24 3 0 0 0 0 0 0 0 0 0 0 0 0 0 0 0 0 0 0 0 0 0 46 56 24 66 135 9 0 0 0 12
64 195 169 189 200 259 290 237 111 69 21 0 0 0 0 2 1 3 0 0 0 0 0 0 0 0 0 0 0 0 0 0 0 0 0 0 42 188 169 34 0 0 0
98 79 47 100 160 249 325 186 105 50 9 2 0 0 1 8 14 3 0 0 0 0 0 0 0 0 0 0 0 0 0 0 0 0 0 0 0 2 37 89 0 0 0
65 72 71 129 211 355 262 158 109 20 2 0 0 0 0 4 9 0 0 0 0 0 0 0 0 0 0 0 0 0 0 0 0 0 0 0 0 0 0 0 0 0 0
2 29 107 149 263 371 252 137 68 22 0 0 0 0 0 0 0 0 0 0 0 0 0 0 0 0 0 0 0 0 0 0 0 0 0 0 0 0 0 0 0 0 0
25 11 86 205 319 308 143 60 37 12 0 0 0 0 0 0 0 0 0 0 0 0 0 0 0 0 0 0 0 0 0 0 0 0 0 0 1 25 0 0 0 0 124
9 42 11 237 334 266 93 25 22 12 0 0 0 0 0 0 0 0 0 0 0 0 0 0 0 0 0 0 0 0 0 0 0 0 0 0 89 136 30 44 106 119 95
0 75 29 210 236 182 36 5 0 0 0 0 0 0 0 0 0 0 0 0 0 0 0 0 0 0 0 0 0 0 0 0 0 0 0 0 25 30 0 0 0 0 0
0 43 192 213 307 96 5 0 0 0 0 0 0 0 0 6 0 7 0 0 0 0 0 0 0 0 2 0 0 0 0 0 0 0 0 0 0 0 0 0 0 0 0
2 86 191 274 316 40 3 0 0 0 0 0 0 4 3 91 0 0 0 0 0 0 2 14 1 0 0 0 0 0 0 0 0 0 0 0 0 0 0 0 0 0 0
37 121 190 382 373 66 30 7 0 36 156 110 364 457 235 205 78 4 0 0 3 0 0 0 0 0 0 0 0 0 0 0 0 0 0 0 0 0 0 0 0 0 0
280 401 326 361 91 112 128 135 259 434 568 609 500 409 387 192 3 0 0 0 0 0 0 0 0 0 0 0 0 0 0 0 0 0 0 0 0 0 0 0 0 0 0
406 253 379 242 57 263 286 255 191 251 436 426 359 219 237 46 0 3 0 0 0 0 0 0 0 0 0 0 0 0 0 0 0 0 0 0 0 0 0 0 0 0 0
206 262 445 83 257 270 153 85 0 0 1 0 11 39 72 10 1 0 0 0 0 0 0 0 0 0 0 0 0 0 0 0 0 0 0 0 0 0 0 0 0 0 0
180 211 314 175 391 183 95 0 0 0 1 0 0 0 0 3 0 0 0 0 0 0 0 0 0 0 0 0 0 0 0 0 0 0 0 0 0 0 0 0 0 0 0
188 318 242 242 339 185 7 0 0 0 0 0 0 0 0 0 0 0 0 0 0 0 0 0 0 0 0 0 0 0 0 0 0 0 0 0 0 0 1 0 0 0 0
296 228 291 337 293 115 0 0 0 0 0 0 0 0 0 0 0 0 0 0 0 0 0 0 0 0 0 0 0 0 0 0 0 0 0 0 0 0 0 0 0 0 0
319 319 348 276 212 40 0 0 22 21 0 0 0 0 0 0 0 0 0 0 0 0 0 0 0 0 0 0 0 0 0 0 0 0 0 0 0 0 0 0 0 0 0
448 459 440 403 267 49 0 2 65 0 0 0 0 0 0 0 0 0 0 0 0 0 0 0 0 0 0 0 0 0 0 0 0 0 0 0 0 0 0 0 0 0 0
767 524 519 469 382 273 75 99 11 0 0 0 0 0 0 0 0 0 0 0 0 0 0 0 0 0 0 0 0 0 0 0 0 0 0 0 0 0 0 0 0 0 0
943 690 571 494 313 251 211 23 0 0 0 0 0 0 0 0 0 0 0 0 0 0 0 0 0 0 0 0 0 0 0 0 0 0 0 0 0 0 0 0 0 0 0
963 704 529 269 284 380 144 0 0 0 0 0 0 0 0 0 0 0 0 0 0 0 0 0 0 0 0 0 0 0 0 0 0 0 0 0 0 0 0 0 0 0 0
751 558 405 186 2 0 0 0 0 0 0 0 0 0 0 0 0 0 0 0 0 0 0 0 0 0 0 0 0 0 0 0 0 0 0 0 0 0 0 0 0 0 0

GFSSE_con_mlcape_030.txt.gz
CAPE
573 624 548 379 185 97 147 174 91 20 4 0 0 0 0 0 0 0 0 0 0 0 0 0 0 0 0 0 0 0 0 0 23 3 79 173 174 101 55 259 175 180 281
625 666 480 334 157 137 140 116 53 13 3 2 1 0 0 0 0 0 0 0 0 0 0 0 0 0 0 0 0 0 0 0 0 86 25 3 56 101 47 36 166 166 230
654 548 382 214 105 139 138 61 30 7 3 2 0 0 0 0 0 0 0 0 0 0 0 0 0 0 0 0 0 0 0 0 0 56 53 0 0 0 0 0 0 8 137
669 504 352 192 178 187 101 44 35 20 9 3 0 0 0 2 6 1 0 1 0 0 0 0 0 0 0 0 0 0 0 0 25 51 0 0 37 43 17 0 0 0 0
545 445 355 135 127 164 109 60 49 26 13 2 0 8 28 33 9 1 0 2 2 0 0 0 0 0 0 0 0 0 0 0 0 0 0 0 10 11 9 0 0 0 0
363 349 194 166 241 231 90 33 27 21 16 10 13 34 38 41 25 9 11 4 2 0 0 0 0 0 0 0 0 0 0 0 0 0 0 0 0 0 0 0 0 0 0
306 168 117 221 295 117 55 35 36 32 11 8 35 34 22 19 6 0 0 0 0 0 0 0 0 0 0 0 0 0 0 0 0 0 0 0 0 0 0 0 0 0 0
62 105 150 209 152 108 102 68 49 11 0 1 18 6 0 0 0 0 0 0 0 0 0 0 0 0 0 0 0 0 0 0 0 0 0 0 12 10 42 29 3 76 81
61 94 105 105 115 132 100 67 24 1 0 0 1 0 0 0 0 0 0 0 0 0 0 0 0 0 0 0 0 0 0 0 0 0 0 0 68 84 81 104 92 10 4
2 0 8 37 121 88 81 38 2 0 0 0 0 0 0 0 0 0 0 0 0 0 0 0 0 0 0 0 0 0 0 0 0 0 0 35 38 0 9 0 0 0 1
3 8 0 0 162 89 48 32 2 0 0 0 0 0 0 0 0 0 0 0 0 0 0 0 0 0 0 0 0 0 0 0 0 0 0 0 0 0 0 0 0 0 0
0 0 9 42 139 69 32 11 0 0 0 0 0 0 0 0 0 0 0 0 0 0 0 0 0 0 0 0 0 0 0 0 0 0 0 0 0 0 0 0 0 0 0
5 0 19 94 124 28 4 0 0 0 0 0 0 0 0 0 0 0 0 0 0 0 0 0 0 0 0 0 0 0 0 0 0 0 0 0 0 0 0 0 0 0 0
16 11 67 159 105 7 0 0 0 0 0 0 17 16 67 44 25 4 0 0 0 0 0 0 0 0 0 0 0 0 0 0 0 0 0 0 0 0 1 0 0 0 0
54 110 137 153 87 5 0 0 2 32 84 373 303 254 46 1 0 0 0 0 0 0 0 0 0 0 0 0 0 0 0 0 0 0 0 0 0 0 5 13 0 0 0
116 193 229 277 33 26 10 22 86 275 397 364 310 202 27 1 0 0 0 0 0 0 0 0 0 0 0 0 0 0 0 0 0 0 0 0 0 0 0 2 0 0 0
397 419 371 226 125 110 58 154 281 373 340 276 194 91 39 0 0 0 0 0 0 0 0 0 0 0 0 0 0 0 0 0 0 0 0 0 0 0 0 0 0 0 0
527 419 146 270 120 123 78 17 34 1 0 0 0 4 0 0 0 0 0 0 0 0 0 0 0 0 0 0 0 0 0 0 0 0 0 0 0 0 0 0 0 0 0
403 432 141 232 126 63 0 0 0 0 0 0 0 0 0 0 0 0 0 0 0 0 0 0 0 0 0 0 0 0 0 0 0 0 0 0 0 0 0 0 0 0 0
306 404 244 173 131 14 0 0 0 0 0 0 0 0 0 0 0 0 0 0 0 0 0 0 0 0 0 0 0 0 0 0 0 0 0 0 0 0 0 0 0 0 0
159 294 243 173 157 34 0 0 0 0 0 0 0 0 0 0 0 0 0 0 0 0 0 0 0 0 0 0 0 0 0 0 0 0 0 0 0 0 0 0 0 0 0
162 300 218 100 156 40 0 0 5 9 0 0 0 0 0 0 0 0 0 0 0 0 0 0 0 0 0 0 0 0 0 0 0 0 0 0 0 0 0 0 0 0 0
329 372 244 161 199 73 0 0 3 0 0 0 0 0 0 0 0 0 0 0 0 0 0 0 0 0 0 0 0 0 0 0 0 0 0 0 0 0 0 0 0 0 0
419 346 312 235 282 165 0 0 7 0 0 0 0 0 0 0 0 0 0 0 0 0 0 0 0 0 0 0 0 0 0 0 0 0 0 0 0 0 0 0 0 0 0
446 433 379 358 351 226 10 0 10 0 0 0 0 0 0 0 0 0 0 0 0 0 0 0 0 0 0 0 0 0 0 0 0 0 0 0 0 0 0 0 0 0 0
533 469 419 511 434 224 217 3 12 0 0 0 0 0 0 0 0 0 0 0 0 0 0 0 0 0 0 0 0 0 1 0 0 0 0 0 0 0 0 0 0 0 0

GFSSE_con_mlcape_033.txt.gz
CAPE
612 620 410 188 67 58 46 2 0 0 0 0 0 0 0 0 0 0 0 0 0 0 0 0 0 0 0 0 0 0 0 0 16 11 96 7 3 2 35 119 65 96 153
700 666 457 233 90 74 33 1 0 0 0 0 0 0 0 0 0 0 0 0 0 0 0 0 0 0 0 0 0 0 0 0 0 0 0 0 0 0 0 0 0 6 86
723 622 366 148 66 63 8 4 6 6 3 1 0 0 0 0 0 0 0 0 0 0 0 0 0 0 0 0 0 0 0 22 73 0 0 0 0 0 0 0 0 0 0
672 524 283 168 157 160 27 4 5 8 4 1 0 0 0 0 0 0 0 0 0 0 0 0 0 0 0 0 0 39 42 67 0 0 0 0 0 0 0 0 0 0 0
647 443 344 202 112 95 6 0 5 13 4 4 8 25 14 5 1 2 0 1 0 0 0 0 0 0 0 0 0 0 0 0 0 0 0 0 0 0 0 0 0 0 0
599 488 381 210 113 34 23 18 4 13 15 47 69 72 37 19 26 5 0 0 0 0 0 0 0 0 0 0 0 0 0 0 0 0 0 0 0 0 0 0 0 0 0
457 383 181 237 164 86 26 17 13 19 57 109 115 82 63 45 31 7 0 0 0 0 0 0 0 0 0 0 0 0 0 0 0 0 0 0 0 0 0 1 2 2 4
317 212 121 106 54 75 54 33 27 54 108 128 90 77 68 28 2 0 0 0 0 0 0 0 0 0 0 0 0 0 0 0 0 0 0 0 0 0 2 1 1 2 3
0 9 96 61 35 77 70 73 46 71 48 68 66 25 1 0 0 0 0 0 0 0 0 0 0 0 0 0 0 0 0 0 0 0 0 0 0 0 0 0 0 0 0
1 1 4 0 33 22 11 41 7 2 27 22 0 0 0 0 0 0 0 0 0 0 0 0 0 0 0 0 0 0 0 0 0 0 0 0 0 0 0 0 0 0 0
0 0 2 42 45 61 49 0 0 0 6 4 0 0 0 0 0 0 0 0 0 0 0 0 0 0 0 0 0 0 0 0 0 0 0 0 0 0 0 0 0 0 0
0 0 0 0 27 37 17 6 0 0 0 0 0 0 0 0 0 0 0 0 0 0 0 0 0 0 0 0 0 0 0 0 0 0 0 0 0 0 0 0 0 0 0
0 0 0 3 120 93 66 18 0 0 0 0 0 0 0 0 0 0 0 0 0 0 0 0 0 0 0 0 0 0 0 0 0 0 0 0 0 0 0 5 0 0 0
10 6 0 12 187 70 25 1 0 0 0 0 0 0 8 0 6 0 0 0 0 0 0 0 0 0 0 0 0 0 0 0 0 0 0 0 0 0 14 20 9 0 0
16 30 33 132 259 70 5 0 0 0 0 3 15 22 14 2 2 0 0 0 0 0 0 0 0 0 0 0 0 0 0 0 0 0 0 0 0 0 0 36 20 0 0
10 20 112 180 250 49 0 0 0 0 21 275 196 80 0 0 0 0 0 0 0 0 0 0 0 0 0 0 0 0 0 0 0 0 0 0 0 0 1 19 2 0 0
2 44 116 174 184 45 0 0 2 95 247 273 163 8 0 0 0 0 0 0 0 0 0 0 0 0 0 0 0 0 0 0 0 0 0 0 0 0 0 0 0 0 3
120 176 234 253 197 23 0 0 40 236 255 149 102 36 0 0 0 0 0 0 0 0 0 0 0 0 0 0 0 0 0 0 0 0 0 0 0 0 0 0 0 1 1
277 342 265 280 216 11 7 90 184 173 55 0 0 0 0 0 0 0 0 0 0 0 0 0 0 0 0 0 0 0 0 0 0 0 0 0 0 0 0 0 0 0 0
418 426 351 281 196 41 20 27 6 0 0 0 0 0 0 0 0 0 0 0 0 0 0 0 0 0 0 0 0 0 0 0 0 0 0 0 0 0 0 0 0 0 0
454 419 291 180 74 11 0 4 0 0 0 0 0 0 0 0 0 0 0 0 0 0 0 0 0 0 0 0 0 0 0 0 0 0 0 0 0 0 0 0 0 0 0
488 404 278 151 58 10 0 0 0 0 0 0 0 0 0 0 0 0 0 0 0 0 0 0 0 0 0 0 0 0 0 0 0 0 0 0 0 0 0 0 0 0 0
436 345 354 196 120 24 0 0 0 0 0 0 0 0 0 0 0 0 0 0 0 0 0 0 0 0 0 0 0 0 0 0 0 0 0 0 0 0 0 0 0 0 0
316 286 359 259 167 56 0 0 0 0 0 0 0 0 0 0 0 0 0 0 0 0 0 0 0 0 0 0 0 0 0 0 0 0 0 0 0 0 0 0 0 0 0
253 135 188 194 101 69 11 0 0 0 0 0 0 0 0 0 0 0 0 0 0 0 0 0 0 0 0 0 0 0 0 0 0 0 0 0 0 0 0 0 0 0 0
268 124 69 135 148 82 51 0 0 0 0 0 0 0 0 0 0 0 0 0 0 0 0 0 0 0 0 0 0 0 0 0 0 0 0 0 0 0 0 0 0 0 0

GFSSE_con_mlcape_036.txt.gz
CAPE
678 570 364 260 137 53 42 42 49 19 2 2 6 1 0 0 0 0 0 0 0 0 0 0 0 0 0 0 0 0 0 0 0 0 0 0 0 0 0 0 1 19 73
709 602 412 222 49 18 10 12 8 0 0 1 1 0 0 0 0 0 0 0 0 0 0 0 0 0 0 0 0 0 0 0 0 0 0 0 0 0 0 0 0 0 5
780 606 394 172 34 5 0 1 0 0 0 0 0 0 0 0 0 0 0 0 0 0 0 0 18 73 26 0 0 31 14 0 0 0 0 0 0 0 0 0 0 0 0
719 531 334 174 75 33 1 0 0 1 0 0 0 0 3 0 0 1 0 0 0 0 0 0 0 4 44 49 38 34 0 0 0 0 0 0 0 0 0 0 0 0 0
614 450 384 258 104 79 16 4 4 5 4 4 11 13 6 10 7 6 0 2 0 0 0 0 0 0 0 5 0 0 0 0 0 0 0 0 0 0 0 0 0 0 0
579 434 309 258 93 5 18 4 0 0 27 50 63 56 56 56 17 7 8 13 7 0 0 0 0 0 0 0 0 0 0 0 0 0 0 0 0 0 1 2 1 3 2
639 409 368 185 102 92 85 24 10 40 64 130 87 95 96 97 34 5 2 0 0 0 0 0 0 0 0 0 0 0 0 0 0 0 0 0 0 6 4 3 4 4 9
433 372 281 148 140 156 135 21 68 93 150 162 163 137 151 84 6 0 0 0 0 0 0 0 0 0 0 0 0 0 0 0 0 0 0 0 0 2 2 2 3 2 1
201 130 31 6 0 7 74 93 110 130 185 163 137 99 70 10 0 0 0 0 0 0 0 0 0 0 0 0 0 0 0 0 0 0 0 0 0 0 0 0 0 0 0
0 4 3 0 0 66 157 89 125 116 201 106 57 23 0 0 0 0 0 0 0 0 0 0 0 0 0 0 0 0 0 0 0 0 0 0 0 0 0 0 0 0 0
0 1 4 12 18 83 68 81 116 125 9 10 10 1 0 0 0 0 0 0 0 0 0 0 0 0 0 0 0 0 0 0 0 0 0 0 0 15 2 0 0 0 0
2 3 0 9 61 59 50 23 2 2 1 0 0 0 0 0 0 0 0 0 0 0 0 0 0 0 0 0 0 0 0 0 0 0 0 0 0 10 18 1 0 0 0
0 0 0 5 1 0 17 0 0 0 0 0 0 0 0 0 0 0 0 0 0 0 0 0 0 0 0 0 0 0 0 0 0 0 0 0 0 0 12 9 0 0 0
1 0 0 9 1 83 44 1 0 0 0 0 0 0 0 0 0 0 0 0 0 0 0 0 0 0 0 0 0 0 0 0 0 0 0 0 0 3 8 20 2 0 0
4 0 0 2 114 99 21 1 0 0 0 0 0 0 7 2 0 0 0 0 0 0 0 0 0 0 0 0 0 0 0 0 0 0 0 0 0 0 0 45 40 1 0
0 0 0 12 138 128 1 0 0 0 0 0 0 5 0 0 0 0 0 0 0 0 0 0 0 0 0 0 0 0 0 0 0 0 0 0 0 0 1 18 18 7 5
16 9 0 16 190 167 0 0 0 0 0 86 68 8 0 0 0 0 0 0 0 0 0 0 0 0 0 0 0 0 0 0 0 0 0 0 0 0 0 0 0 0 0
1 3 34 155 193 188 0 0 0 0 53 131 13 0 0 0 0 0 0 0 0 0 0 0 0 0 0 0 0 0 0 0 0 0 0 0 0 0 0 0 0 0 0
6 44 126 195 163 157 0 0 0 19 109 56 19 5 0 0 0 0 0 0 0 0 0 0 0 0 0 0 0 0 0 0 0 0 0 0 0 0 0 0 0 0 0
13 196 180 182 152 99 0 0 2 33 24 1 1 0 0 0 0 0 0 0 0 0 0 0 0 0 0 0 0 0 0 0 0 0 0 0 0 0 0 0 0 0 0
57 260 238 203 131 84 7 2 27 39 0 0 0 0 0 0 0 0 0 0 0 0 0 0 0 0 0 0 0 0 0 0 0 0 0 0 0 0 0 0 0 0 0
105 270 306 259 146 84 23 0 1 0 0 0 0 0 0 0 0 0 0 0 0 0 0 0 0 0 0 0 0 0 0 0 0 0 0 0 0 0 0 0 0 0 0
146 232 353 277 117 47 2 0 0 0 0 0 0 0 0 0 0 0 0 0 0 0 0 0 0 0 0 0 0 0 0 0 0 0 0 0 0 0 0 0 0 0 0
225 259 345 304 116 4 0 0 0 0 0 0 0 0 0 0 0 0 0 0 0 0 0 0 0 0 0 0 0 0 0 0 0 0 0 0 0 0 0 0 0 0 0
303 239 284 316 249 5 0 0 0 0 0 0 0 0 0 0 0 0 0 0 0 0 0 0 0 0 0 0 0 0 0 0 0 0 0 0 0 0 0 0 0 0 0
359 268 265 283 246 63 0 0 0 0 0 0 0 0 0 0 0 0 0 0 0 0 0 0 0 0 0 0 0 0 0 0 0 0 0 0 0 0 0 0 0 0 0

GFSSE_con_mlcape_039.txt.gz
CAPE
498 390 327 206 134 166 281 300 215 122 59 18 0 0 0 0 0 0 0 0 0 0 0 0 0 0 84 205 51 0 0 0 0 0 0 0 0 0 0 0 0 10 80
583 414 445 233 170 69 52 65 54 28 1 0 0 0 0 0 0 0 0 0 0 0 0 20 27 16 9 155 1 0 0 0 0 0 0 0 0 0 0 0 0 0 9
651 417 457 310 159 66 53 22 7 16 15 0 1 7 0 0 0 0 0 0 0 11 147 221 54 11 1 90 1 0 0 0 0 0 0 0 0 0 0 0 0 0 0
690 428 299 268 212 152 92 109 101 29 7 1 18 4 0 1 14 0 0 0 0 18 164 245 246 109 53 131 0 0 0 0 0 0 0 0 0 3 2 0 0 0 0
704 550 383 249 234 182 107 46 23 10 7 37 16 9 17 35 24 18 5 0 0 0 14 100 151 115 61 1 0 0 0 0 0 0 0 0 0 4 6 4 6 7 5
733 548 426 240 186 47 16 40 48 24 32 53 49 24 54 69 77 55 0 0 0 0 0 0 0 5 0 0 0 0 0 0 0 0 0 0 0 1 3 9 18 14 9
654 459 391 274 73 55 57 26 41 33 64 68 67 81 78 97 74 83 29 5 1 0 0 0 0 0 0 0 0 0 0 0 0 0 0 0 1 2 1 1 2 2 0
462 373 339 130 245 161 42 27 33 76 97 90 144 152 89 38 25 30 24 5 0 0 0 0 0 0 0 0 0 0 0 0 0 0 0 0 0 0 0 0 0 0 1
306 179 31 5 18 130 83 49 75 148 135 176 213 139 43 1 0 2 0 0 0 0 0 0 0 0 0 0 0 0 0 0 0 0 0 0 0 0 0 0 0 0 0
5 2 0 0 0 0 146 119 102 121 204 176 97 32 3 0 0 0 0 0 0 0 0 0 0 0 0 0 0 0 0 0 0 0 0 0 5 1 0 0 0 0 0
2 3 0 0 26 63 211 191 170 118 216 123 24 6 3 8 9 0 0 0 0 0 0 0 0 0 0 0 0 0 0 0 0 0 0 0 1 8 0 0 0 0 0
3 1 0 2 23 8 100 137 130 172 95 11 0 0 0 0 0 0 0 0 0 0 0 0 0 0 0 0 0 0 0 0 0 0 0 0 0 9 5 0 0 0 0
4 4 1 0 27 115 28 8 13 26 2 0 0 0 0 0 0 0 0 0 0 0 0 0 0 0 0 0 0 0 0 0 0 0 0 0 0 0 16 1 0 0 0
2 4 1 0 0 0 1 0 7 0 0 0 0 0 0 0 0 0 0 0 0 0 0 0 0 0 0 0 0 0 0 0 0 0 0 0 0 0 0 23 0 0 0
3 1 0 0 0 67 110 1 0 0 0 0 0 0 0 0 0 0 0 0 0 0 0 0 0 0 0 0 0 0 0 0 0 0 0 0 0 0 0 21 22 0 0
0 0 14 5 47 209 54 0 0 0 0 0 0 9 22 26 0 0 0 0 0 0 0 0 0 0 0 0 0 0 0 0 0 0 0 0 0 0 0 0 41 21 2
4 0 0 0 141 256 32 0 0 0 0 0 2 19 8 2 0 0 0 0 0 0 0 0 0 0 0 0 0 0 0 0 0 0 0 0 0 0 0 0 11 0 12
8 0 0 5 73 268 35 0 0 0 0 44 59 5 0 0 0 0 0 0 0 0 0 0 0 0 0 0 0 0 0 0 0 0 0 0 0 0 0 0 0 0 0
49 18 6 34 61 301 115 0 0 0 9 185 69 9 0 0 0 0 0 0 0 0 0 0 0 0 0 0 0 0 0 0 0 0 0 0 0 0 0 0 0 0 0
68 69 67 70 168 253 152 0 0 0 96 118 106 39 0 0 0 0 0 0 0 0 0 0 0 0 0 0 0 0 0 0 0 0 0 0 0 0 0 0 0 0 0
54 100 127 183 229 183 115 5 7 57 84 55 13 1 0 0 0 0 0 0 0 0 0 0 0 0 0 0 0 0 0 0 0 0 0 0 0 0 0 0 0 0 0
24 79 222 261 219 208 158 39 16 44 16 18 0 0 0 0 0 0 0 0 0 0 0 0 0 0 0 0 0 0 0 0 0 0 0 0 0 0 0 0 0 0 0
68 52 254 333 224 205 167 50 0 0 0 0 0 0 0 0 0 0 0 0 0 0 0 0 0 0 0 0 0 0 0 0 0 0 0 0 0 0 0 0 0 0 0
60 84 135 267 308 212 98 114 42 49 21 0 0 0 0 0 0 0 0 0 0 0 0 0 0 0 0 0 0 0 0 0 0 0 0 0 0 0 0 0 0 0 0
198 158 152 217 305 215 159 140 68 44 0 0 0 0 0 0 0 0 0 0 0 0 0 0 0 0 0 0 0 0 0 0 0 0 0 0 0 0 0 0 0 0 0
434 365 267 270 269 190 51 29 32 9 0 0 0 0 0 0 0 0 0 0 0 0 0 0 0 0 0 0 0 0 0 0 0 0 0 0 0 0 0 0 0 0 0

GFSSE_con_mlcape_042.txt.gz
CAPE
677 308 589 715 823 796 712 540 478 393 279 117 27 2 0 0 0 0 0 0 18 56 49 110 243 202 0 0 0 0 0 0 0 0 0 0 0 0 0 0 11 29 31
654 256 578 743 754 723 631 530 393 243 88 12 0 0 0 0 0 0 0 0 0 0 0 21 237 117 0 0 0 0 0 0 0 0 0 0 0 0 0 0 0 4 12
661 229 426 668 738 690 563 374 182 84 10 0 0 0 0 0 1 0 0 6 73 120 113 78 176 112 0 0 0 0 0 0 0 0 0 0 0 0 0 0 0 0 2
779 257 176 472 501 423 272 166 74 13 0 1 0 0 5 40 19 0 0 72 293 339 205 137 194 155 0 0 0 0 0 0 0 0 0 0 0 1 2 0 2 0 0
838 401 323 443 306 220 124 71 16 9 26 24 15 34 69 47 22 0 1 98 358 551 451 242 328 76 0 0 0 0 0 0 0 0 0 0 0 1 6 10 13 7 4
827 535 392 309 189 102 52 52 29 44 59 47 89 99 101 66 22 6 26 43 114 267 415 304 89 0 0 0 0 0 0 0 0 0 0 0 0 2 1 2 1 2 4
789 651 400 272 193 189 163 95 81 84 42 68 128 132 131 82 50 53 44 0 0 0 70 48 0 0 0 0 0 0 0 0 0 0 0 0 0 0 0 0 0 0 2
673 528 316 244 238 238 181 99 93 93 65 123 156 146 140 133 97 75 26 0 0 0 0 0 0 0 0 0 0 0 0 0 0 0 0 0 0 0 0 0 0 0 1
443 231 149 80 52 55 155 113 110 131 138 184 177 155 138 110 42 10 0 0 0 0 0 0 0 0 0 0 0 0 0 0 0 0 0 0 0 0 0 0 0 0 0
115 3 0 0 0 8 180 139 187 154 167 145 94 74 70 41 4 0 0 0 0 0 0 0 0 0 0 0 0 0 0 0 0 0 1 0 2 0 0 0 0 0 0
0 2 1 0 1 0 77 295 231 231 179 89 52 24 0 4 0 0 0 0 0 0 0 0 0 0 0 0 0 0 0 0 0 0 0 0 14 8 0 0 0 0 0
2 3 3 0 0 54 208 247 258 197 100 73 21 0 1 15 0 0 0 0 0 0 0 0 0 0 0 0 0 0 0 0 0 0 0 0 0 14 6 0 0 0 0
2 4 0 0 0 0 94 248 292 233 185 68 16 8 67 28 0 0 0 0 0 0 0 0 0 0 0 0 0 0 0 0 0 0 0 0 0 0 20 8 0 0 0
3 7 0 0 0 0 24 94 136 68 54 23 19 32 48 22 9 6 38 95 23 0 0 0 0 0 0 0 0 0 0 0 0 0 0 0 0 0 5 30 1 3 0
5 4 27 32 5 0 0 25 104 101 48 7 7 19 9 0 1 43 42 39 4 0 0 0 0 0 0 0 0 0 0 0 0 0 0 0 0 0 0 15 25 5 2
2 0 0 0 0 3 41 68 95 100 18 24 3 65 111 15 38 147 72 14 0 0 0 0 0 0 0 0 0 0 0 0 0 0 0 0 0 0 0 0 58 22 0
0 0 0 8 61 51 145 74 1 1 0 0 6 300 312 260 177 86 36 0 0 0 0 0 0 0 0 0 0 0 0 0 0 0 0 0 0 0 0 0 12 1 15
4 8 32 5 69 208 230 79 0 0 0 0 190 368 403 326 186 58 2 0 0 0 0 0 0 0 0 0 0 0 0 0 0 0 0 0 0 0 0 0 0 0 0
21 20 27 21 61 381 410 72 7 0 0 46 359 372 312 120 30 12 0 0 0 0 0 0 0 0 0 0 0 0 0 0 0 0 0 0 0 0 0 0 0 0 0
74 23 2 18 295 417 397 160 0 0 15 306 575 516 306 79 3 0 0 0 0 0 0 0 0 0 0 0 0 0 0 0 0 0 0 0 0 0 0 0 0 0 0
224 135 127 216 313 401 501 242 27 1 80 458 620 656 282 174 3 0 0 0 0 0 0 0 0 0 0 0 0 0 0 0 0 0 0 0 0 0 0 0 0 0 0
273 304 279 231 316 508 580 470 60 124 60 200 408 567 431 217 0 0 0 0 0 0 0 0 0 0 0 0 0 0 0 0 0 0 0 0 0 0 0 0 0 0 0
278 280 323 374 551 553 540 450 128 256 422 456 394 171 153 15 0 0 0 0 0 0 0 0 0 0 0 0 0 0 0 0 0 0 0 0 0 0 0 0 0 0 0
294 302 294 424 632 647 622 503 247 146 170 268 245 25 0 0 0 0 0 0 0 0 0 0 0 0 0 0 0 0 0 0 0 0 0 0 0 0 0 0 0 0 0
281 321 348 412 761 702 674 609 530 385 310 405 196 0 0 0 0 0 0 0 0 0 0 0 0 0 0 0 0 0 0 0 0 0 0 0 0 0 0 0 0 0 1
520 450 433 438 527 740 879 766 810 831 735 255 24 0 0 0 0 0 0 0 0 0 0 0 0 0 0 0 0 0 0 0 0 0 0 0 0 0 0 0 0 2 4

GFSSE_con_mlcape_045.txt.gz
CAPE
710 539 979 1207 1073 886 707 628 580 492 380 146 11 4 0 0 0 0 0 62 173 259 310 168 0 0 0 0 0 0 0 0 0 0 0 0 0 0 0 0 11 19 127
769 564 1013 1171 1102 946 783 678 590 480 261 27 2 1 2 0 0 0 61 140 153 235 348 58 0 0 0 0 0 0 0 0 0 0 0 0 0 0 0 0 0 0 13
821 687 1079 1144 1103 969 838 677 513 334 52 11 1 0 0 0 0 0 40 90 120 170 244 12 0 0 0 0 0 0 0 0 0 1 0 0 0 4 3 0 6 1 0
740 708 1236 1127 1021 883 743 595 403 101 10 0 0 0 0 6 30 53 124 197 235 220 203 40 0 0 0 0 0 0 0 0 0 8 1 0 0 14 15 5 0 4 0
436 515 1203 1042 918 772 603 419 90 4 0 0 9 29 61 61 44 134 382 484 439 374 314 111 0 0 0 0 0 0 0 0 0 0 0 0 0 0 0 0 3 5 5
374 317 856 918 808 622 358 117 23 4 1 31 73 81 106 82 84 211 513 713 668 476 451 96 0 0 0 0 0 0 0 0 2 0 0 0 0 0 0 0 2 2 1
529 625 729 623 533 322 148 52 55 36 67 128 154 141 115 92 129 148 248 463 598 543 288 0 0 0 0 0 0 0 0 0 0 3 0 0 0 0 0 0 0 2 5
883 696 464 465 322 215 105 106 84 97 169 225 177 166 149 156 95 63 88 144 243 179 0 0 0 0 0 0 0 0 0 0 0 6 0 0 0 0 0 0 0 0 2
565 313 233 110 291 147 77 96 70 136 251 246 256 245 175 108 49 0 1 8 26 0 0 0 0 0 0 0 0 0 0 0 2 1 1 0 0 0 0 0 0 0 1
170 66 0 20 96 126 93 105 143 235 266 295 216 124 94 47 18 9 0 0 0 0 0 0 0 0 0 0 0 0 0 0 0 4 0 0 0 0 0 0 0 0 0
24 2 0 0 10 57 95 173 238 323 247 220 193 89 33 16 18 22 4 0 0 0 0 0 0 0 0 0 0 0 0 0 0 0 0 0 7 5 0 0 0 0 2
3 2 1 0 0 0 1 133 227 295 218 164 88 52 53 57 74 42 15 0 0 0 0 0 0 0 0 0 0 0 0 0 0 0 0 0 1 21 14 0 0 0 0
3 3 1 0 0 0 0 15 218 250 205 149 100 96 120 129 67 28 4 0 0 0 0 0 0 0 0 0 0 0 0 0 0 0 0 0 0 4 18 3 0 4 0
2 1 1 7 11 16 36 63 148 217 189 147 117 196 181 155 121 96 26 46 11 0 0 0 0 0 0 0 0 0 0 0 0 0 0 0 0 0 2 19 5 4 1
1 0 0 0 1 0 0 12 90 125 75 58 114 196 185 153 133 108 150 175 99 61 5 0 0 0 0 0 0 0 0 0 0 0 0 0 0 0 0 4 11 5 2
2 2 0 7 9 4 1 21 100 107 59 203 185 208 183 96 130 117 174 157 79 42 2 0 0 0 0 0 0 0 0 0 0 0 0 0 0 0 0 0 50 9 3
4 9 7 0 0 0 0 2 22 133 161 170 140 220 188 142 175 227 254 125 65 27 0 0 0 0 0 0 0 0 0 0 0 0 0 0 0 0 0 0 20 31 23
0 0 0 0 0 4 32 40 53 138 98 39 51 205 296 197 258 354 256 163 57 12 0 0 0 0 0 0 0 0 0 0 0 0 0 0 0 0 0 0 0 0 0
0 0 0 1 1 29 26 126 63 39 45 0 14 139 444 528 538 402 293 179 39 9 0 0 0 0 0 0 0 0 0 0 0 0 0 0 0 0 0 0 0 0 0
6 0 0 2 16 145 272 115 33 0 25 5 25 213 415 530 419 363 264 141 31 0 0 0 0 0 0 0 0 0 0 0 0 0 0 0 0 0 0 0 0 0 0
16 53 59 18 0 205 302 78 0 0 0 6 129 270 459 534 382 303 240 133 36 7 0 0 0 0 0 0 0 0 0 0 0 0 0 0 0 0 0 0 0 0 0
105 64 39 25 39 265 324 319 31 0 0 6 116 479 592 581 465 291 266 82 18 0 0 0 0 0 0 0 0 0 0 0 0 0 0 0 0 0 0 0 0 0 0
157 106 102 138 271 324 318 358 220 10 9 8 136 304 579 560 524 317 245 30 0 0 0 0 0 0 0 0 0 0 0 0 0 0 0 0 0 0 0 0 0 0 0
321 316 337 338 345 359 347 444 261 21 97 281 302 417 484 568 465 242 60 2 0 0 0 0 0 0 0 0 0 0 0 0 0 0 0 0 0 0 0 0 0 0 0
469 380 411 418 410 506 611 466 540 267 199 325 410 440 492 380 255 77 2 1 0 0 0 0 0 0 0 0 0 0 0 0 0 0 0 0 0 0 0 0 0 0 0
189 429 567 441 425 466 617 594 674 593 494 467 486 420 284 203 78 9 0 0 0 0 0 0 0 0 0 0 0 0 0 0 0 0 0 0 0 0 0 0 0 1 0

GFSSE_con_mlcape_048.txt.gz
CAPE
549 989 1219 1149 938 732 617 537 457 364 216 84 3 1 0 0 0 0 53 293 324 62 0 0 0 0 0 0 0 0 0 0 0 0 0 0 0 0 0 0 6 82 119
231 1470 1399 1292 1018 879 725 633 527 378 151 19 0 0 0 0 0 75 226 332 339 0 0 0 0 0 0 0 0 0 0 0 0 0 0 1 2 4 5 0 0 1 14
16 1453 1564 1439 1194 1053 879 756 603 363 96 4 0 0 0 0 66 160 171 313 306 0 0 0 0 0 0 0 0 0 0 0 15 15 0 2 12 8 10 14 5 1 3
658 1421 1678 1508 1260 1035 917 790 621 291 97 6 0 0 0 15 79 116 167 287 232 0 0 0 0 0 0 0 0 0 0 0 10 2 0 0 3 9 9 9 10 10 3
1127 1447 1132 1336 1099 937 857 716 457 251 74 1 0 0 12 84 161 207 249 277 305 75 0 0 0 0 0 0 0 0 0 0 0 0 0 0 0 0 0 1 3 4 2
898 1215 1036 851 839 769 785 568 293 101 6 0 28 50 123 186 363 386 381 418 414 174 0 0 0 0 0 0 0 0 0 0 0 0 0 0 0 0 0 1 2 3 6
888 1009 750 156 446 483 560 292 148 59 30 92 160 112 151 335 585 672 602 546 505 158 0 0 0 0 0 0 0 0 0 0 0 0 0 0 0 0 0 0 1 5 6
792 766 707 688 591 467 325 215 94 115 153 176 147 130 195 247 444 627 678 609 356 14 0 0 0 0 0 0 0 0 0 0 2 0 0 0 0 0 0 0 1 1 5
635 652 511 323 288 239 278 187 135 164 185 257 219 168 116 120 199 337 422 271 55 0 0 0 0 0 0 0 0 0 0 0 6 0 0 0 0 0 0 0 0 0 4
303 156 36 13 8 33 114 281 352 343 356 334 177 87 38 35 48 89 173 79 1 0 0 0 0 0 0 0 0 0 0 0 0 0 0 0 0 0 0 0 0 0 1
45 3 0 0 1 0 5 246 297 336 294 217 122 60 22 5 1 24 75 40 2 0 0 0 0 0 0 0 0 0 0 0 0 0 0 0 0 0 0 0 0 2 2
4 0 1 0 0 0 0 60 175 294 259 222 105 58 16 17 92 20 33 12 0 0 0 0 0 0 0 0 0 0 0 0 0 0 0 0 0 8 3 0 0 0 2
3 1 0 0 0 0 0 0 19 89 233 220 136 136 155 120 115 50 12 0 0 0 0 0 0 0 0 0 0 0 0 0 0 0 0 0 0 9 9 0 0 2 1
3 3 0 0 0 0 2 18 58 162 188 145 176 244 226 148 151 87 33 28 0 0 0 0 0 0 0 0 0 0 0 0 0 0 0 0 0 0 4 3 3 8 1
1 1 5 1 0 0 0 2 41 191 156 115 152 197 219 175 198 125 100 77 11 0 0 2 0 0 0 0 0 0 0 0 0 0 0 0 0 0 0 13 14 14 8
0 1 4 0 6 2 1 1 18 81 80 52 75 212 205 207 155 213 316 278 189 100 53 0 0 0 0 0 0 0 0 0 0 0 0 0 0 0 0 0 22 20 9
1 1 5 5 2 0 0 0 15 93 153 180 181 217 241 265 186 321 195 253 129 85 40 0 0 0 0 0 0 0 0 0 0 0 0 0 0 0 0 0 4 38 27
0 1 0 0 0 0 0 21 54 71 88 149 113 191 202 251 183 160 303 231 142 53 14 0 0 0 0 0 0 0 0 0 0 0 0 0 0 0 0 0 0 0 0
0 0 0 0 0 0 2 0 0 2 18 45 34 150 217 178 349 315 390 283 111 35 0 0 0 0 0 0 0 0 0 0 0 0 0 0 0 0 0 0 0 0 0
0 0 0 0 0 0 12 0 0 2 50 59 42 83 297 421 420 403 332 217 41 26 0 0 0 0 0 0 0 0 0 0 0 0 0 0 0 0 0 0 0 0 0
0 0 0 0 0 0 8 0 5 2 3 0 3 18 325 395 425 462 324 197 66 39 0 0 0 0 0 0 0 0 0 0 0 0 0 0 0 0 0 0 0 0 0
0 0 0 0 0 4 0 2 60 0 0 8 35 99 494 378 390 360 290 174 65 56 15 0 0 0 0 0 0 0 0 0 0 0 0 0 0 0 0 0 0 0 0
0 0 0 0 0 0 72 188 200 9 0 0 2 274 458 555 493 440 294 312 115 69 4 0 0 0 0 0 0 0 0 0 0 0 0 0 0 0 0 0 0 0 0
24 19 67 26 5 0 238 285 272 81 17 0 1 307 423 442 469 479 440 355 111 16 0 0 0 0 0 0 0 0 0 0 0 0 0 0 0 0 0 0 0 0 0
237 213 155 103 106 190 270 430 269 217 0 28 8 123 304 477 485 530 365 179 56 2 0 0 0 0 0 0 0 0 0 0 0 0 0 0 0 0 0 0 0 0 0
371 401 240 232 222 356 258 132 434 375 203 230 438 355 393 388 452 400 280 73 1 0 0 0 0 0 0 0 0 0 0 0 0 1 1 0 0 0 0 0 0 0 0

GFSSE_con_mlcape_051.txt.gz
CAPE
197 1057 1042 1069 1087 762 622 508 369 323 269 167 31 1 0 0 28 258 165 0 0 0 0 0 0 0 0 0 0 0 0 0 0 0 0 1 0 0 4 2 10 57 78
21 171 1010 1059 1115 931 741 594 437 362 311 172 15 0 0 54 350 399 49 0 0 0 0 0 0 0 0 0 0 0 3 0 0 0 0 2 11 11 2 1 2 14 47
0 122 536 966 1083 1033 847 639 472 381 253 46 2 23 110 326 456 459 0 0 0 0 0 0 0 0 0 0 0 0 5 8 7 0 0 1 4 12 14 4 3 10 14
0 14 0 520 1014 1052 931 616 433 344 157 15 9 126 275 349 429 462 0 0 0 0 0 0 0 0 0 0 0 0 0 0 0 0 0 0 0 5 4 6 2 3 7
67 178 480 696 770 1047 954 628 472 288 46 3 45 147 315 356 402 477 0 0 0 0 0 0 0 0 0 0 0 0 0 0 0 0 0 0 0 2 1 2 2 7 10
738 861 837 609 681 909 827 559 339 72 0 10 138 298 439 427 391 407 198 49 8 0 0 0 0 0 0 0 0 0 0 0 0 0 0 0 0 2 4 5 10 6 9
1155 978 983 780 588 415 459 484 176 2 28 87 222 383 501 514 451 467 458 79 9 0 0 0 0 0 0 0 0 0 0 0 0 0 0 0 0 0 1 2 4 4 3
843 704 507 555 55 85 220 154 55 105 177 146 285 588 732 741 583 614 539 51 0 0 0 0 0 0 0 0 0 0 0 0 0 0 0 0 0 0 1 2 4 4 4
632 447 380 483 279 164 104 118 224 196 125 147 244 405 549 701 711 647 372 15 0 0 0 0 0 0 0 0 0 0 0 0 0 0 0 0 0 0 0 0 1 2 4
474 333 197 180 112 24 17 38 242 181 122 88 92 187 411 555 587 421 179 0 0 0 0 0 0 0 0 0 0 0 0 0 0 0 0 0 0 0 0 2 3 7 4
124 66 24 3 0 6 0 47 309 251 143 89 57 67 122 216 268 174 58 13 4 0 0 0 0 0 0 0 0 0 0 0 0 0 0 0 0 0 0 0 1 5 7
68 3 1 0 0 0 1 7 112 139 64 34 1 0 0 26 83 145 79 28 12 0 0 0 0 0 0 0 0 0 0 0 0 0 0 0 0 3 0 0 2 6 7
3 2 0 0 0 0 3 16 40 28 48 17 0 0 52 41 76 68 75 37 4 0 0 0 0 0 0 0 0 0 0 0 0 0 0 0 0 11 8 7 6 2 4
1 1 0 0 0 0 0 0 0 0 14 1 74 74 115 28 15 14 11 17 1 0 0 0 0 0 0 0 0 0 0 0 0 0 0 0 0 0 12 5 6 4 0
2 2 0 0 0 0 0 0 0 11 26 62 116 113 127 84 25 13 19 0 0 0 0 0 0 0 0 0 0 0 0 0 0 0 0 0 0 0 0 10 7 10 2
2 2 1 0 0 0 0 0 0 5 42 56 89 146 209 133 97 73 106 45 0 0 0 0 0 0 0 0 0 0 0 0 0 0 0 0 0 0 0 0 8 23 7
2 2 1 0 0 0 0 0 0 0 22 38 40 122 222 195 151 215 169 143 101 33 0 0 0 0 0 0 0 0 0 0 0 0 0 0 0 0 0 0 0 59 28
2 0 0 0 0 0 0 0 0 3 41 49 74 121 144 177 245 206 166 179 74 46 0 0 0 0 0 0 0 0 0 0 0 0 0 0 0 0 0 0 2 20 26
1 0 0 0 0 0 0 0 0 0 38 36 82 97 87 110 186 114 250 199 80 28 0 0 0 0 0 0 0 0 0 0 0 0 0 0 0 0 0 0 0 0 0
0 0 2 1 0 0 0 0 0 0 17 15 1 1 114 36 47 275 238 223 93 7 0 0 0 0 0 0 0 0 0 0 0 0 0 0 0 0 0 0 0 0 0
0 0 0 0 0 0 0 0 0 0 2 0 0 0 4 58 110 231 274 191 93 21 0 0 0 0 0 0 0 0 0 0 0 0 0 0 0 0 0 0 0 0 0
0 0 0 0 0 0 0 0 0 0 0 21 2 17 4 96 172 278 254 255 110 50 13 0 0 0 0 0 0 0 0 0 0 0 0 0 0 0 0 0 0 0 0
0 0 0 0 0 0 0 0 0 0 15 0 0 0 3 129 222 239 333 248 106 38 8 0 0 0 0 0 0 0 0 0 0 0 0 0 0 0 0 0 0 0 0
0 0 0 0 0 0 0 0 0 0 7 0 0 0 60 214 259 266 291 205 139 56 27 0 0 0 0 0 0 0 0 0 0 0 0 0 0 0 0 0 0 0 0
0 0 0 0 0 0 0 0 0 0 0 0 0 0 76 221 237 180 169 135 152 97 25 0 0 0 0 0 0 0 0 0 0 0 0 0 0 0 0 0 0 0 0
0 0 0 0 0 0 0 0 14 63 95 0 0 0 61 145 196 184 80 131 132 41 3 0 0 0 0 0 0 0 0 0 0 0 0 0 0 0 0 0 0 0 0

GFSSE_con_mlcape_054.txt.gz
CAPE
1215 1079 1098 1113 842 725 406 357 201 119 94 132 113 211 363 339 100 28 0 0 0 0 0 0 0 0 0 0 0 0 0 0 0 5 4 7 17 15 23 28 28 33 37
1079 988 457 901 918 749 521 430 297 154 88 131 122 348 478 309 80 46 4 0 0 0 0 0 0 0 1 2 0 0 0 0 0 0 7 14 8 8 8 9 19 23 18
793 805 279 334 848 844 591 454 295 157 82 79 164 486 562 229 65 38 11 0 0 0 0 0 0 0 0 10 6 0 0 0 0 0 0 0 6 8 7 4 9 18 16
194 977 815 244 493 741 666 523 359 198 155 180 377 640 666 225 41 14 1 0 0 0 0 0 0 0 0 0 0 0 0 0 0 0 0 0 2 8 6 10 12 7 3
243 774 1001 736 461 387 844 635 383 151 167 264 525 689 723 245 60 22 2 0 0 0 0 0 0 0 0 0 0 0 0 0 0 0 0 0 0 3 3 10 3 4 4
274 220 143 101 234 376 712 542 263 133 227 398 568 729 773 259 104 49 0 0 0 0 0 0 0 0 0 0 0 0 0 0 0 0 0 0 0 5 8 6 7 5 11
408 504 281 395 372 343 364 316 236 231 232 395 567 687 743 322 131 30 0 0 0 0 0 0 0 0 0 0 0 0 0 0 0 0 0 0 0 2 2 4 3 8 7
776 588 651 417 249 287 185 33 290 290 316 471 567 708 655 527 145 25 0 0 0 0 0 0 0 0 0 0 0 0 0 0 0 0 0 0 0 1 2 3 5 6 8
459 487 278 346 379 90 28 1 14 507 524 537 672 724 547 660 222 26 0 0 0 0 0 0 0 0 0 0 0 0 0 0 0 0 0 0 0 0 1 2 3 5 7
287 323 191 136 178 6 0 0 0 384 475 485 605 631 575 631 247 0 0 0 0 0 0 0 0 0 0 0 0 0 0 0 0 0 0 0 0 0 1 4 5 6 4
0 90 186 31 5 2 0 0 0 260 266 356 481 430 492 390 179 0 0 0 0 0 0 0 0 0 0 0 0 0 0 0 0 0 0 0 0 0 1 1 6 6 5
80 65 11 3 0 0 0 17 56 158 194 195 119 131 107 138 62 0 2 0 0 0 0 0 0 0 0 0 0 0 0 0 0 0 0 0 0 2 3 6 9 9 13
13 2 2 1 3 2 0 0 129 36 26 9 48 92 121 81 9 0 5 0 0 0 0 0 0 0 0 0 0 0 0 0 0 0 0 0 0 2 6 9 9 13 14
2 2 1 2 2 0 13 96 20 6 0 0 14 50 49 20 0 0 0 0 0 0 0 0 0 0 0 0 0 0 0 0 0 0 0 0 0 3 11 9 5 9 5
2 1 0 0 0 0 0 0 4 0 0 0 22 9 0 0 0 0 0 0 0 0 0 0 0 0 0 0 0 0 0 0 0 0 0 0 0 0 4 9 11 9 3
2 2 0 0 0 0 0 0 0 0 0 23 26 6 5 0 0 0 0 0 0 0 0 0 0 0 0 0 0 0 0 0 0 0 0 0 0 0 0 0 11 15 9
3 2 0 0 0 0 0 0 0 0 19 52 42 53 21 5 4 0 0 0 0 0 0 0 0 0 0 0 0 0 0 0 0 0 0 0 0 0 0 0 0 4 19
1 2 0 0 0 0 0 0 2 5 43 57 32 85 84 93 63 44 43 55 8 0 0 0 0 0 0 0 0 0 0 0 0 0 0 0 0 0 0 0 0 30 37
0 0 0 0 0 0 0 0 0 11 7 25 0 37 97 101 166 172 164 124 103 30 7 0 0 0 0 0 0 0 0 0 0 0 0 0 0 0 0 0 0 0 0
1 0 0 0 0 0 0 0 0 0 0 3 3 32 74 54 88 169 123 120 46 11 0 0 0 0 0 0 0 0 0 0 0 0 0 0 0 0 0 0 0 0 0
1 0 0 0 0 0 0 0 0 0 0 0 4 15 1 13 39 71 123 105 49 14 0 0 0 0 0 0 0 0 0 0 0 0 0 0 0 0 0 0 0 0 0
0 1 0 0 0 0 0 0 0 0 0 0 0 0 0 0 0 0 17 99 52 27 2 0 0 0 0 0 0 0 0 0 0 0 0 0 0 0 0 0 0 0 0
0 0 0 0 0 0 0 0 0 0 0 0 0 0 0 0 0 0 69 95 75 28 39 0 0 0 0 0 0 0 0 0 0 0 0 0 0 0 0 0 0 0 0
0 0 0 0 0 0 0 0 0 0 0 0 0 0 0 0 0 8 54 99 41 45 34 8 0 0 0 0 0 0 0 0 0 0 0 0 0 0 0 0 0 0 0
0 0 0 0 0 0 0 0 0 0 0 0 0 0 0 0 0 10 49 91 53 23 26 18 0 0 0 0 0 0 0 0 0 0 0 0 0 0 0 0 0 0 0
0 0 0 0 0 0 0 0 0 0 0 0 0 0 0 0 5 46 110 118 61 31 35 10 0 0 0 0 0 0 0 0 0 0 0 0 0 0 0 0 0 0 0

GFSSE_con_mlcape_057.txt.gz
CAPE
1013 874 1051 987 1005 891 836 556 240 490 500 412 376 359 300 212 115 86 45 8 0 0 0 0 1 0 0 2 8 9 7 2 1 5 19 30 20 25 42 28 12 19 41
1203 1003 1010 814 665 713 727 681 493 306 369 459 513 350 187 95 102 84 14 7 21 6 1 3 4 4 2 2 0 0 0 3 10 10 7 11 12 16 35 30 28 44 33
1193 1098 684 248 180 292 470 731 479 389 493 783 624 317 244 180 156 58 9 37 45 26 7 9 10 6 6 1 0 1 0 0 0 0 0 1 5 12 11 6 14 21 34
897 374 335 92 54 25 16 614 591 557 758 842 593 372 329 228 101 3 7 56 78 20 3 2 0 0 0 0 0 0 0 0 0 0 0 0 2 13 9 11 3 3 6
681 936 545 117 0 0 0 293 547 486 668 930 589 362 331 218 51 0 1 37 38 7 0 0 0 0 0 0 0 0 0 0 0 0 0 0 0 10 10 5 2 6 6
455 1130 814 176 0 45 190 431 162 380 624 867 635 344 269 139 4 0 0 2 21 0 0 0 0 0 0 0 0 0 0 0 0 0 0 0 0 9 5 6 6 4 8
423 709 882 382 303 387 374 127 3 621 580 671 695 339 218 122 2 0 0 3 0 0 0 0 0 0 0 0 0 0 0 0 0 0 0 0 1 5 6 8 5 7 9
360 544 551 671 522 350 294 188 161 430 427 629 711 377 272 102 0 0 0 0 0 0 0 0 0 0 0 0 0 0 0 0 0 0 0 0 3 4 6 7 8 6 6
561 426 303 243 191 31 0 0 2 171 358 438 536 400 267 110 0 0 0 0 0 0 0 0 0 0 0 0 0 0 0 0 0 0 0 0 3 5 6 6 6 5 5
457 276 384 203 138 6 0 0 0 157 391 345 327 432 236 65 0 0 0 0 0 0 0 0 0 0 0 0 0 0 0 0 0 0 0 0 0 2 4 2 4 3 5
365 229 177 73 4 2 2 0 0 84 314 385 451 411 146 19 0 0 0 0 0 0 0 0 0 0 0 0 0 0 0 0 0 0 0 0 0 2 4 3 3 2 2
130 110 11 2 1 1 0 0 2 69 227 459 522 439 153 8 0 0 0 0 0 0 0 0 0 0 0 0 0 0 0 0 0 0 0 0 1 2 2 3 2 3 3
6 13 3 1 0 0 0 0 15 46 85 139 204 190 103 3 0 0 0 0 0 0 0 0 0 0 0 0 0 0 0 0 0 0 0 0 0 1 5 9 7 10 10
4 5 3 2 2 0 0 0 0 52 41 73 135 132 64 0 0 0 0 0 0 0 0 0 0 0 0 0 0 0 0 0 0 0 0 0 0 0 3 10 13 10 5
2 1 1 3 3 0 0 0 0 0 0 23 48 77 29 0 0 1 0 0 0 0 0 0 0 0 0 0 0 0 0 0 0 0 0 0 0 1 4 10 8 14 10
1 1 0 0 3 3 0 0 0 0 0 1 16 45 5 0 4 3 0 0 0 0 0 0 0 0 0 0 0 0 0 0 0 0 0 0 0 0 0 15 17 19 14
1 0 0 0 0 0 0 0 0 0 15 36 29 25 3 0 0 0 0 0 0 0 0 0 0 0 0 0 0 0 0 0 0 0 0 0 0 0 0 0 1 13 12
2 2 1 0 0 0 0 20 0 1 19 25 15 27 9 0 0 1 1 0 0 0 0 0 0 0 0 0 0 0 0 0 0 0 0 0 0 0 0 0 0 0 3
1 1 1 0 0 0 0 1 3 16 50 60 66 34 26 5 0 9 11 34 1 0 0 0 0 0 0 0 0 0 0 0 0 0 0 0 0 0 0 0 0 0 0
1 1 2 0 0 0 1 7 12 34 47 42 49 82 107 115 174 136 116 112 77 25 2 0 0 0 0 0 0 0 0 0 0 0 0 0 0 0 0 0 0 0 0
1 0 0 0 0 0 0 2 26 18 28 14 42 29 93 120 111 140 144 101 105 77 62 12 0 0 0 0 0 0 0 0 0 0 0 0 0 0 0 0 0 0 0
0 0 1 0 0 0 0 0 0 6 5 18 12 9 39 28 43 45 92 122 84 43 6 0 0 0 0 0 0 0 0 0 0 0 0 0 0 0 0 0 0 0 0
1 0 0 0 0 0 0 0 0 0 2 11 9 9 10 3 0 0 0 0 20 37 20 0 0 0 0 0 0 0 0 0 0 0 0 0 0 0 0 0 0 0 0
0 0 0 0 0 0 0 0 0 0 0 0 0 0 1 0 0 0 0 0 13 33 19 16 0 0 0 0 0 0 0 0 0 0 0 0 0 0 0 0 0 0 0
0 0 0 0 0 0 0 0 0 0 0 0 0 0 0 0 0 0 0 3 5 28 46 20 0 0 0 0 0 0 0 0 0 0 0 0 0 0 0 0 0 0 0
0 0 0 0 0 0 0 0 0 0 0 0 0 0 0 0 0 0 0 1 0 4 44 17 0 0 0 0 0 0 0 0 0 0 0 0 0 0 0 0 0 0 0

GFSSE_con_mlcape_060.txt.gz
CAPE
704 711 488 567 591 734 734 917 825 731 826 876 701 525 445 487 396 278 179 59 19 5 2 2 6 9 12 12 7 3 2 8 14 14 31 39 32 25 30 6 14 31 65
961 1131 1060 991 758 463 604 730 754 525 771 787 728 583 510 413 289 52 36 44 31 3 0 1 2 2 4 9 13 11 5 2 1 8 22 33 28 23 41 31 19 21 20
1085 1163 1116 951 817 506 786 893 909 775 838 798 650 499 370 275 60 62 120 104 73 40 10 8 4 2 2 2 5 1 0 0 0 0 0 0 12 16 13 12 21 33 31
1145 1102 884 843 734 736 357 688 854 881 873 570 472 345 325 217 91 149 140 125 108 85 26 16 44 9 1 0 0 0 0 0 0 0 0 2 2 8 3 5 2 3 13
1057 769 728 624 468 336 461 420 806 891 745 337 383 352 294 163 202 228 178 139 141 99 51 58 31 5 0 0 0 0 0 0 0 0 0 0 2 4 6 4 10 8 6
942 752 358 289 422 231 132 502 864 738 527 303 321 267 291 180 246 213 119 96 60 2 1 0 4 0 0 0 0 0 0 0 0 0 0 0 0 8 7 6 7 10 8
717 887 665 221 297 140 142 374 415 814 682 464 275 284 283 164 230 161 116 39 0 0 0 0 0 0 0 0 0 0 0 0 0 0 0 0 2 5 5 6 7 6 7
519 739 893 491 239 253 361 254 184 192 249 355 230 218 209 135 143 194 50 0 0 0 0 0 0 0 0 0 0 0 0 0 0 0 0 0 6 5 6 5 7 6 6
312 533 858 458 301 361 96 0 0 0 113 299 185 229 213 166 112 84 0 0 0 0 0 0 0 0 0 0 0 0 0 0 0 0 0 0 2 4 2 3 2 3 2
443 495 551 256 38 9 1 0 0 20 209 330 243 225 231 166 87 0 0 0 0 0 0 0 0 0 0 0 0 0 0 0 0 0 0 1 3 4 4 2 2 2 2
411 330 277 48 0 0 0 0 0 0 22 240 256 252 189 70 0 0 0 0 0 0 0 0 0 0 0 0 0 0 0 0 0 0 0 0 3 4 5 4 2 2 2
212 248 165 3 2 2 3 1 0 0 0 50 271 237 109 2 0 0 0 0 0 0 0 0 0 0 0 0 0 0 0 0 0 0 0 0 3 5 6 6 3 3 2
84 32 13 0 0 0 0 1 0 21 42 37 249 218 55 0 0 0 0 0 0 0 0 0 0 0 0 0 0 0 0 0 0 0 0 1 3 4 5 4 6 7 7
13 12 3 43 35 3 2 0 11 0 3 62 113 171 36 0 0 0 0 0 0 0 0 0 0 0 0 0 0 0 0 0 0 0 0 0 0 2 5 8 11 11 4
1 1 6 2 0 0 0 0 0 13 7 29 88 178 45 2 0 0 0 0 0 0 0 0 0 0 0 0 0 0 0 0 0 0 0 0 0 0 3 12 17 14 16
1 2 3 3 0 0 0 0 0 0 0 16 57 98 35 0 0 0 0 0 0 0 0 0 0 0 0 0 0 0 0 0 0 0 0 0 0 0 0 6 12 21 21
1 0 2 3 0 0 0 0 0 0 0 25 43 80 14 0 0 0 0 0 0 0 0 0 0 0 0 0 0 0 0 0 0 0 0 0 0 0 0 0 5 17 22
1 1 1 0 3 0 0 0 2 1 10 23 52 61 32 9 7 2 0 0 0 0 0 0 0 0 0 0 0 0 0 0 0 0 0 0 0 0 0 0 0 13 25
0 0 1 1 1 0 1 3 15 40 17 66 67 61 58 16 7 3 1 0 0 0 0 0 0 0 0 0 0 0 0 0 0 0 0 0 0 0 0 0 0 0 0
1 1 1 0 0 0 0 1 1 18 49 47 63 67 43 16 12 8 6 0 0 0 0 0 0 0 0 0 0 0 0 0 0 0 0 0 0 0 0 0 0 0 0
1 0 0 0 0 0 0 0 0 4 5 21 38 35 31 33 26 24 32 48 52 19 6 0 0 0 0 0 0 0 0 0 0 0 0 0 0 0 0 0 0 0 0
0 0 1 1 0 0 0 0 7 5 20 46 53 67 83 87 106 135 163 123 101 72 40 38 22 0 0 0 0 0 0 0 0 0 0 0 0 0 0 0 0 0 0
0 0 0 0 0 0 0 0 0 0 2 29 22 20 4 16 31 59 95 79 121 59 62 25 1 0 4 0 0 0 0 0 0 0 0 0 0 0 0 0 0 0 0
0 0 0 0 0 0 0 0 0 0 1 3 3 21 26 31 8 6 3 7 3 23 24 29 1 0 0 0 0 0 0 0 0 0 0 0 0 0 0 0 0 0 0
0 0 0 0 0 0 0 0 0 0 0 0 0 14 15 2 1 0 1 0 0 9 29 7 0 0 0 0 0 0 0 0 0 0 0 0 0 0 0 0 0 0 0
0 0 0 0 0 0 0 0 0 0 0 0 0 0 0 0 0 0 0 0 0 1 9 1 1 0 0 0 0 0 0 0 0 0 0 0 0 0 0 0 0 0 0

GFSSE_con_mlcape_066.txt.gz
CAPE
965 1372 945 1084 1342 1265 1067 920 858 816 825 856 738 511 396 353 677 311 319 324 205 149 88 74 17 16 15 25 34 31 28 30 36 17 30 41 47 47 37 32 50 50 36
1116 1338 934 1361 1707 1704 1339 1094 960 1006 1010 934 625 493 521 674 682 641 502 265 156 103 28 2 0 12 17 7 2 2 8 12 8 10 23 41 37 38 33 20 27 26 26
1205 1264 994 1341 1698 1741 1520 1253 1090 1282 1116 957 825 875 836 792 658 649 326 165 74 54 13 3 8 18 9 2 0 0 0 0 0 8 10 27 18 12 10 5 7 7 12
1314 1310 1078 1278 1606 1766 1649 1507 1484 1377 1189 963 906 889 896 780 562 379 147 33 8 4 7 8 4 7 9 0 0 0 0 0 0 1 1 7 14 4 4 6 6 4 3
1345 1333 1181 885 1033 1706 1721 1652 1560 1374 1221 1028 923 898 781 566 365 147 38 1 0 3 4 7 11 10 6 0 0 0 0 0 0 0 0 0 3 5 2 1 3 1 4
1575 1241 1268 897 908 1251 1756 1716 1622 1399 1269 1056 963 838 811 587 378 119 37 10 3 2 3 7 18 12 0 0 0 0 0 0 0 0 0 0 2 4 4 0 5 1 1
1882 1344 1495 1018 448 191 654 1366 1626 1354 1215 1057 829 848 770 654 448 155 100 46 53 7 2 4 3 1 0 0 0 0 0 0 0 0 0 1 4 7 5 5 4 4 2
1441 1443 1376 629 225 81 309 920 1402 1206 1060 866 733 767 710 566 365 212 150 129 116 0 0 0 0 0 0 0 0 0 0 0 0 0 0 1 7 8 7 7 6 4 2
1012 1298 935 655 550 551 393 605 887 1069 953 782 793 757 614 474 295 261 184 173 152 0 0 0 0 0 0 0 0 0 0 0 0 0 0 1 10 8 8 6 3 4 3
826 698 980 1062 837 567 546 496 419 756 672 675 803 703 493 226 164 102 85 146 102 0 0 0 0 0 0 0 0 0 0 0 0 0 0 3 8 11 8 5 5 3 3
909 784 921 551 715 666 370 333 357 338 287 443 623 444 207 206 137 72 50 183 32 0 0 0 0 0 0 0 0 0 0 0 0 0 0 5 9 7 6 5 6 3 3
299 409 734 563 419 427 338 407 209 165 154 126 306 198 234 197 121 5 61 111 40 0 0 0 0 0 0 0 0 0 0 0 0 0 0 4 9 8 5 6 5 6 2
155 341 392 321 266 254 138 31 65 154 72 72 138 137 259 200 15 39 117 139 50 0 0 0 0 0 0 0 0 0 0 0 0 0 0 3 2 11 9 8 6 5 2
89 30 41 105 56 6 32 34 2 0 22 17 53 157 208 108 56 56 70 70 20 2 0 0 0 0 0 0 0 0 0 0 0 0 0 1 5 4 3 4 8 5 2
41 4 2 2 1 1 0 3 1 0 0 0 1 44 182 114 38 24 57 104 78 115 42 7 0 0 0 0 0 0 0 0 0 0 0 0 4 5 6 8 6 4 1
9 3 1 3 4 2 2 1 4 11 5 13 13 82 173 109 52 39 24 14 19 74 73 15 0 0 0 0 0 0 0 0 0 0 0 0 0 3 12 14 15 10 8
12 4 1 1 0 2 3 2 0 10 17 13 36 120 175 64 55 66 22 10 15 21 8 6 1 0 0 0 0 0 0 0 0 0 0 0 0 0 3 10 20 18 13
2 0 1 3 1 1 3 3 8 3 12 16 55 103 105 80 62 55 25 29 21 11 3 0 0 0 0 0 0 0 0 0 0 0 0 0 0 0 0 0 12 21 19
8 2 2 3 1 2 3 12 12 2 3 15 43 96 52 63 55 36 35 23 65 33 3 0 3 0 0 0 0 0 0 0 0 0 0 0 0 0 0 0 0 2 19
1 3 3 3 2 4 9 7 15 15 11 20 48 87 64 36 36 28 22 44 66 100 63 41 46 29 10 0 0 0 0 0 0 0 0 0 0 0 0 0 0 0 0
1 0 3 2 1 6 4 1 4 2 14 2 16 44 78 76 79 79 40 62 70 103 150 120 127 74 38 20 0 0 0 0 0 0 0 0 0 0 0 0 0 0 0
3 3 1 3 5 2 3 0 2 0 12 12 9 20 47 79 22 46 99 60 78 95 119 176 160 121 129 51 109 142 119 16 0 0 0 0 0 0 0 0 0 0 0
5 3 4 3 1 4 4 7 0 1 0 15 15 16 28 73 3 2 76 62 124 132 130 149 158 160 158 126 92 121 115 91 137 18 0 0 0 0 0 0 0 0 0
4 4 5 4 2 3 4 0 0 0 0 4 0 7 24 53 20 18 91 135 163 161 173 190 206 171 114 131 97 95 144 129 61 35 0 0 0 0 0 0 0 0 0
2 0 8 5 4 1 2 0 0 0 0 16 25 24 21 40 59 45 73 137 130 123 125 200 186 218 208 64 96 71 52 77 65 78 39 34 0 0 0 0 0 0 0
0 3 6 7 3 3 1 1 0 1 2 12 13 21 15 19 21 29 40 92 81 71 131 136 69 119 110 158 86 190 124 102 73 65 21 57 24 0 0 0 0 0 0

GFSSE_con_mlcape_069.txt.gz
CAPE
913 1485 815 1341 1587 1234 1021 861 768 801 833 709 647 421 665 685 479 239 165 228 251 275 432 355 196 218 179 87 56 35 24 8 23 38 39 84 89 74 40 34 69 133 99
1146 1703 737 1249 1712 1586 1337 1154 1077 932 944 965 679 596 711 640 521 292 370 456 402 378 186 133 136 88 99 64 51 0 15 0 8 32 53 93 86 67 24 15 29 34 21
1354 1859 1054 1246 1655 1764 1511 1259 1262 1162 1131 892 798 761 784 684 746 752 519 465 290 95 19 60 63 39 39 21 0 0 0 4 16 24 10 16 16 9 7 1 3 7 7
1433 1677 1261 1268 1549 1814 1502 1288 1349 1330 1225 1010 834 853 946 872 906 700 445 349 161 18 13 41 35 20 10 0 0 0 0 0 0 4 6 14 13 9 4 0 1 2 6
1568 1573 1425 1223 1633 1787 1535 1389 1422 1363 1178 1038 858 944 1017 883 786 502 262 213 87 2 2 16 26 12 0 0 0 0 0 0 0 10 10 10 16 5 2 5 2 3 4
1639 1517 1310 1126 1469 1264 1454 1381 1401 1342 1129 1079 994 1087 990 864 576 282 138 101 55 26 10 10 14 3 0 0 0 0 0 0 2 0 1 2 6 10 2 0 3 4 3
2000 1457 1362 1009 1142 971 933 800 744 1258 1119 1115 1072 1025 910 693 387 166 89 42 4 5 6 12 5 0 0 0 0 0 0 0 0 0 0 2 5 3 4 4 3 3 3
1917 1750 1495 1094 715 678 498 82 1 572 1105 1023 1018 930 805 535 295 153 95 39 2 0 2 5 2 0 0 0 0 0 0 0 0 0 0 0 3 2 3 4 5 5 3
1551 1883 1541 1505 953 402 1 0 0 8 995 960 932 1005 782 462 246 217 232 57 0 0 0 0 0 0 0 0 0 0 0 0 1 0 0 0 6 5 6 7 4 4 4
1456 1427 1679 1447 834 346 70 0 50 199 562 735 986 937 716 491 347 413 321 27 0 0 0 0 0 0 0 0 0 0 0 0 0 0 0 1 5 8 8 6 6 6 4
1111 1074 1307 1224 1046 644 425 335 268 149 152 522 771 546 487 560 400 322 220 33 0 0 0 0 0 0 0 0 0 0 0 2 1 0 0 2 5 5 5 5 5 4 4
763 978 882 775 983 825 460 396 264 218 298 324 386 277 290 322 365 315 253 20 0 0 0 0 0 0 0 0 0 0 2 5 1 0 0 3 6 7 5 5 4 2 1
175 201 509 618 669 566 519 392 262 244 201 162 163 230 270 170 94 261 236 0 0 0 0 0 0 0 0 0 0 1 1 11 3 0 0 3 9 7 5 6 3 1 0
63 178 349 373 420 242 412 256 210 177 124 20 19 37 73 80 105 172 156 0 0 0 0 0 0 2 0 0 0 0 0 11 2 0 0 2 4 9 8 5 4 3 1
83 89 25 0 70 59 9 92 156 53 14 1 3 0 0 36 65 192 161 13 0 0 0 0 8 1 0 0 0 0 1 11 4 0 0 1 4 6 3 3 7 4 3
64 25 2 1 0 6 56 11 9 31 4 11 1 0 11 40 93 150 89 112 18 36 13 3 15 0 0 0 0 0 0 0 8 4 0 0 3 4 8 4 4 5 6
47 10 4 1 1 1 2 2 1 2 1 11 5 28 39 68 140 109 173 166 112 97 90 46 1 0 0 0 0 0 0 0 0 8 0 0 0 0 2 4 3 1 5
3 8 6 2 4 1 2 6 0 4 3 1 0 17 21 130 156 172 146 114 100 131 127 48 3 0 0 0 0 0 0 0 0 0 1 4 0 0 0 3 5 9 1
0 3 3 3 1 1 2 5 17 2 7 3 0 21 50 125 131 150 119 115 158 119 88 62 17 0 2 0 0 0 0 0 0 0 0 0 1 0 0 0 0 0 8
3 6 2 3 2 2 4 6 3 4 4 20 5 42 88 113 131 101 105 127 110 70 49 55 30 37 41 18 0 0 0 0 0 0 0 0 0 0 0 0 0 0 0
1 2 2 1 1 2 4 5 2 4 2 15 7 31 72 109 102 106 79 99 136 120 101 103 95 110 64 46 1 0 0 0 0 0 0 0 0 0 0 0 0 0 0
3 2 3 2 3 1 6 5 7 0 0 0 0 30 84 83 77 39 41 47 67 157 193 168 148 161 143 117 63 59 59 7 0 0 0 0 0 0 0 0 0 0 0
5 5 4 4 3 0 5 5 8 10 14 7 12 16 50 73 82 53 70 104 110 154 229 222 253 211 127 180 141 118 65 93 136 30 0 0 0 0 0 0 0 0 0
4 4 7 4 3 2 4 5 2 5 8 0 0 6 18 73 58 77 128 98 152 163 191 233 261 249 109 75 153 144 188 198 124 46 27 0 0 0 0 0 0 0 0
0 3 5 3 2 4 5 4 0 0 2 1 0 6 26 36 80 54 84 62 38 181 202 234 199 194 174 40 44 160 141 106 122 98 28 35 1 0 0 0 0 0 0
0 7 4 2 4 4 6 5 0 0 2 0 14 8 12 24 62 67 39 16 57 112 194 100 82 70 58 82 42 69 90 72 65 67 71 113 110 24 0 0 0 0 0

GFSSE_con_mlcape_072.txt.gz
CAPE
1589 1256 1080 1370 1177 1078 1098 988 887 797 666 513 485 454 448 365 191 56 10 61 102 180 400 367 227 200 225 234 143 57 31 40 96 82 102 142 130 120 138 71 53 88 127
1787 1392 1074 1453 1421 1242 1198 1196 1149 1068 834 708 625 699 631 492 278 240 263 257 570 546 413 404 310 153 122 107 27 12 23 39 34 72 91 171 95 71 74 29 13 25 29
2023 1594 1218 1396 1772 1441 1191 1200 1245 1141 1044 862 771 665 677 568 460 645 654 673 462 437 394 319 251 143 83 25 5 0 3 11 17 10 8 3 21 15 9 0 4 8 10
1638 1751 1450 1297 1712 1739 1379 1137 1231 1265 1189 1029 914 710 672 603 726 743 650 514 381 349 246 94 104 66 17 3 0 15 35 24 9 0 3 11 10 9 3 3 3 3 4
1564 1634 1767 1163 1500 1901 1600 1222 1101 1188 1180 1091 960 912 761 831 837 714 494 332 158 232 144 85 32 14 0 0 0 0 3 20 34 5 0 3 4 7 2 3 8 8 9
1745 1621 1507 1315 1411 1843 1679 1334 1066 1120 1117 1082 918 1043 1035 941 841 593 370 148 110 89 89 43 5 0 0 0 0 0 0 0 4 0 0 2 10 16 3 7 2 1 1
1829 1669 1604 1311 1276 1597 1632 1292 711 894 919 888 1111 1179 1102 856 612 436 266 96 34 48 57 9 2 0 0 0 0 0 0 0 0 0 0 0 1 4 10 6 7 6 6
1796 2037 1728 1292 1199 1030 1047 612 159 14 135 766 973 1129 1018 703 455 325 226 119 94 25 9 5 0 0 0 0 0 0 0 0 0 0 0 1 11 8 9 6 7 7 6
1572 1962 1740 1358 744 765 556 110 8 0 18 230 799 988 745 515 371 303 151 98 41 0 0 1 0 0 0 0 0 0 0 0 0 0 0 4 7 8 7 3 2 3 2
1423 1494 1591 1449 1095 329 118 0 0 0 3 42 556 699 535 427 334 258 106 44 3 0 2 0 0 0 0 0 0 0 0 0 0 0 0 3 8 5 3 2 2 2 2
847 1218 1316 1199 1092 650 125 0 0 0 0 6 630 511 388 397 396 161 59 3 0 0 0 0 0 0 0 0 0 0 0 1 0 0 0 6 8 5 3 2 2 1 2
446 934 989 899 799 629 384 41 8 1 0 28 459 370 392 375 430 208 55 11 0 0 0 0 0 0 0 0 0 0 0 2 0 0 0 1 5 5 4 5 3 2 2
255 319 275 550 551 564 354 210 178 19 0 5 217 178 286 406 204 103 5 0 0 0 0 0 0 0 0 0 0 0 6 1 0 0 1 2 8 6 6 4 2 2 1
124 142 364 365 496 480 384 213 304 176 120 165 103 194 170 77 113 65 0 0 0 0 0 0 0 0 0 0 0 0 15 0 0 0 0 3 3 6 8 5 3 2 0
116 162 137 53 256 298 305 211 224 167 121 77 38 30 34 32 42 41 0 0 0 0 0 0 0 0 0 0 0 0 20 6 0 0 0 2 5 3 8 6 3 2 0
99 64 0 1 0 37 75 130 95 44 11 5 0 4 5 31 0 7 12 0 4 0 1 0 0 0 0 0 0 0 15 6 0 0 0 0 1 3 3 5 4 4 2
101 10 0 0 3 3 23 21 57 7 2 2 0 0 0 0 0 6 76 17 46 12 8 0 0 0 0 0 0 0 1 15 4 0 0 0 0 0 0 0 0 1 4
43 2 0 1 4 0 18 9 2 2 2 2 0 0 0 0 0 6 76 100 91 60 92 27 0 0 0 0 0 0 0 0 7 0 0 0 0 0 0 0 0 0 0
2 2 0 0 2 2 3 1 5 2 2 2 3 0 0 0 4 45 105 143 172 101 145 7 0 0 0 0 0 0 0 0 0 0 0 0 0 0 0 0 0 0 0
4 1 0 0 3 3 7 1 2 2 2 1 3 0 0 0 13 42 62 66 21 17 104 53 18 6 0 0 0 0 0 0 0 0 0 0 0 0 0 0 0 0 0
7 2 2 0 0 2 2 2 2 3 2 1 1 1 0 2 47 110 99 139 118 105 85 79 74 61 63 38 1 0 0 0 0 0 0 0 0 0 0 0 0 0 0
2 2 1 1 1 0 3 1 1 3 3 1 0 0 4 28 67 64 71 112 108 88 55 81 81 77 67 48 10 2 0 0 0 0 0 0 0 0 0 0 0 0 0
1 4 0 1 2 1 3 2 2 1 1 2 0 2 8 25 31 49 55 77 91 89 70 74 71 88 84 84 53 16 34 17 12 0 0 0 0 0 0 0 0 0 0
1 2 3 1 1 0 9 1 0 1 1 0 0 0 0 14 46 64 60 70 33 83 153 140 130 121 120 47 76 82 110 137 40 15 12 0 0 0 0 0 0 0 0
0 1 2 0 1 0 3 1 0 2 0 0 0 0 1 12 18 39 54 104 85 94 138 143 122 114 78 46 37 22 33 24 39 15 5 2 0 0 0 0 0 0 0
0 0 2 5 3 0 2 4 1 0 1 1 0 0 0 0 35 20 32 88 81 81 110 86 76 49 50 27 15 51 20 10 28 25 21 25 24 0 0 0 0 0 0

GFSSE_con_mlcape_075.txt.gz
CAPE
1186 1354 1234 1083 986 963 1049 879 759 695 637 635 535 576 554 498 381 259 110 47 85 214 312 446 474 485 457 359 196 124 122 118 136 157 211 212 159 135 115 97 82 107 160
1434 1406 1475 1201 1109 1090 1103 1103 1040 798 849 769 721 609 544 414 313 212 104 243 413 319 278 365 267 109 253 123 53 48 47 72 82 52 71 106 75 64 51 30 34 25 68
1558 1351 1651 1410 1212 1219 1173 1251 1230 993 925 795 682 508 471 404 365 327 654 774 690 649 436 163 95 93 188 68 65 50 25 2 0 9 20 26 47 68 34 20 23 45 40
1733 1337 1353 1766 1474 1279 1256 1201 1249 1177 1070 954 759 533 487 523 584 724 757 725 738 648 392 207 169 160 75 49 40 42 18 0 0 1 6 16 19 27 14 19 18 11 7
1728 1481 1288 1571 1793 1446 1259 1251 1251 1250 1089 986 773 649 626 732 805 706 634 688 649 449 290 198 117 73 35 71 104 40 2 0 0 0 1 4 11 18 8 5 7 6 5
1453 1603 1569 1277 1800 1819 1437 1238 1188 1154 1015 918 778 687 758 855 892 604 457 556 522 375 268 111 41 0 0 16 31 17 4 2 0 0 1 6 6 12 7 3 3 6 4
1609 1574 1552 1319 1425 1741 1717 1367 1193 1067 741 1026 784 759 746 882 814 484 314 364 358 295 70 32 2 0 0 0 0 0 0 0 0 0 0 2 11 11 5 1 1 2 8
1705 1664 1497 1381 1436 1429 1527 1287 970 75 0 0 140 567 1079 945 610 323 198 227 215 83 14 2 0 0 0 0 0 0 0 0 0 0 0 2 9 12 10 7 8 8 7
1310 1857 1521 1326 1244 1218 1200 966 403 86 22 0 0 297 474 699 454 274 179 153 91 11 1 0 0 0 0 0 0 0 0 0 0 0 0 3 14 7 9 6 7 5 5
1259 1165 1744 1238 863 651 381 275 106 74 7 23 2 56 248 428 383 347 229 59 11 12 0 0 0 0 0 0 0 0 0 0 0 0 0 6 8 6 7 7 6 4 4
1141 1013 887 1273 740 346 93 15 0 5 1 0 0 0 241 314 257 179 133 62 14 0 0 0 0 0 0 0 0 0 0 0 0 0 0 6 6 6 5 4 4 4 4
690 569 914 870 686 213 63 11 0 0 0 1 1 0 213 195 101 91 33 8 0 0 0 0 0 0 0 0 0 0 0 0 0 0 0 3 4 4 5 3 4 4 3
346 549 572 317 277 302 43 0 0 0 0 2 7 2 136 106 58 4 1 0 0 0 0 0 0 0 0 0 0 0 0 0 0 0 0 1 4 4 3 3 1 2 2
150 106 273 239 170 195 176 34 0 0 0 1 25 59 113 29 4 1 1 0 0 0 0 0 0 0 0 0 0 0 0 0 0 0 0 4 4 4 4 2 1 2 1
143 180 51 62 205 318 245 111 57 12 0 0 100 95 76 23 1 0 0 0 0 0 0 0 0 0 0 0 0 0 0 0 0 0 0 1 1 5 6 4 2 1 0
116 46 0 0 1 91 104 81 142 94 30 12 43 28 61 20 0 0 0 0 0 0 0 0 0 0 0 0 0 0 0 0 0 0 0 0 2 4 3 4 2 1 1
54 0 0 0 0 1 1 34 37 33 26 10 24 6 22 2 0 0 0 0 0 0 0 0 0 0 0 0 0 0 0 0 0 0 0 0 0 0 2 2 2 2 3
17 0 0 0 1 1 1 2 8 13 5 3 1 0 0 0 0 0 0 0 0 0 0 0 1 0 0 0 0 0 0 0 0 0 0 0 0 0 0 0 0 0 1
2 0 0 0 1 0 1 8 6 2 1 1 0 0 0 0 0 0 0 0 18 1 7 0 11 0 0 0 0 0 0 0 0 0 0 0 0 0 0 0 0 0 0
0 1 0 0 1 0 0 1 2 2 2 2 1 0 0 0 0 0 6 19 60 27 66 29 14 0 0 0 0 0 0 0 0 0 0 0 0 0 0 0 0 0 0
0 0 0 1 1 0 1 1 1 1 2 2 0 0 0 0 0 0 14 28 60 79 54 20 5 0 0 0 0 0 0 0 0 0 0 0 0 0 0 0 0 0 0
0 2 3 0 2 2 1 1 1 2 1 2 2 0 0 0 0 0 3 1 42 49 56 17 16 5 1 0 0 0 0 0 0 0 0 0 0 0 0 0 0 0 0
0 2 0 0 1 3 0 2 2 2 1 1 1 1 0 0 0 0 0 1 13 18 24 26 26 27 35 8 0 0 0 0 0 0 0 0 0 0 0 0 0 0 0
0 1 1 0 0 0 1 1 0 2 2 1 0 0 0 0 0 2 9 20 10 10 11 47 51 51 33 6 9 2 17 22 30 9 0 0 0 0 0 0 0 0 0
0 0 0 1 2 0 1 1 1 0 1 0 0 0 0 0 1 1 0 0 31 47 54 58 70 45 53 45 31 6 19 31 35 2 0 0 0 0 0 0 0 0 0
0 0 1 1 0 1 5 0 0 0 0 0 0 0 0 0 1 0 2 7 14 37 38 41 74 105 97 40 40 33 20 17 17 9 5 0 0 0 0 0 0 0 0

GFSSE_con_mlcape_078.txt.gz
CAPE
1027 1059 1146 1249 1080 834 627 664 702 823 862 682 770 846 924 836 713 640 513 453 533 655 638 717 674 641 635 567 455 395 360 342 314 233 280 242 241 215 209 173 144 119 131
1187 1310 1229 1304 1176 977 828 749 811 855 920 835 774 766 724 724 620 510 436 459 658 615 639 645 604 551 490 379 287 254 260 250 189 187 147 118 136 108 108 66 44 61 71
1345 1463 1302 1305 1322 1196 1093 914 931 1037 956 794 700 735 664 610 441 306 411 666 604 618 504 373 452 532 387 239 184 166 127 123 99 78 57 38 43 82 88 48 42 47 68
1386 1528 1399 1312 1396 1376 1278 1164 1032 1032 989 831 852 710 607 500 619 786 723 591 570 582 358 283 236 340 253 109 53 51 37 26 13 3 11 58 72 66 42 21 19 15 11
1577 1584 1530 1378 1437 1530 1419 1303 1151 1089 904 738 823 752 556 678 958 909 880 880 636 426 157 183 279 312 130 69 42 29 1 0 0 0 7 28 36 51 22 9 7 2 3
1584 1489 1618 1533 1498 1500 1434 1401 1248 1188 922 430 587 738 609 797 1005 871 906 808 705 495 345 275 292 128 91 61 1 0 0 0 0 1 4 10 13 26 8 8 9 5 4
1512 1474 1549 1630 1644 1573 1481 1471 1460 1230 1161 1080 806 1002 936 996 966 808 808 726 635 425 348 316 181 81 11 0 0 0 0 0 0 0 1 3 3 5 2 3 1 0 6
1384 1529 1465 1654 1686 1752 1617 1399 937 426 311 68 0 0 455 917 912 811 677 601 500 337 261 147 30 3 0 0 0 0 0 0 0 0 0 1 7 3 3 7 5 9 7
1423 1489 1433 1458 1718 1771 1698 1325 333 50 26 1 0 0 13 262 329 718 672 501 266 149 105 28 0 0 0 0 0 0 0 0 0 0 0 0 9 8 8 5 7 8 7
1146 1465 1421 1301 1313 1397 1460 926 282 250 250 13 22 0 0 134 162 373 531 321 97 55 27 0 0 0 0 0 0 0 0 0 0 0 0 6 9 7 4 3 6 7 7
879 960 1394 1038 900 737 703 435 181 149 102 14 1 0 37 63 173 273 330 212 73 32 5 0 0 0 0 0 0 0 0 0 0 0 0 8 8 6 8 6 4 5 5
762 738 604 949 781 409 146 118 73 93 45 0 0 0 41 128 162 216 212 109 31 37 20 0 0 0 0 0 0 0 0 0 0 0 0 6 8 5 6 8 9 9 8
528 530 713 846 667 298 43 0 9 5 9 0 0 0 63 63 131 178 61 16 0 1 0 0 0 0 0 0 0 0 0 0 0 0 1 2 5 7 6 8 8 9 6
354 442 496 285 300 153 2 0 1 0 0 0 2 0 15 78 69 21 1 1 0 0 0 0 0 0 0 0 0 0 0 0 0 0 2 1 4 5 8 6 6 5 5
133 129 121 182 182 204 20 2 3 0 0 0 2 0 0 24 5 3 1 0 0 0 0 0 0 0 0 0 0 0 0 0 0 0 0 0 2 1 5 5 3 3 3
120 15 19 33 130 198 136 3 13 0 0 0 72 4 15 5 1 1 0 0 0 0 0 0 0 0 0 0 0 0 0 0 0 0 0 0 0 1 2 3 1 2 1
47 0 0 0 0 24 116 104 62 12 7 11 98 67 14 1 0 0 0 0 0 0 0 0 0 0 0 0 0 0 0 0 0 0 0 0 0 0 0 1 1 1 1
22 0 0 0 0 0 0 74 97 44 7 20 66 67 11 0 0 0 0 0 0 0 0 0 0 0 0 0 0 0 0 0 0 0 0 0 0 0 0 0 1 1 1
33 0 0 0 0 0 1 4 11 36 6 8 37 16 1 0 0 0 0 0 0 0 0 0 0 0 0 0 0 0 0 0 0 0 0 0 0 0 0 0 0 0 0
1 0 0 0 0 2 2 6 8 23 5 2 3 12 0 0 0 0 0 0 0 0 0 0 0 0 0 0 0 0 0 0 0 0 0 0 0 0 0 0 0 0 0
0 0 0 0 1 1 2 3 5 2 1 2 1 0 0 0 0 0 0 0 0 0 0 0 0 0 0 0 0 0 0 0 0 0 0 0 0 0 0 0 0 0 0
0 0 0 0 1 0 2 0 1 1 2 1 1 0 0 0 0 0 0 0 4 0 0 0 0 0 0 0 0 0 0 0 0 0 0 0 0 0 0 0 0 0 0
0 0 0 0 0 2 0 0 1 0 0 1 1 1 0 0 0 0 0 3 23 3 2 0 2 2 0 0 0 0 0 0 0 0 0 0 0 0 0 0 0 0 0
0 0 0 0 0 0 1 1 1 1 1 1 1 0 0 0 0 0 2 14 20 38 21 14 0 1 0 1 0 0 0 0 0 0 0 0 0 0 0 0 0 0 0
0 0 0 0 0 0 1 0 1 0 0 0 1 1 0 0 0 0 0 8 17 29 42 35 27 26 13 0 0 5 5 2 20 8 0 0 0 0 0 0 0 0 0
0 0 0 0 0 0 0 0 0 0 1 0 0 1 1 0 0 0 2 0 6 11 6 4 17 21 47 45 18 1 12 24 19 19 5 0 0 0 0 0 0 0 0

GFSSE_con_mlcape_081.txt.gz
CAPE
733 883 931 1096 1109 1098 931 740 631 892 1133 1211 1214 1162 1007 942 911 895 783 801 853 755 851 788 736 741 714 704 591 485 413 368 412 369 390 382 347 333 270 212 155 183 218
797 888 1053 1189 1096 1052 994 1000 750 948 1194 1303 1326 1321 1158 1050 942 827 853 955 965 769 704 801 668 621 617 566 484 433 366 284 222 217 185 307 250 254 230 141 153 161 166
974 1049 1147 1215 1137 1158 1117 1142 1056 906 1163 1291 1299 1260 1155 1001 873 795 883 951 877 763 872 771 677 633 504 493 426 383 290 197 165 134 119 43 120 128 177 112 81 146 146
1100 1059 1151 1281 1251 1192 1198 1244 1333 1161 999 1142 1193 1141 1032 883 803 776 911 930 889 881 824 752 646 538 494 390 344 260 186 90 61 25 11 43 60 118 73 35 41 47 50
1275 1157 1164 1272 1359 1359 1278 1281 1270 1278 1146 1057 984 974 925 825 781 805 845 813 761 761 780 723 623 472 333 255 161 63 21 11 6 5 7 16 43 74 52 16 8 8 4
1424 1407 1302 1310 1428 1492 1471 1308 1342 1263 1154 1113 1023 909 821 895 691 673 823 772 790 704 343 496 504 311 169 89 19 0 0 0 0 0 3 20 15 30 10 6 6 2 5
1351 1467 1519 1387 1487 1622 1670 1446 1343 1414 1219 1111 610 690 913 954 1097 861 756 723 543 229 324 521 353 232 60 15 0 0 0 0 0 0 3 11 17 17 21 9 2 5 3
1182 1312 1510 1517 1522 1574 1620 1484 1200 985 691 355 179 316 385 406 604 616 730 804 559 440 461 314 253 73 26 2 0 0 0 0 0 0 0 4 10 7 2 1 2 5 6
1289 1281 1426 1684 1711 1587 1523 1392 1064 511 171 25 0 4 149 21 179 321 646 529 550 483 286 208 99 15 11 0 0 0 0 0 0 0 0 5 9 2 12 6 7 7 6
1197 1313 1387 1561 1823 1771 1503 1013 685 367 121 15 0 3 0 3 53 122 276 334 402 303 183 102 6 5 2 0 0 0 0 0 0 0 0 1 3 13 12 11 11 6 7
1029 1201 1275 1302 1121 1268 1352 789 602 304 94 41 13 6 0 0 39 153 138 259 326 259 111 18 0 0 0 0 0 0 0 0 0 0 0 2 10 12 9 11 10 9 8
683 1000 1156 943 721 717 776 785 320 191 171 65 7 0 0 0 32 109 105 215 240 173 34 0 0 0 0 0 0 0 0 0 0 0 0 7 11 12 14 10 1 1 1
526 548 684 826 633 526 437 376 211 130 74 32 21 3 11 13 58 29 108 143 159 124 0 0 0 0 0 0 0 0 0 0 0 0 3 7 7 9 9 1 1 1 2
497 564 523 610 523 412 114 85 52 33 24 26 1 0 8 51 100 104 94 96 56 25 0 0 0 0 0 0 0 0 0 0 0 0 2 4 4 8 11 8 5 7 6
323 367 380 418 455 259 94 1 1 1 6 25 1 0 58 21 47 125 66 17 1 0 0 0 0 0 0 0 0 0 0 0 0 0 0 1 2 6 9 5 4 4 5
240 184 152 157 137 114 7 2 1 0 0 11 1 0 39 50 104 71 8 1 0 0 0 0 0 0 0 0 0 0 0 0 0 0 0 0 1 3 6 4 5 4 5
133 60 28 23 94 154 65 2 2 0 0 0 2 0 6 105 73 25 1 0 0 0 0 0 0 0 0 0 0 0 0 0 0 0 0 0 0 2 3 4 3 4 5
63 38 0 0 4 78 108 6 3 0 1 0 18 20 3 58 19 3 1 0 0 0 0 0 0 0 0 0 0 0 0 0 0 0 0 0 0 0 0 2 2 3 4
37 0 0 0 0 0 1 40 43 3 5 15 69 16 3 2 1 1 0 0 0 0 0 0 0 0 0 0 0 0 0 0 0 0 0 0 0 0 0 0 0 1 2
10 0 0 0 0 0 2 6 39 26 4 16 61 29 1 1 0 0 0 0 0 0 0 0 0 0 0 0 0 0 0 0 0 0 0 0 0 0 0 0 0 0 0
0 0 0 0 1 3 1 3 3 20 11 7 27 23 4 0 0 0 0 0 0 0 0 0 0 0 0 0 0 0 0 0 0 0 0 0 0 0 0 0 0 0 0
16 0 0 0 1 1 0 0 1 10 1 1 1 2 3 0 0 0 0 0 0 0 0 0 0 0 0 0 0 0 0 0 0 0 0 0 0 0 0 0 0 0 0
2 0 0 0 0 0 0 0 0 0 1 1 1 1 5 1 0 0 0 0 0 0 0 0 0 0 0 0 0 2 0 0 1 0 0 0 0 0 0 0 0 0 0
0 0 0 0 0 0 0 0 1 0 1 0 1 1 2 0 0 0 0 0 0 0 6 1 2 0 0 0 0 0 0 0 0 0 0 0 1 0 0 0 0 0 0
0 0 0 0 1 2 0 0 0 1 0 1 1 1 1 1 0 0 0 2 7 0 13 17 17 24 7 1 0 0 0 0 0 0 0 0 0 0 0 0 0 0 0
0 0 0 0 0 1 0 0 0 1 0 1 0 1 1 0 0 0 0 8 20 29 11 13 29 34 15 5 0 0 0 5 11 3 1 1 6 0 0 0 0 0 0

GFSSE_con_mlcape_084.txt.gz
CAPE
654 707 958 1004 1105 831 689 819 966 1219 1328 1226 1193 1110 1067 1065 1101 1022 943 902 1050 1032 914 814 775 842 708 664 658 530 572 554 477 446 426 431 397 421 397 307 285 271 267
549 873 989 1080 1183 935 712 864 1074 1364 1484 1435 1333 1271 1248 1229 1104 998 1064 1043 1151 1043 916 853 885 804 843 749 598 518 513 499 479 388 389 423 357 299 293 214 163 147 205
635 856 991 1119 1250 1061 785 890 1188 1533 1681 1599 1435 1300 1280 1257 1147 1030 1124 1098 1173 864 812 852 748 733 880 726 585 482 432 377 296 309 324 265 295 297 284 200 191 183 200
748 808 1018 1217 1248 1156 967 857 1217 1539 1684 1641 1491 1372 1355 1309 1211 1150 1153 1098 1048 1026 1002 973 949 805 762 633 515 432 368 262 186 80 82 105 131 240 215 203 191 155 132
966 896 1038 1311 1296 1314 1204 912 1169 1472 1459 1699 1717 1678 1550 1393 1251 1357 1125 1161 1126 1086 1073 882 867 718 644 505 437 293 161 66 37 16 24 45 102 145 87 47 42 67 71
1154 995 1039 1326 1366 1362 1421 1291 933 1396 1636 1666 1642 1611 1561 1473 1346 1316 1139 1019 902 797 1003 968 829 617 476 366 239 101 44 14 2 8 34 68 20 13 6 4 7 8 5
1248 1116 1130 1313 1472 1335 1412 1400 1349 1100 1321 1479 1490 1213 1203 1000 881 1090 725 550 635 752 900 785 615 481 342 169 70 30 15 10 0 1 0 0 6 11 15 3 2 3 4
1273 1285 1209 1340 1495 1393 1355 1392 1361 1238 1205 1086 934 634 647 655 452 379 436 508 504 510 812 643 437 308 143 61 28 10 9 0 0 0 0 10 16 21 12 3 4 7 5
1328 1349 1340 1430 1562 1466 1409 1336 1207 988 856 699 415 283 333 266 100 213 350 319 336 452 506 414 259 137 72 30 16 3 0 0 0 0 3 6 18 18 7 1 4 4 2
1289 1271 1348 1500 1564 1578 1525 1142 844 521 436 191 178 204 128 104 184 265 201 248 349 373 404 287 118 109 46 11 0 0 0 0 0 0 0 5 15 16 6 1 2 1 4
1083 1197 1244 1489 1564 1518 1295 958 654 431 225 142 88 21 4 0 29 42 90 146 146 223 324 87 97 82 23 0 0 0 0 0 0 0 0 4 5 4 3 2 0 2 8
770 960 1250 1397 1451 1311 1074 933 618 294 25 0 1 1 6 16 14 9 78 96 90 134 126 29 20 7 0 0 0 0 0 0 0 0 0 3 2 6 6 1 7 5 1
631 786 1110 1190 1054 856 773 683 398 246 62 3 1 2 0 0 37 14 23 71 55 92 19 1 1 0 0 0 0 0 0 0 0 0 1 4 15 5 8 8 5 5 3
487 754 985 991 661 517 512 519 375 291 83 2 12 4 14 11 4 34 68 40 44 37 0 0 0 0 0 0 0 0 0 0 0 0 2 6 10 11 8 5 5 2 1
413 559 662 735 617 437 346 298 215 70 82 1 0 3 15 2 5 17 85 51 51 0 0 0 0 0 0 0 0 0 0 0 0 0 0 5 8 11 8 7 3 10 8
237 512 527 482 420 258 221 150 73 11 4 1 1 6 49 21 45 50 91 49 3 0 0 0 0 0 0 0 0 0 0 0 0 0 0 3 10 11 8 6 1 10 8
167 244 378 341 302 193 105 2 0 0 0 1 2 0 39 34 33 53 48 13 1 0 0 0 0 0 0 0 0 0 0 0 0 0 0 0 3 10 9 6 8 7 7
136 190 182 147 108 82 12 1 0 1 1 4 2 0 25 32 41 43 38 45 0 0 0 0 0 0 0 0 0 0 0 0 0 0 0 0 0 2 7 7 8 8 8
90 122 103 29 58 100 6 3 3 1 2 1 3 7 10 52 63 55 32 4 0 0 0 0 0 0 0 0 0 0 0 0 0 0 0 0 0 0 0 4 5 4 5
49 38 15 1 1 2 13 30 9 3 3 0 2 8 1 6 65 53 1 0 0 0 0 0 0 0 0 0 0 0 0 0 0 0 0 0 0 0 0 0 1 2 1
3 8 0 0 0 0 2 1 11 4 4 2 4 53 19 3 30 1 0 0 0 0 0 0 0 0 0 0 0 0 0 0 0 0 0 0 0 0 0 0 0 0 0
10 6 0 0 0 1 0 2 3 5 14 16 7 3 1 1 0 0 0 0 0 0 0 0 0 0 0 0 0 0 0 0 0 0 0 0 0 0 0 0 0 0 0
10 6 0 0 0 1 2 2 2 7 2 10 24 4 1 0 0 0 0 0 0 0 0 0 0 0 0 0 1 0 0 0 0 0 0 0 0 0 0 0 0 0 0
11 2 0 0 0 1 1 1 0 4 11 1 0 2 2 0 0 0 0 0 0 0 0 0 0 0 0 0 0 0 0 0 8 0 0 0 0 0 0 0 8 2 1
3 0 0 0 0 1 1 2 2 1 0 0 1 1 2 3 0 0 0 0 0 0 0 0 4 2 0 0 0 3 3 0 0 0 0 1 0 0 0 0 4 2 0
1 0 0 0 0 1 0 0 1 1 0 1 1 1 2 2 3 0 0 0 0 0 0 2 21 31 8 4 0 4 2 2 0 2 0 0 0 0 0 0 8 5 2

GFSSE_con_mlcape_087.txt.gz
CAPE
411 613 658 768 886 940 815 780 960 1278 1258 1212 1203 1125 1142 1182 1177 1288 1294 1276 1135 1085 1071 974 964 970 981 873 769 780 736 669 568 527 547 605 578 553 475 370 406 425 353
551 877 755 752 821 918 840 885 1111 1446 1503 1411 1372 1255 1243 1319 1319 1351 1268 1231 1227 1171 1101 1142 1078 1064 1025 931 824 742 666 603 519 473 506 639 603 503 424 339 373 293 342
626 965 895 816 924 957 911 1037 1335 1694 1687 1605 1507 1375 1351 1377 1362 1393 1369 1351 1320 1271 1260 1199 1208 1185 1065 850 800 665 651 557 464 461 479 466 442 420 382 241 171 257 269
626 995 1066 854 1000 1007 1004 1098 1283 1836 1902 1800 1716 1573 1592 1479 1449 1386 1455 1430 1430 1391 1387 1248 1315 1242 987 867 724 659 611 494 451 388 363 346 410 376 301 232 223 243 175
735 945 1073 904 1074 958 1046 1201 1386 1912 1992 1881 1825 1746 1659 1591 1537 1523 1509 1366 1257 1264 1289 1199 1329 1183 952 752 680 589 457 289 206 234 305 374 319 310 326 244 136 65 114
787 922 952 963 1101 1106 1086 1225 1436 1651 1867 1926 1845 1788 1720 1647 1491 997 1058 1276 1368 1402 1253 1033 1046 969 846 702 553 382 210 89 73 97 154 220 151 119 6 4 17 22 9
901 930 979 1135 1122 1201 1119 1132 1515 1350 1565 1795 1780 1777 1728 1657 1121 884 776 719 937 1130 1042 1033 820 835 695 524 345 148 44 40 114 185 161 117 42 1 0 3 2 8 9
849 1091 1045 1252 1224 1198 1251 1177 1300 1365 1342 1630 1756 1661 1286 1194 901 732 641 574 576 934 1034 859 690 656 517 301 136 47 20 40 78 113 93 61 4 0 9 10 6 9 10
1141 933 933 1247 1488 1198 1257 1326 1194 1246 1439 1568 1368 1377 1167 1020 797 604 463 220 421 767 779 628 604 468 291 136 58 22 5 8 45 46 20 14 7 9 16 9 9 11 10
1419 1250 1117 1252 1464 1307 1326 1309 1270 1160 1192 1130 949 829 725 660 523 378 234 162 424 625 641 444 456 294 149 57 14 3 0 0 0 2 0 16 14 16 15 12 6 12 5
1341 1382 1316 1307 1521 1594 1418 1273 1149 1081 880 745 541 350 256 306 245 248 148 188 242 485 424 306 275 181 58 11 0 0 0 0 0 2 0 6 15 17 9 6 8 6 11
860 1164 1276 1397 1487 1576 1334 992 1023 1029 882 506 321 134 152 166 114 51 36 38 121 232 216 251 166 84 42 31 0 0 0 0 0 0 1 5 20 11 8 10 6 8 9
1041 1037 1189 1308 1466 1319 1142 859 676 593 505 322 74 56 71 26 12 21 56 79 123 98 73 157 133 116 37 27 3 0 0 0 0 0 1 4 12 12 9 7 2 7 4
957 1018 1028 1260 1343 1237 933 753 584 338 187 168 64 0 0 5 5 9 38 48 78 55 54 124 145 24 0 0 0 0 0 0 0 0 3 5 16 16 16 3 11 13 12
765 945 966 1119 1127 1029 858 644 463 317 133 92 10 0 0 0 5 25 57 81 75 7 18 99 15 0 0 0 0 0 0 0 0 1 4 9 12 9 11 22 19 18 14
756 755 998 990 1007 840 604 499 373 279 203 55 8 3 1 1 10 55 102 41 54 0 9 27 17 0 0 0 0 0 0 0 0 5 6 7 5 8 14 20 18 14 10
453 635 783 906 918 762 471 332 216 93 88 14 2 2 3 7 45 54 77 79 16 0 0 22 12 0 0 0 0 0 0 0 0 7 8 19 10 12 14 15 15 5 5
269 500 601 589 578 571 430 231 95 22 1 3 2 2 16 48 87 57 74 48 6 0 0 1 0 0 0 0 0 0 0 0 5 8 9 16 18 12 6 8 7 6 5
134 375 471 498 481 380 334 156 31 1 1 2 11 2 30 49 58 78 27 14 1 0 1 0 0 0 0 0 0 0 0 0 3 5 3 8 12 13 7 6 6 6 4
106 282 373 325 323 327 176 107 20 2 2 2 2 4 29 47 105 92 10 1 2 1 0 0 0 0 0 0 0 0 1 1 2 4 2 4 12 13 11 10 6 4 4
40 183 207 207 158 98 110 85 26 3 6 3 3 13 13 63 66 49 5 1 1 3 0 0 0 0 0 0 0 4 2 2 2 2 4 2 2 5 3 4 4 2 1
0 89 125 162 69 38 62 62 52 16 6 4 3 10 8 32 82 10 1 1 2 3 0 0 0 0 0 0 0 0 3 3 5 2 2 0 3 4 3 0 0 0 0
0 38 75 87 24 2 2 2 4 10 10 13 11 6 13 10 37 2 0 1 1 0 0 0 0 0 0 0 0 0 4 7 0 2 3 1 0 1 1 1 0 1 3
2 2 25 18 7 0 2 3 5 3 9 6 23 0 1 4 3 1 1 0 0 0 0 0 0 0 7 0 0 0 9 8 20 0 0 0 0 0 0 0 0 0 2
1 1 1 2 0 0 0 1 2 2 6 12 2 1 2 2 1 1 0 0 0 0 0 0 0 0 8 15 5 7 6 6 13 13 7 4 1 2 1 6 15 0 0
1 1 1 0 0 1 1 1 2 4 3 3 1 3 2 2 2 0 0 0 0 0 0 0 0 0 0 4 19 47 29 22 17 20 8 24 32 33 41 22 3 4 2

GFSSE_con_mlcape_090.txt.gz
CAPE
576 745 445 560 515 703 944 834 903 1196 1158 1075 1102 1052 1140 1329 1384 1442 1473 1502 1564 1515 1348 1293 1268 1230 1145 956 864 990 961 825 718 746 745 811 787 700 609 521 517 543 481
728 1083 509 585 584 838 914 923 1004 1197 1273 1251 1229 1218 1286 1470 1566 1660 1625 1556 1632 1620 1448 1350 1360 1315 1245 1098 1076 926 778 758 715 702 668 808 719 650 508 462 488 358 391
1025 1260 808 771 859 1111 1056 1010 1245 1407 1486 1498 1445 1431 1481 1589 1722 1733 1711 1485 1499 1573 1525 1469 1474 1431 1279 1196 963 856 812 712 675 537 574 613 622 628 501 389 333 390 377
1089 1436 1368 890 860 1134 1145 1135 1382 1699 1781 1795 1663 1535 1664 1718 1724 1713 1660 1508 1473 1487 1567 1508 1546 1449 1308 1124 915 831 730 634 567 521 573 575 529 500 382 343 304 372 297
1162 1267 1545 915 878 1138 1164 1176 1569 1910 1984 1950 1897 1851 1822 1807 1737 1716 1577 1402 1479 1604 1520 1533 1561 1420 1169 1004 868 792 668 571 521 614 652 547 461 476 477 391 230 205 271
983 1166 1272 810 943 1144 1228 1265 1341 2035 2044 1988 1979 1961 1887 1827 1797 1636 1441 1462 1470 1315 1321 1267 1341 1255 1037 930 842 683 562 535 552 580 470 439 413 354 360 174 143 93 74
1138 1237 1352 783 986 1049 1289 1351 1457 1919 1970 2002 2056 1994 1930 1843 1733 1394 1405 1390 1381 1226 1148 1074 1353 1081 932 800 646 480 373 299 387 469 376 329 279 84 60 42 5 7 3
1479 1538 1591 936 1074 1153 1230 1429 1410 1637 1921 1993 1964 1895 1882 1732 1274 1052 1192 1192 1022 925 1023 1044 1029 923 753 580 403 279 179 264 393 286 200 110 4 1 0 4 6 6 4
1860 1739 1309 1392 1218 1101 1253 1320 1464 1244 1588 1884 1814 1654 1403 1130 1064 959 850 937 780 874 946 957 806 717 572 380 225 120 115 187 183 174 130 32 0 0 1 6 7 7 4
1974 1933 1423 1465 1538 1515 1492 1261 1263 1380 1348 1494 1438 1434 1227 1034 963 870 738 641 659 788 907 755 614 569 375 181 65 31 64 136 135 121 71 36 3 0 9 12 11 8 7
2002 1849 1789 1588 1741 1613 1742 1757 1243 1212 1414 1337 1284 1173 1211 1208 965 695 490 299 287 345 749 583 483 356 176 92 36 22 50 115 111 54 38 3 12 9 12 8 8 6 7
1757 2179 1815 1865 1697 1731 1735 1880 1709 1622 1435 1479 1413 1247 1133 1014 1012 560 159 6 41 119 378 320 226 157 193 182 85 46 137 79 69 20 14 7 16 17 4 14 10 11 11
1439 1902 1647 1875 1866 1910 1873 1729 1789 1909 1680 1383 1297 1219 1170 1053 634 345 85 68 161 204 116 182 130 215 228 195 151 122 70 95 32 34 4 7 10 13 13 7 10 11 12
1087 1661 1621 1744 1804 1691 1769 1493 1486 1348 1529 1238 1247 957 749 484 237 232 95 69 73 132 149 136 162 207 182 155 156 105 83 55 43 28 4 0 14 21 19 11 4 7 9
919 1662 1743 1545 1700 1715 1441 1297 1148 1084 1091 1100 922 736 444 244 156 70 46 92 106 86 98 71 96 149 179 135 90 75 56 34 29 10 10 9 13 21 15 8 22 13 11
315 1183 1896 1486 1533 1448 1402 1201 988 910 810 761 738 538 507 107 9 46 30 121 142 106 82 39 61 126 157 106 81 67 15 14 8 1 5 12 15 13 10 24 27 21 19
66 669 1608 1722 1267 1354 1254 1202 974 952 768 563 413 222 186 11 11 41 49 100 107 84 38 57 107 138 100 94 59 32 10 6 3 1 6 10 10 8 19 25 23 25 18
14 329 1310 1626 1322 1329 1169 951 852 794 676 463 308 85 8 14 37 146 83 48 114 36 27 47 84 97 82 78 57 27 3 2 4 14 7 11 11 10 18 21 14 16 17
0 227 1063 1611 1249 1169 1121 819 730 731 507 304 88 13 27 28 26 85 106 77 57 7 2 22 60 84 66 68 34 14 6 12 7 3 1 37 15 8 15 10 10 9 10
0 185 748 1364 1287 1085 1059 952 812 428 253 130 25 6 10 23 46 77 77 53 3 1 0 35 58 77 90 51 36 9 25 12 4 1 3 17 22 12 10 11 9 8 6
0 237 576 1214 1004 935 889 742 601 238 144 19 5 2 4 15 50 101 60 7 2 1 1 38 55 59 47 60 33 29 28 7 10 14 20 13 19 19 15 10 9 4 0
0 221 551 1013 759 953 1004 867 483 238 173 6 2 3 3 4 32 88 35 2 2 2 1 73 50 39 47 41 20 12 13 24 13 11 13 10 19 24 17 17 25 4 1
2 235 510 844 709 936 756 553 423 272 101 14 8 4 5 3 56 60 4 4 3 3 1 32 40 46 5 25 31 25 25 5 11 11 12 7 7 11 9 7 7 7 5
31 219 441 626 812 697 555 431 366 193 28 16 5 2 11 4 29 30 2 2 2 6 12 18 61 45 35 15 32 52 9 15 12 13 17 7 7 4 4 1 0 0 0
51 269 326 579 560 427 324 326 149 47 6 61 17 14 22 17 4 15 2 2 4 12 36 25 5 2 7 32 28 43 69 90 59 33 18 20 17 10 16 30 4 5 6
140 51 193 439 456 318 274 145 81 42 7 20 3 4 0 0 9 1 2 2 1 1 17 12 0 31 26 38 34 41 64 67 93 66 38 77 73 75 76 53 38 46 33

GFSSE_con_mlcape_093.txt.gz
CAPE
304 594 543 814 947 993 899 1182 1170 1050 1064 968 900 839 943 1244 1438 1480 1526 1511 1472 1625 1669 1577 1416 1269 1072 834 879 988 851 802 814 884 952 950 790 617 509 467 523 621 597
483 721 302 516 655 896 1030 956 1213 1250 1200 1140 1054 971 1131 1349 1545 1568 1566 1545 1589 1652 1667 1567 1488 1407 1239 1207 1210 990 882 864 873 866 847 943 852 690 495 491 617 582 530
732 977 546 427 472 648 904 993 1125 1313 1374 1327 1301 1174 1295 1500 1668 1665 1708 1738 1777 1713 1662 1571 1548 1493 1339 1297 1071 996 920 853 769 689 795 647 755 695 540 408 434 477 427
596 1078 1065 562 645 861 924 939 1140 1465 1585 1553 1494 1404 1347 1603 1722 1763 1760 1819 1817 1667 1675 1691 1640 1553 1451 1150 1044 995 893 759 583 545 547 596 677 686 433 389 528 483 391
383 940 1471 704 812 1027 1063 1092 1309 1625 1835 1803 1670 1496 1613 1672 1702 1820 1741 1783 1757 1623 1726 1745 1615 1573 1324 1111 1003 935 789 633 562 675 579 500 610 612 379 213 153 237 267
490 757 1244 710 799 1053 1120 1200 1485 1794 1955 1985 1848 1655 1695 1676 1754 1826 1545 1603 1648 1608 1587 1576 1478 1381 1195 1031 943 835 693 558 595 463 537 466 512 418 433 314 261 163 143
618 972 1435 726 748 1030 1137 1213 1525 1758 2041 2040 1947 1815 1584 1748 1531 1307 1526 1580 1437 1478 1397 1323 1410 1205 1072 935 842 748 601 509 737 502 607 511 530 474 375 181 77 20 5
822 1193 1637 806 818 985 1220 1225 1139 1777 1915 2036 1983 1929 1811 1735 1395 1391 1508 1442 1444 1257 1123 1097 1174 1085 982 839 737 639 589 460 396 344 493 380 214 289 214 34 2 0 2
1286 1637 1795 1229 1093 988 1138 1316 1139 1557 1872 1929 1969 1835 1666 1596 1415 1347 1362 1221 1089 1222 1181 1067 1051 940 836 634 606 503 367 246 493 311 219 76 3 26 14 5 5 6 3
1869 1979 2000 1728 1456 1462 1405 1218 1305 1295 1660 1891 1813 1356 1213 1116 1077 1034 997 1048 945 1069 920 917 893 780 564 451 437 265 242 175 159 256 141 37 0 0 0 0 5 3 5
2033 2110 2148 1847 1709 1654 1562 1521 1272 1331 1322 1561 1674 1459 1172 1204 1155 975 770 893 708 567 411 335 525 512 336 317 233 133 151 247 244 85 116 0 0 1 1 4 7 7 7
2022 1979 2272 2043 1836 1781 1453 1700 1535 1563 1515 1607 1522 1511 1441 1050 1134 918 628 424 311 285 197 221 227 269 259 324 177 126 193 160 78 40 43 3 4 6 6 8 7 5 9
1717 1859 2180 2112 2043 1923 1428 1544 1538 1673 1577 1586 1540 1362 1072 1076 1057 866 652 253 90 15 82 158 100 203 259 392 325 254 227 95 21 25 13 2 13 16 14 13 8 4 12
914 1477 2319 2033 2133 2043 1716 1630 1519 1475 1820 1708 1604 1677 1440 1302 1107 763 603 216 93 76 115 168 80 88 171 265 279 237 125 87 58 40 4 0 11 16 16 10 16 12 11
98 987 2007 1996 2091 2086 2366 1983 1856 1791 1678 1679 1656 1589 1368 1278 1032 870 425 201 268 140 89 29 26 58 98 153 183 159 131 99 50 55 1 0 8 21 20 7 10 17 7
0 257 1794 2252 2106 2075 2135 1965 1981 1847 1658 1777 1588 1557 1469 1174 955 561 311 138 111 115 77 32 56 54 96 74 139 119 127 63 27 23 4 1 11 16 17 16 11 18 19
0 0 1225 2341 1987 2090 2065 1836 1698 1621 1557 1513 1585 1622 1318 1139 625 399 187 124 179 95 80 60 44 38 65 68 156 158 38 27 17 6 10 14 15 11 11 17 27 18 15
0 0 184 1771 1957 1823 1820 1920 1662 1567 1539 1504 1183 1307 1178 916 604 269 83 110 195 120 102 55 23 44 38 63 126 60 29 26 16 7 10 21 14 3 12 18 19 13 12
0 0 67 1132 2057 1615 1650 1775 1567 1452 1408 1468 1343 1027 722 493 422 184 220 85 64 41 67 67 17 20 24 56 73 50 28 8 8 8 27 8 8 2 16 9 10 7 6
0 0 0 850 2192 1462 1513 1356 1245 1265 1309 1022 888 797 475 334 217 249 132 62 67 30 53 43 31 23 48 90 73 30 26 24 4 3 9 7 0 2 5 21 4 11 9
0 0 26 640 2048 1623 1311 1024 1118 1201 942 757 467 342 385 215 71 31 41 77 37 0 24 12 10 23 37 137 65 35 41 44 30 14 19 11 13 21 7 29 17 9 0
0 0 39 459 1365 1448 1086 1249 1413 1111 972 611 446 199 162 110 43 13 26 29 7 3 6 3 7 15 32 88 39 29 34 22 36 26 15 12 18 18 19 24 6 6 3
0 0 16 369 1078 1377 1399 1409 1288 1015 473 314 228 233 119 36 10 22 25 20 3 2 2 4 11 13 24 27 18 1 17 17 15 5 24 11 20 14 18 12 10 5 4
0 0 61 340 1136 1078 1321 1283 1231 650 461 421 326 149 12 4 3 9 18 10 3 2 2 2 18 20 21 37 18 30 0 1 4 12 7 15 16 20 12 5 3 2 0
0 0 157 420 996 1052 1354 1191 1123 870 730 424 233 183 14 3 7 16 3 7 9 2 3 11 17 25 29 54 33 14 8 27 26 19 8 24 21 13 14 4 6 0 0
0 72 379 602 875 994 1141 1103 1046 827 592 225 342 257 27 5 3 11 8 7 9 5 4 4 17 28 43 79 74 53 50 40 61 40 50 33 34 30 16 12 17 1 1

GFSSE_con_mlcape_096.txt.gz
CAPE
690 417 631 707 850 976 985 930 892 891 827 821 846 769 721 817 989 1155 1257 1343 1511 1677 1696 1486 1205 1078 1097 820 964 886 880 897 959 1021 1035 1000 843 652 563 581 577 621 639
523 375 593 713 783 859 1067 1082 978 943 955 993 980 880 880 1075 1266 1366 1384 1440 1705 1798 1783 1533 1392 1181 1023 833 871 901 874 919 933 901 905 903 782 648 609 653 588 606 572
508 351 499 656 752 848 960 1170 1154 1101 1110 1161 1116 970 991 1217 1396 1496 1526 1545 1781 1890 1826 1660 1531 1321 1177 1007 963 936 890 830 795 732 698 707 782 842 663 544 604 555 478
746 283 418 436 495 653 908 1068 1226 1323 1324 1355 1328 1119 1142 1323 1304 1447 1615 1682 1792 1719 1723 1725 1714 1580 1254 1030 984 971 868 744 623 626 688 695 661 715 594 521 553 492 406
823 642 518 342 431 602 807 985 1203 1427 1520 1464 1466 1395 1208 1267 1325 1470 1559 1771 1756 1690 1731 1811 1794 1596 1162 993 973 919 802 597 603 573 686 628 584 468 456 439 309 332 174
847 1114 446 331 495 721 819 925 1140 1478 1671 1652 1594 1536 1412 1321 1363 1424 1558 1850 1827 1502 1563 1687 1767 1367 1072 974 931 829 642 545 554 492 541 464 312 503 458 340 349 208 99
858 1497 893 482 582 788 947 1018 1137 1462 1741 1639 1740 1648 1624 1385 1386 1267 1265 1655 1569 1379 1544 1525 1518 1178 991 949 860 743 553 502 504 436 535 512 476 571 550 307 151 58 2
1622 1781 1130 808 713 885 1039 1040 1318 1512 1726 1644 1744 1770 1626 1588 1266 1236 1353 1467 1496 1308 1447 1193 1295 1120 981 894 789 686 560 430 518 459 413 384 399 473 412 141 4 0 0
1495 2121 1396 919 936 903 1035 1046 1149 1234 1549 1693 1728 1701 1720 1506 1271 1279 1314 1216 1098 1132 1102 1180 1192 1074 952 809 718 618 479 265 364 448 323 323 360 346 194 2 0 3 3
1615 2126 1863 1345 1113 799 1000 1101 962 1245 1571 1600 1712 1776 1836 1582 1243 1223 1100 1032 953 1049 939 810 657 496 823 737 598 395 298 233 319 251 108 98 131 152 34 12 6 3 3
1992 2118 2372 1896 1540 1441 1351 1151 1058 1206 1428 1532 1604 1742 1625 1611 1377 1221 1026 881 749 619 478 307 194 231 371 383 422 320 194 174 194 159 48 15 4 17 14 3 3 3 3
2155 2390 2407 2201 1941 1810 1668 1521 1182 1336 1341 1513 1627 1777 1607 1490 1217 1150 926 716 539 454 379 182 12 40 129 175 207 127 100 212 102 60 18 8 3 6 1 0 1 3 2
2135 2274 2525 2212 2118 2080 1535 1804 1446 1549 1422 1559 1703 1786 1830 1399 1214 1178 701 566 409 336 221 91 65 43 70 170 159 133 119 76 73 33 23 10 0 7 1 2 4 1 8
1754 2298 2253 2429 2344 2201 1784 1946 1605 1602 1414 1630 1598 1681 1481 1227 1304 1072 760 436 284 184 65 49 47 64 40 187 146 203 100 11 16 54 24 11 0 7 11 11 5 19 10
0 1937 2308 2240 2421 2489 2018 1745 1850 1612 1582 1753 1863 1813 1636 1333 1386 1095 939 484 183 36 32 43 18 8 40 47 88 117 122 57 24 29 18 0 0 0 13 6 4 11 8
0 52 2331 2232 2280 2387 2096 2077 1715 1865 1965 1900 1783 1836 1630 1485 1450 1100 869 506 292 126 103 23 22 0 1 41 72 105 109 68 37 19 5 0 0 0 7 3 12 3 11
0 0 2412 2169 2207 2382 2191 2323 2071 1811 1765 1855 1873 1614 1592 1430 1258 987 789 516 413 284 61 43 47 0 20 54 23 54 114 73 25 16 0 0 2 0 3 11 14 10 7
0 0 1352 2390 2257 2223 2335 2244 1683 1976 1690 1555 1598 1783 1586 1568 1253 997 721 513 305 206 96 75 50 43 31 30 17 46 95 16 20 1 0 0 0 8 14 8 8 8 8
0 0 0 2517 2421 2161 2154 1725 1449 1486 1737 1443 1332 1361 1649 1514 1183 822 519 446 255 115 72 65 47 35 4 17 4 32 45 16 0 0 0 0 0 2 3 12 7 7 12
0 0 0 2175 2372 2117 1911 1572 1512 1376 1291 1539 1461 1147 1130 1212 1011 691 470 291 203 109 81 58 30 22 6 3 37 41 3 2 0 7 4 0 0 0 1 1 5 9 4
0 0 0 1060 2311 1913 1741 1479 1316 1183 1118 1106 1353 1318 1062 812 564 500 332 203 119 69 69 37 20 22 14 29 26 26 15 0 0 14 8 0 0 0 11 10 2 0 1
0 0 0 608 2208 1738 1559 1360 1183 1000 1019 984 790 845 833 657 422 323 302 176 51 37 8 38 26 18 15 34 18 26 33 22 23 14 21 15 2 0 0 0 0 0 0
0 0 0 139 2136 1793 1610 1176 1078 1004 1072 984 802 575 454 444 281 180 224 134 44 11 14 37 15 5 15 17 12 4 6 13 9 21 16 7 20 14 0 0 0 0 0
0 0 0 1 388 1865 1433 1107 1073 1357 1059 746 580 411 298 215 180 176 105 60 35 7 9 19 10 2 7 11 16 16 0 0 0 6 17 13 15 12 11 8 4 3 0
0 0 0 0 148 1700 1395 1206 1263 1283 855 547 449 357 237 175 192 132 48 31 22 7 8 20 13 7 6 6 10 12 9 3 0 0 0 0 17 6 0 0 1 0 0
0 0 0 115 422 1578 1427 1306 1596 1138 905 709 470 451 257 89 24 10 17 17 3 3 6 9 9 16 3 7 10 5 4 30 0 0 0 0 0 0 0 0 0 5 0

GFSSE_con_mlcape_099.txt.gz
CAPE
462 720 913 772 727 738 810 819 769 699 662 638 540 417 397 590 879 1115 1295 1482 1566 1507 1333 1182 1167 1078 1084 1028 974 921 869 759 862 908 1176 1104 921 913 857 711 683 651 688
420 741 854 772 703 768 836 848 821 790 791 780 666 535 515 672 881 1092 1346 1599 1733 1693 1504 1398 1361 1288 1292 1076 991 1037 965 813 925 979 1017 974 930 955 803 711 653 679 636
299 644 725 667 752 933 947 903 875 893 917 912 759 636 753 902 1011 1125 1416 1651 1724 1752 1563 1548 1519 1450 1127 987 1011 1033 982 840 860 847 807 788 889 984 836 732 666 614 581
228 482 635 728 746 961 1083 1007 968 1010 1091 1129 947 806 925 1066 1185 1305 1410 1619 1806 1801 1712 1676 1595 1349 1059 974 968 937 831 770 904 724 719 826 909 920 848 726 645 638 557
144 445 674 767 827 918 1000 1107 1094 1124 1172 1233 1143 972 1019 1087 1286 1388 1422 1599 1757 1664 1687 1738 1654 1270 1001 950 895 817 730 737 783 691 628 692 741 737 754 707 595 418 281
138 388 424 575 691 816 956 993 1111 1210 1225 1287 1260 1154 1072 1213 1367 1424 1460 1700 1653 1455 1584 1783 1678 1109 933 887 867 732 643 656 645 619 627 561 447 666 638 533 311 170 60
487 502 322 529 586 732 852 899 1122 1302 1369 1471 1394 1309 1227 1293 1364 1313 1394 1638 1500 1417 1570 1422 1353 1020 929 867 837 675 631 567 488 510 441 464 616 685 687 424 230 58 0
1100 972 270 675 757 848 874 879 1126 1373 1473 1326 1458 1483 1402 1395 1286 1140 1283 1307 1471 1348 1390 1244 1115 971 931 883 782 619 486 566 499 471 448 430 543 655 535 315 64 0 0
1451 1194 709 723 944 936 905 863 1126 1383 1609 1280 1343 1610 1610 1469 1238 1271 1266 1174 1270 1228 1050 1156 1100 968 928 831 657 560 459 494 421 366 366 411 358 561 388 113 0 0 0
1581 1382 1019 632 847 887 909 979 1207 1303 1226 1314 1394 1404 1602 1532 1288 1281 1117 952 948 1112 1124 701 545 407 529 399 421 485 313 402 296 260 239 326 340 410 206 7 0 2 10
1637 1602 1353 724 710 764 882 947 982 1054 1200 1359 1428 1337 1517 1547 1307 1278 1206 997 923 928 643 478 173 182 267 227 138 268 206 232 142 130 183 242 282 237 110 24 5 5 4
1738 1794 1748 1452 854 872 969 960 808 1132 1162 1298 1380 1370 1576 1556 1400 1298 1112 875 741 727 384 219 173 31 11 114 63 95 108 147 102 57 63 91 160 195 21 2 0 4 2
1797 2180 2107 1993 1531 1335 1467 892 802 1005 1193 1227 1302 1345 1558 1454 1302 1125 917 766 606 421 228 50 2 13 40 43 39 61 58 89 50 43 18 12 18 13 8 0 0 2 2
2102 2267 2272 2224 2019 1710 1573 1346 772 917 970 1053 1221 1492 1422 1247 918 755 714 597 488 284 175 0 0 20 74 108 63 85 63 53 26 14 18 24 6 0 3 2 1 3 3
1560 2282 2329 2212 2148 1975 1760 1622 1284 1125 1143 1124 1192 1414 1490 1152 940 747 682 529 430 291 153 0 0 0 18 24 39 58 55 49 44 6 14 9 0 0 3 4 6 14 12
0 1457 2433 2314 2175 1853 1960 1826 1495 1396 1278 1297 1282 1346 1439 1171 1092 862 692 547 388 344 149 30 0 0 12 23 41 46 32 37 33 14 8 0 0 0 0 4 15 3 10
0 0 1547 2350 2301 2053 1838 1836 1757 1556 1475 1457 1541 1497 1479 1249 1158 978 812 648 528 358 178 43 0 0 2 9 7 31 35 48 28 18 3 0 0 0 0 17 11 3 4
0 0 217 1980 2324 2313 2130 2001 1746 1693 1694 1555 1576 1576 1427 1298 1195 997 858 708 547 328 156 30 0 0 0 12 18 28 27 42 25 8 5 0 0 0 0 7 8 5 3
0 0 0 1430 2156 2395 2178 1969 1891 1682 1490 1553 1546 1493 1414 1267 1172 984 814 743 616 418 146 39 30 7 2 10 13 20 26 2 2 0 0 0 0 0 0 3 8 8 6
0 0 0 1128 2014 2253 2118 1900 1719 1590 1553 1325 1319 1455 1367 1306 1098 905 743 652 514 342 158 64 49 50 57 33 14 5 23 0 0 0 0 0 0 0 0 0 7 7 6
0 0 0 982 1964 2157 2107 1885 1694 1431 1364 1370 1127 1087 1220 1293 1112 919 758 605 434 307 108 42 34 48 38 30 1 22 14 2 0 0 0 0 0 0 0 0 4 3 6
0 0 0 1390 1989 2092 2073 1758 1532 1281 1188 1099 1260 1088 1052 879 917 779 589 463 348 194 79 23 14 31 27 5 2 11 19 0 0 0 0 0 0 0 0 0 0 0 0
0 0 0 1553 1927 2035 1851 1433 1212 1065 986 989 902 1071 945 853 656 540 449 323 258 171 88 40 9 23 9 11 12 0 0 0 5 5 0 0 0 0 0 0 0 0 0
0 0 1 1568 1955 1827 1576 1395 1123 954 932 877 814 686 690 693 592 461 361 260 175 143 64 37 1 10 17 7 26 1 0 0 0 1 4 3 1 0 0 0 0 0 0
0 0 28 1377 1724 1663 1395 1211 1043 892 764 705 630 532 540 463 441 309 261 186 122 61 14 20 8 3 4 7 5 3 0 0 0 0 0 5 6 0 0 0 0 0 0
0 0 0 1098 1645 1576 1164 1028 935 914 847 598 448 447 387 293 224 180 143 96 92 49 22 12 10 2 6 2 3 0 0 0 0 0 0 0 0 0 0 0 0 0 0

GFSSE_con_mlcape_102.txt.gz
CAPE
732 951 962 880 878 833 753 643 619 532 409 337 379 536 762 902 982 1101 1226 1314 1378 1363 1224 1094 1042 1036 1064 978 836 840 810 757 906 1101 1096 1073 1139 1111 1009 878 788 783 774
637 1032 999 941 917 917 844 778 716 647 565 450 394 461 662 865 1060 1231 1300 1337 1399 1331 1316 1160 1191 1288 1236 1079 899 875 885 978 1122 1122 1085 1196 1162 1087 983 850 858 844 765
644 1037 1093 992 955 971 936 892 809 772 736 621 515 522 673 889 1150 1388 1487 1496 1493 1482 1491 1159 1477 1476 1224 1072 1018 972 981 1072 1117 1175 1162 1079 1096 1078 980 838 759 740 732
495 924 1102 1072 1002 999 946 959 929 951 924 793 695 667 805 1019 1193 1401 1533 1624 1659 1636 1602 1455 1441 1275 1047 1015 1018 987 1009 959 968 953 947 1022 1019 1051 954 863 799 758 669
492 730 999 1116 1116 1037 927 959 1010 1102 1045 918 834 811 934 1145 1237 1409 1525 1701 1733 1659 1667 1610 1310 1066 923 951 958 938 932 826 776 762 799 909 828 971 908 874 763 695 591
365 519 846 999 1223 1198 1015 947 1036 1167 1139 1106 997 940 1048 1311 1374 1372 1555 1774 1786 1709 1679 1655 1257 886 823 828 839 901 876 757 661 696 790 867 826 901 868 729 522 389 327
235 517 892 1043 1106 1123 1161 1108 1071 1195 1197 1189 1178 1093 1132 1392 1446 1361 1487 1616 1597 1640 1722 1506 970 820 803 792 776 751 685 698 567 588 594 598 794 792 791 537 300 148 123
25 412 720 1042 985 1119 1186 1170 1089 1161 1289 1251 1292 1289 1246 1389 1429 1332 1299 1514 1486 1545 1504 1331 930 805 772 808 716 658 600 640 535 487 451 617 743 792 726 434 164 39 0
255 319 573 916 970 1034 1085 1096 1168 1140 1353 1386 1396 1470 1384 1316 1312 1369 1380 1390 1443 1165 1309 1235 923 807 778 760 600 495 524 492 448 434 505 573 599 689 598 302 43 2 0
573 274 377 584 933 1051 1122 1099 1227 1241 1354 1245 1373 1531 1538 1358 1279 1293 1328 1320 1211 987 1113 702 716 511 622 591 492 431 480 446 409 375 450 462 489 662 503 191 11 2 1
1287 875 503 413 665 800 978 1105 1311 1480 1470 1282 1301 1346 1509 1480 1327 1296 1201 1149 963 1046 682 560 533 356 335 276 234 192 271 286 286 248 260 435 482 584 295 19 1 1 8
1466 1371 1153 728 453 733 1016 1151 1284 1437 1246 1220 1226 1124 1361 1476 1320 1295 1212 1072 992 854 642 336 174 100 186 119 115 115 129 106 111 112 252 340 431 437 195 36 1 6 7
1512 1553 1441 1056 578 616 957 1030 1066 1204 1016 1134 1259 1177 1396 1555 1351 1208 1113 971 732 667 447 201 153 194 116 72 71 95 42 62 65 113 172 256 406 395 218 1 0 6 7
1605 1549 1701 1588 1184 671 727 858 920 1106 974 1018 1159 1261 1517 1508 1248 1071 938 714 624 421 233 96 13 3 53 34 22 16 13 58 51 68 112 193 217 263 29 4 0 2 5
1588 1745 1786 1928 1708 1359 896 799 811 907 1091 932 1072 1270 1527 1239 1006 881 769 609 500 354 189 98 50 31 61 38 19 17 7 34 30 40 69 95 122 35 2 4 7 7 4
1775 1952 1985 2116 2011 1778 1385 1093 1029 838 867 983 1083 1242 1438 1164 913 762 595 565 474 363 218 188 139 6 11 78 88 71 40 31 21 30 34 32 4 0 0 5 7 7 8
164 1873 2128 2136 2236 2092 1862 1460 1408 1233 926 909 994 1240 1395 1177 868 622 585 538 491 357 274 199 95 15 0 12 37 15 25 34 22 30 23 10 0 0 0 3 13 14 7
0 0 1622 2259 2240 2210 2136 1688 1562 1413 1151 1120 1163 1130 1205 1231 939 703 638 596 457 408 379 334 184 32 15 12 0 28 45 29 23 31 20 1 0 0 0 0 17 13 13
0 0 17 1309 1782 2191 2110 1921 1690 1508 1375 1287 1254 1231 1179 1181 974 867 728 593 490 494 491 411 237 53 12 0 0 3 26 26 19 29 20 1 0 0 0 1 8 7 8
0 0 0 293 827 1706 2121 1986 1636 1473 1504 1393 1394 1425 1201 1159 948 868 688 633 533 499 491 342 218 60 3 2 15 23 29 9 8 15 2 0 0 0 0 0 5 3 6
0 0 0 5 551 1621 2031 1784 1583 1381 1602 1591 1525 1448 1326 1068 916 838 686 613 611 590 429 305 157 61 16 17 44 3 10 0 6 2 0 0 0 0 0 0 0 5 6
0 0 0 2 253 1310 1617 1724 1572 1529 1399 1348 1368 1436 1394 1218 983 824 747 650 623 524 368 242 122 77 43 56 44 33 3 4 0 2 0 0 0 0 0 0 0 1 0
0 0 0 0 344 987 1600 1851 1494 1227 983 1138 1138 1136 1134 1139 952 788 690 652 508 417 272 165 109 54 9 16 14 6 2 1 1 0 0 0 0 0 0 0 0 0 0
0 0 0 0 396 1349 2015 1735 1573 1345 1217 1268 1139 952 840 763 691 739 687 523 450 322 207 159 118 48 5 9 3 1 0 0 0 0 0 0 0 0 0 0 0 0 0
0 0 0 65 1299 1546 1697 1703 1569 1340 1098 948 915 866 833 823 748 583 576 483 412 304 208 140 87 25 2 4 3 2 0 0 0 0 1 1 0 0 0 0 0 0 0
1 7 16 1154 1417 1730 1707 1642 1557 1245 1025 901 829 703 688 718 635 586 465 401 303 243 194 127 58 22 25 1 6 1 0 0 0 0 0 0 0 0 0 0 0 0 0

GFSSE_con_mlcape_105.txt.gz
CAPE
496 864 918 1053 1032 721 586 443 335 281 342 393 495 1002 1162 1104 1058 1189 1069 1210 1216 1212 1224 1159 1093 1062 929 1036 1183 970 920 989 1113 1251 1211 1233 1252 1240 1160 990 967 904 887
633 956 984 1190 1114 853 723 592 482 395 363 413 554 789 1028 1158 1281 1294 1317 1364 1436 1299 1252 1195 1168 1158 901 939 986 922 956 1054 1110 1226 1215 1293 1248 1166 1096 980 900 869 849
784 1014 1090 1294 1157 994 884 783 679 555 454 456 595 737 942 1150 1242 1282 1342 1436 1372 1306 1381 1255 1116 1173 1006 921 919 979 1098 1119 1147 1232 1329 1072 977 1065 1066 955 876 817 881
894 1012 1089 1226 1189 1100 1011 938 867 785 615 537 620 777 991 1156 1261 1307 1385 1425 1461 1489 1519 1466 1448 1249 1053 986 1029 1101 1177 1176 1226 1202 1028 820 957 1112 1071 918 925 944 849
991 1099 1150 1175 1193 1146 1102 1072 1012 937 781 665 640 892 1123 1315 1414 1461 1448 1502 1551 1545 1584 1520 1419 1115 956 987 1039 1051 1060 1029 1023 978 948 811 904 1116 1135 1074 905 758 682
1076 1148 1121 1061 1151 1175 1244 1203 1134 1013 903 814 750 935 1169 1368 1518 1560 1580 1630 1603 1595 1535 1436 1139 836 873 930 988 911 882 832 829 860 804 829 740 977 1030 967 671 651 625
883 994 1009 1052 1091 1152 1278 1260 1210 1114 1024 955 913 955 1220 1362 1522 1580 1512 1714 1716 1586 1638 1293 847 707 811 825 860 768 704 675 696 761 737 790 852 958 945 762 591 483 370
488 830 1012 1234 1193 1269 1280 1294 1294 1227 1163 1131 1067 1053 1258 1372 1380 1541 1442 1563 1638 1663 1479 1031 680 704 713 771 700 727 636 611 617 619 589 751 857 925 874 544 392 336 198
745 757 974 1162 1310 1330 1327 1320 1317 1288 1235 1281 1257 1164 1223 1319 1363 1461 1503 1507 1474 1486 1401 886 686 711 683 673 544 557 585 499 474 480 522 659 769 850 746 418 246 140 38
653 663 788 1084 1217 1260 1320 1306 1349 1367 1318 1326 1419 1314 1224 1296 1369 1455 1468 1466 1253 1029 934 942 679 695 711 549 434 461 483 420 385 363 386 538 642 796 632 276 74 34 7
450 639 780 855 1055 1107 1138 1299 1383 1497 1435 1429 1517 1503 1345 1344 1392 1449 1455 1407 1095 1065 842 797 639 574 614 451 323 360 387 306 308 309 266 434 643 671 552 193 20 4 1
182 275 569 744 869 911 988 1226 1446 1619 1517 1370 1460 1613 1556 1359 1323 1362 1370 1358 1069 1002 769 744 634 488 513 341 238 315 311 264 246 256 235 414 381 553 402 109 18 0 0
414 522 505 648 793 774 895 1057 1173 1414 1447 1313 1378 1400 1448 1453 1353 1314 1276 1196 1046 933 652 566 444 287 270 253 181 199 150 141 136 174 217 297 325 599 201 53 3 0 6
1351 1252 907 717 738 833 881 932 1102 1301 1463 1271 1320 1183 1212 1472 1334 1193 1165 956 911 728 477 306 169 100 173 130 172 96 127 104 78 59 94 208 233 470 306 40 4 0 1
1666 1842 1513 1225 988 897 701 665 872 1080 1142 1085 1004 1147 1212 1530 1372 1132 1006 860 748 523 390 203 119 105 121 80 86 119 61 68 42 39 54 103 134 290 337 26 5 4 2
547 1847 1980 1585 1312 985 782 555 533 808 925 844 985 1052 1256 1511 1296 1125 918 795 664 423 264 226 167 132 151 147 107 38 33 26 17 39 40 59 95 246 182 17 15 2 9
0 27 2045 1982 1719 1423 1207 828 544 589 872 876 935 1077 1321 1413 1146 1016 845 725 559 303 219 167 136 91 110 191 182 46 0 9 43 36 34 45 78 105 21 3 11 4 7
0 0 499 2188 2072 1883 1654 1390 993 708 662 793 942 952 1193 1332 1085 819 685 644 419 249 203 221 225 251 297 216 157 174 99 64 47 48 38 31 34 4 0 0 0 4 17
0 0 0 1094 2126 2247 1941 1727 1480 1105 890 795 799 913 1060 1159 1031 808 637 450 323 260 232 245 303 302 210 129 135 69 43 31 26 58 26 18 9 1 0 0 0 9 17
0 0 0 33 1237 2353 2208 1808 1595 1318 1309 1185 1117 907 937 1068 1036 843 518 390 318 318 288 300 313 229 136 56 45 19 14 35 40 37 32 17 4 0 0 0 1 14 14
0 0 0 0 667 1753 2210 1916 1730 1631 1475 1348 1305 1136 987 1038 1035 948 605 441 389 395 366 358 330 280 145 50 49 25 16 15 27 38 37 8 4 1 0 0 0 2 2
0 0 0 0 140 1183 1931 1949 1830 1653 1482 1404 1266 1241 1181 1053 931 957 789 549 463 418 309 354 313 214 155 59 61 17 23 4 0 8 8 10 6 0 0 0 0 0 0
0 0 0 0 19 758 1611 1956 1677 1362 1251 1183 1138 1272 1275 1148 940 908 806 747 586 537 445 385 247 158 155 103 31 27 9 0 0 1 1 1 1 0 0 0 0 0 0
0 0 0 0 9 672 1615 1582 1350 932 818 1363 1292 1303 1375 1188 1060 911 692 665 608 548 443 309 233 151 132 91 50 10 0 0 0 0 1 0 1 0 0 0 0 0 0
0 0 0 0 0 607 1466 1585 1265 1244 1013 1082 1145 1196 1232 1110 969 925 792 631 538 471 428 296 202 137 95 68 32 18 2 0 0 0 1 2 1 0 0 0 0 0 0
0 0 9 124 32 758 1466 1606 1357 1135 1120 1134 1066 1015 904 786 868 797 735 584 594 559 429 310 218 127 85 31 20 9 7 1 0 0 1 1 0 0 0 0 0 0 0

GFSSE_con_mlcape_108.txt.gz
CAPE
366 747 982 1054 903 700 489 393 366 477 621 794 986 1013 956 842 686 763 896 1061 1256 1370 1414 1299 1095 987 1088 1144 956 1056 1109 1124 1254 1381 1368 1371 1351 1275 1170 1107 1041 1017 1036
489 853 1027 1127 963 799 590 489 439 466 689 878 1018 1117 1002 839 850 890 993 1171 1320 1365 1385 1296 1065 925 1115 1262 979 1006 1094 1106 1292 1327 1291 1394 1428 1333 1221 1020 1006 1055 1029
621 926 1023 1135 1035 924 709 588 552 543 603 833 1009 1160 1095 1114 1191 1105 1228 1341 1319 1329 1415 1238 1139 1063 994 1042 972 1052 1060 1209 1208 1259 1293 1212 1152 1185 1189 1069 1084 1058 1009
780 1028 1096 1085 1195 1137 862 704 673 657 574 665 938 1171 1233 1340 1332 1340 1430 1353 1381 1401 1455 1331 1144 1099 937 882 979 1109 1153 1206 1286 1126 819 937 1022 1099 1175 1006 1102 1098 979
945 1066 1185 1238 1278 1204 1041 917 842 774 628 647 857 1086 1264 1284 1321 1408 1431 1363 1456 1497 1601 1534 1303 1090 891 908 1030 1124 1129 1114 1118 855 715 874 968 1069 1136 1148 1057 938 865
1141 1211 1275 1350 1406 1278 1184 1146 1076 876 703 714 824 985 1161 1278 1318 1400 1423 1413 1496 1498 1391 1423 1295 980 881 923 1001 1031 1046 1041 936 722 704 811 809 1070 1055 1002 747 640 750
1183 1263 1324 1416 1472 1400 1329 1317 1238 999 831 838 977 1079 1229 1369 1428 1416 1472 1496 1500 1495 1459 1267 1046 846 855 891 897 892 897 936 806 709 672 652 806 1000 1107 779 593 642 603
1111 1262 1326 1522 1525 1511 1472 1426 1346 1154 1033 976 1081 1188 1350 1485 1466 1458 1448 1509 1493 1557 1342 999 803 808 835 785 724 701 723 792 734 620 568 480 878 1031 991 707 572 434 304
1177 1318 1385 1559 1597 1503 1444 1409 1362 1292 1227 1144 1140 1265 1355 1412 1440 1481 1500 1482 1457 1439 1273 776 726 778 786 643 568 525 598 621 641 609 583 598 829 913 888 673 453 289 150
1133 1268 1370 1500 1582 1518 1489 1467 1405 1403 1375 1306 1217 1284 1360 1348 1439 1500 1486 1375 1282 1267 1140 669 663 709 748 552 574 537 535 510 483 482 477 474 658 901 791 454 345 208 67
865 1082 1308 1424 1542 1450 1510 1532 1499 1471 1495 1484 1384 1316 1400 1471 1444 1513 1424 1354 1260 1248 1081 684 635 656 641 486 470 510 466 400 345 348 355 501 566 864 674 312 165 60 15
601 785 1081 1240 1342 1368 1429 1560 1604 1624 1619 1595 1559 1471 1382 1416 1436 1492 1445 1399 1234 1090 963 769 634 627 571 367 386 455 391 355 318 285 266 410 423 713 523 181 98 33 6
837 800 1047 1140 1215 1178 1221 1340 1533 1627 1584 1520 1519 1547 1469 1329 1399 1435 1411 1378 1141 1026 874 806 627 543 476 280 274 268 266 229 236 255 269 379 360 637 505 199 80 36 20
1303 977 837 1021 1011 876 958 1241 1318 1445 1458 1355 1419 1534 1467 1359 1306 1312 1247 1189 1052 901 614 632 492 352 365 271 247 255 248 217 169 167 188 273 312 492 483 146 47 14 0
305 1216 1507 969 1033 971 975 1066 1161 1294 1427 1325 1304 1372 1494 1486 1370 1327 1174 1083 971 741 549 394 298 190 197 255 222 264 227 184 129 120 137 124 205 310 467 248 63 10 0
0 1 1331 1716 1086 1084 1022 965 852 1101 1282 1422 1363 1338 1262 1250 1417 1294 1079 1054 842 706 450 325 260 181 170 194 243 245 223 240 165 83 23 66 88 143 334 233 77 18 8
0 0 15 1020 1734 1306 970 890 866 934 1186 1236 993 1103 1119 1139 1353 1276 1046 968 840 480 384 220 128 102 120 163 195 240 272 279 243 22 10 23 47 47 152 141 51 15 14
0 0 0 64 845 1618 1404 1093 814 827 922 791 714 852 1135 1132 1195 1108 1064 901 675 380 302 268 165 146 154 200 223 188 205 224 131 86 66 40 45 52 61 86 20 6 8
0 0 0 0 220 912 1634 1441 940 782 718 712 782 820 919 1081 996 1070 1044 784 534 327 266 225 148 152 141 136 201 234 203 140 76 78 62 81 60 37 46 35 5 0 2
0 0 0 0 0 469 1517 1576 1270 988 823 770 802 884 893 1011 879 931 866 706 451 259 225 148 215 166 187 153 200 205 203 171 114 100 60 77 48 52 2 2 1 0 3
0 0 0 0 0 228 1143 1591 1640 1425 1299 1069 899 833 953 885 940 872 810 620 382 316 198 183 171 212 165 122 155 74 40 56 52 25 56 41 26 15 0 0 0 0 1
0 0 0 0 0 4 898 1621 1618 1624 1527 1343 1141 981 897 874 797 881 792 617 423 341 287 204 201 178 143 58 91 55 44 24 7 32 42 26 26 4 5 0 0 0 0
0 0 0 0 0 0 727 1799 1777 1755 1504 1236 1173 1171 1109 949 843 832 728 662 487 334 398 334 294 232 194 65 64 77 20 8 0 1 22 24 22 2 1 0 0 0 0
0 0 0 0 0 0 754 1403 1544 1521 1385 1180 1197 1303 1196 1004 923 860 793 646 498 452 430 372 314 254 152 97 47 51 5 0 0 0 1 2 2 1 1 0 4 0 0
0 0 0 0 0 0 755 1360 1532 1592 1390 1055 1227 1198 1170 1045 947 951 848 773 660 602 475 407 284 251 165 117 69 78 21 4 0 0 0 0 1 1 1 0 0 0 0
0 0 0 0 114 0 700 1421 1529 1464 1273 1133 1164 1089 1101 1152 998 890 839 844 766 686 544 400 327 233 191 129 89 34 17 13 0 1 1 0 2 1 1 1 0 0 0

GFSSE_con_mlcape_111.txt.gz
CAPE
547 1039 926 1016 805 518 594 766 1030 1104 1123 1205 1119 798 844 865 804 839 1036 1202 1378 1290 1315 1292 1296 1233 1196 1187 1078 1144 1134 1160 1332 1239 1252 1325 1286 1287 1232 1097 1133 1176 1154
720 1188 922 1105 879 659 608 707 910 1185 1260 1296 1163 991 977 874 803 925 1123 1270 1388 1396 1315 1149 1050 1193 1267 982 989 1096 1089 1248 1308 1259 1293 1348 1329 1327 1223 1126 1150 1218 1146
916 1224 1115 1152 1002 799 671 704 812 1006 1243 1320 1270 1148 1000 868 866 1003 1144 1273 1393 1379 1393 1118 1000 1211 1331 937 961 1059 1076 1202 1236 1192 1216 1269 1256 1284 1183 1139 1155 1142 1092
1104 1323 1423 1182 1050 915 799 763 851 1013 1179 1356 1377 1259 1097 979 1057 1151 1190 1299 1336 1354 1414 1269 1244 1196 1135 999 966 1025 1141 1202 1260 1233 1314 1155 1130 1195 1133 1042 1125 1139 1067
1273 1451 1555 1277 1119 981 902 893 910 1055 1213 1302 1410 1286 1187 1287 1314 1322 1280 1304 1301 1422 1467 1508 1403 1025 896 918 962 1055 1108 1147 1032 971 998 969 1118 1025 1132 1159 1036 969 1007
1371 1532 1469 1340 1233 1134 1041 1016 980 889 1135 1387 1445 1413 1512 1573 1548 1459 1382 1384 1479 1549 1709 1710 1385 889 851 912 992 1005 1034 993 916 1014 878 881 981 1131 1092 1014 987 909 917
1525 1565 1452 1370 1380 1295 1240 1161 1067 901 987 1198 1455 1614 1691 1712 1647 1529 1525 1509 1606 1563 1458 1522 1156 883 873 902 928 937 948 934 1125 906 848 801 1171 1103 1114 777 597 660 808
1636 1667 1698 1496 1525 1474 1468 1327 1129 950 980 1115 1300 1484 1634 1686 1625 1553 1550 1563 1581 1436 1382 1415 1033 895 880 904 885 878 888 954 1028 1051 741 707 938 1078 1030 688 632 618 535
1628 1745 1677 1768 1757 1622 1519 1423 1256 1095 1066 1151 1233 1377 1552 1619 1596 1579 1580 1611 1657 1476 1396 1146 912 863 871 841 791 758 813 851 1146 1026 826 691 879 1043 953 716 527 377 271
1485 1783 1756 1715 1883 2022 1918 1594 1395 1249 1180 1211 1316 1453 1531 1600 1636 1634 1664 1706 1747 1540 1355 853 835 844 800 715 636 619 670 701 1217 1126 1014 1008 800 893 955 674 405 244 109
1221 1414 1606 1734 1786 2048 2031 1893 1613 1450 1325 1295 1396 1489 1579 1948 1931 1854 1881 1735 1704 1550 1234 741 795 803 706 596 516 511 544 927 1143 1150 1086 709 601 686 826 524 309 212 66
1127 1146 1247 1344 1539 1921 1914 1920 2008 1931 1848 1747 1693 1793 1921 1940 1989 2008 1884 1610 1577 1439 1127 718 710 773 734 894 799 534 897 965 970 992 862 505 480 612 803 462 258 141 39
833 1016 1125 1178 1320 1599 1686 1717 1870 1919 1853 1847 1784 1776 1873 1884 1891 1867 1958 1818 1784 1477 1403 886 813 1017 1082 989 1006 1010 980 900 892 866 751 469 511 578 727 292 133 49 8
1235 999 910 1159 1256 1304 1341 1558 1729 1752 1775 1620 1673 1666 1621 1477 1734 1762 1791 1895 1873 1649 1598 1300 1176 1157 1154 953 934 921 899 913 925 678 429 340 522 410 726 312 154 45 2
352 1388 1089 933 1018 1168 1265 1280 1529 1512 1561 1604 1654 1769 1616 1411 1505 1633 1639 1720 1807 1600 1377 1184 1052 987 990 890 810 820 788 816 741 714 673 189 312 317 563 456 218 75 6
0 0 1230 1099 1053 914 900 1133 1393 1340 1431 1493 1800 1854 1789 1656 1527 1555 1512 1532 1534 1390 1213 1141 933 857 881 827 754 798 770 792 699 661 676 461 120 139 284 383 259 105 11
0 0 0 513 1451 1268 1083 923 1245 1384 1382 1446 1698 1867 1901 1999 1775 1452 1392 1397 1372 1216 1043 893 842 793 866 692 788 713 702 716 676 602 421 99 69 48 83 230 200 110 15
0 0 0 0 543 1369 1503 1320 1122 1081 1278 1562 1672 1690 1750 1850 1707 1400 1239 1266 1247 965 930 818 728 689 697 620 628 579 640 626 635 570 256 48 7 4 7 26 100 74 9
0 0 0 0 0 271 1068 1672 1431 1213 1207 1335 1468 1490 1611 1675 1229 1207 1197 993 1026 846 794 818 675 718 544 380 382 432 437 433 424 506 293 150 60 12 26 69 86 45 4
0 0 0 0 0 172 1073 1489 1624 1418 1373 1353 1191 1093 1010 1134 1020 1042 1072 988 769 770 664 596 617 481 519 519 300 380 338 238 494 318 144 105 87 45 56 77 60 56 1
0 0 0 0 0 0 689 675 1163 1117 1359 1299 1105 1067 918 900 968 966 1014 881 725 803 674 507 475 491 253 154 179 145 125 218 238 154 173 135 85 61 44 29 81 53 6
0 0 0 0 0 0 12 797 1011 1013 1367 1392 1160 1001 938 926 956 1024 923 740 712 773 576 484 477 345 264 137 190 187 176 158 155 158 128 87 61 72 34 7 31 27 17
0 0 0 0 0 0 0 361 1308 1512 1579 1341 1143 1154 1056 1072 1081 947 839 661 673 666 582 478 459 414 345 103 189 171 86 12 21 80 27 37 35 37 24 13 8 12 5
0 0 0 0 0 0 0 0 968 1141 1145 1174 1319 1516 1254 1156 1049 834 856 683 540 560 597 488 397 377 318 197 82 110 191 50 3 2 3 3 27 17 8 2 1 1 0
0 1 0 0 0 0 0 4 1043 1341 1416 1361 1599 1602 1394 1125 1045 907 863 728 541 615 606 507 411 356 419 278 119 89 92 60 1 3 9 0 1 19 24 4 2 1 0
0 1 1 2 1 0 45 54 943 1386 1473 1570 1660 1440 1377 1253 941 938 730 686 601 567 582 488 477 402 348 276 183 118 89 79 2 6 6 2 1 0 1 1 2 2 0

GFSSE_con_mlcape_114.txt.gz
CAPE
1066 1872 1201 995 794 791 950 1188 1391 1483 1183 1080 867 877 987 1037 1007 1127 1204 1195 1271 1488 1662 1676 1496 1220 1069 1151 1021 1187 1175 1171 1172 1277 1231 1295 1313 1267 1207 1021 1030 1096 1168
1027 2081 1252 1102 838 843 1052 1275 1461 1557 1401 1268 1083 1063 1125 1136 1112 1260 1313 1293 1506 1590 1634 1367 1356 1366 1404 1273 1070 1135 1158 1179 1143 1143 1201 1254 1333 1312 1091 1047 1043 1161 1143
1319 1984 1422 1133 881 849 1071 1305 1467 1502 1557 1503 1283 1179 1246 1203 1206 1300 1332 1540 1527 1558 1421 1377 1548 1467 1266 1038 1068 1147 1229 1180 1209 1197 1158 1121 1248 1311 1129 1094 1031 1090 1132
1550 1835 1687 1198 907 865 1001 1263 1548 1611 1660 1605 1458 1358 1350 1284 1260 1360 1462 1556 1569 1554 1429 1322 1420 1523 1096 1039 1124 1149 1237 1218 1096 1012 1216 1106 1204 1182 1170 961 1084 1130 1062
1704 1814 1916 1286 965 863 968 1120 1422 1685 1691 1654 1565 1521 1387 1294 1356 1469 1507 1591 1620 1665 1541 1565 1533 1371 1057 1035 1095 1135 1194 1169 1017 1174 1198 1196 1125 1065 1047 1072 1009 878 962
1827 1952 1998 1363 1079 945 943 1035 1260 1444 1568 1653 1628 1598 1437 1427 1486 1534 1560 1642 1680 1718 1748 1749 1397 1128 1065 1029 1073 1083 1103 1046 955 1066 1164 1158 1025 1024 1143 980 833 943 867
1907 2070 2233 1505 1203 1076 1001 1026 1185 1313 1519 1678 1742 1643 1555 1647 1622 1558 1609 1668 1718 1828 1887 1694 1123 956 982 983 1027 1032 1003 930 1083 940 1006 1175 1173 1081 821 813 768 865 907
2135 2315 2405 1706 1436 1227 1168 1071 1059 1262 1503 1681 1792 1717 1806 1851 1686 1636 1667 1740 1773 1951 1829 1590 1077 969 971 984 1003 981 932 891 964 990 1053 1037 1068 1072 912 752 625 643 768
2366 2415 2494 2059 1903 1550 1323 1170 1062 1096 1336 1616 1772 1865 1968 1911 1751 1727 1755 1780 1809 1705 1543 1406 1137 1019 1007 994 957 912 912 931 930 1024 882 865 826 990 1015 722 481 594 535
2372 2538 2661 2257 2244 2177 1991 1416 1251 1128 1156 1332 1636 1863 1908 1843 1752 1747 1803 1815 1799 1674 1575 1454 1157 1029 1020 965 906 885 921 910 1098 825 897 895 789 923 977 562 578 344 303
2057 2334 2271 2175 2139 2512 2446 2114 1518 1339 1279 1313 1454 1661 1814 1955 2002 2046 1882 1849 1861 1742 1628 1285 1064 1024 985 882 801 787 849 886 933 818 862 892 764 766 716 557 328 193 150
2018 2074 2071 2098 1954 2105 2287 2439 2224 2055 1792 1744 1715 1890 1887 1958 2094 2086 2025 1995 1789 1708 1514 1096 986 993 906 1023 911 697 902 689 779 769 916 816 689 749 587 574 288 167 79
1090 1981 1881 1901 2020 2080 2240 2287 2297 2267 2109 2106 2119 2103 1941 2079 2230 2200 2100 1972 1989 1809 1819 1145 1133 1158 1011 938 886 892 769 922 709 682 734 624 655 686 646 494 330 211 96
129 1579 1873 1956 1828 2048 2131 1975 2133 2348 2221 2227 2269 2282 2043 2274 2224 2104 2137 2039 1984 1934 1804 1514 1343 1197 1207 1147 1088 1035 976 861 598 860 812 528 571 502 829 695 337 207 82
0 70 1666 1906 1875 1891 1926 1851 1896 2054 1973 2257 2268 2249 2254 2320 2183 2153 1935 1990 2035 1934 1887 1707 1518 1380 1280 1284 1140 1123 996 945 791 900 828 437 419 422 541 623 372 181 62
0 0 0 1117 1899 1890 1861 1855 1853 2028 1889 2099 2045 2124 2165 2112 1952 2019 1982 2016 1988 2043 2056 1879 1679 1594 1484 1277 1175 1049 917 957 813 720 759 713 265 290 396 622 468 235 112
0 0 0 0 770 1976 1941 1871 1815 1750 1748 1749 1840 2041 2035 2027 2053 1962 1935 1917 1833 2095 1962 1932 1609 1530 1315 1277 1189 1064 1062 915 729 638 758 638 484 211 353 248 432 173 180
0 0 0 0 0 1122 1845 1883 1733 1655 1681 1583 1736 2012 2379 2045 2083 1987 1808 1843 2022 2097 1979 1891 1676 1593 1447 1288 1223 1042 993 839 744 708 630 599 454 468 150 121 87 74 121
0 0 0 0 0 15 1249 1829 2096 1913 1793 1646 1692 1809 2024 2292 2454 2273 1931 1669 1713 1806 1819 1837 1737 1509 1400 1233 1156 1082 1047 837 706 626 558 595 473 219 203 63 23 18 101
0 0 0 0 0 0 89 1283 1388 1790 2050 1871 1815 1900 1892 2200 2196 2260 1811 1813 1470 1370 1526 1693 1610 1549 1458 1265 1092 986 974 869 713 668 634 594 622 398 189 90 82 64 70
0 0 0 0 0 0 0 65 521 1300 1533 1818 2004 2002 2017 2194 2159 2001 1670 1662 1254 1282 1343 1445 1451 1367 1332 1455 1129 989 935 766 718 587 573 602 639 375 139 65 61 88 50
0 0 0 0 0 0 0 0 209 690 1168 1258 1725 2200 2153 2021 1991 2016 1703 1547 1317 1217 1110 1132 1068 1020 947 912 718 638 514 549 498 559 565 546 486 358 103 70 46 62 77
0 0 0 0 0 0 0 0 0 455 826 1073 1487 2222 2378 1990 1842 1905 1674 1438 1272 1139 964 905 951 890 751 585 925 541 452 250 324 426 432 455 405 199 71 25 22 47 65
0 0 0 0 0 0 0 0 0 0 496 963 1260 1584 1816 2133 1962 1822 1644 1424 1189 1094 940 914 836 915 781 514 511 835 470 398 303 252 209 256 308 212 32 14 23 14 51
0 0 0 0 0 0 0 0 0 0 315 836 1273 1307 1497 1725 1722 1542 1474 1483 1156 1054 944 864 690 801 725 639 401 473 701 583 343 195 279 244 88 148 169 31 6 14 13
0 0 0 0 0 0 0 1 3 6 47 731 936 1423 1579 1681 1429 1365 1320 1340 1171 1081 814 860 795 767 680 660 423 706 557 459 450 248 135 70 129 106 17 15 10 4 3

GFSSE_con_mlcape_117.txt.gz
CAPE
781 1649 1005 973 927 879 934 1131 1321 1278 1135 940 818 844 968 1021 1087 1213 1335 1591 1719 1562 1695 1642 1572 1418 1111 927 1018 1155 1116 1077 1152 1147 1222 1322 1333 1259 906 886 914 1061 1052
729 1942 998 983 954 942 990 1181 1411 1421 1281 1203 988 943 1037 1139 1222 1354 1395 1438 1559 1737 2023 1964 1677 1371 1351 1332 1146 1222 1168 1144 1172 1195 1202 1358 1341 1222 997 979 954 1076 1135
1043 2518 1333 1025 996 995 1155 1381 1581 1616 1516 1355 1099 1095 1202 1286 1364 1448 1485 1535 1718 1929 1809 1664 1617 1642 1592 1380 1165 1238 1166 1124 1133 1100 1189 1216 1165 1239 1150 892 921 1121 1122
1504 2458 1854 1157 1016 1019 1258 1536 1746 1820 1649 1459 1250 1272 1343 1360 1451 1592 1514 1712 1660 1885 1726 1912 1839 1808 1277 1121 1201 1242 1164 1229 1179 1024 1283 1174 1123 1230 1086 871 1071 1212 1199
1794 2276 2223 1326 1032 1076 1320 1636 1832 1906 1768 1606 1428 1392 1501 1479 1519 1596 1623 1777 1746 1806 1666 1736 2012 1561 1117 1208 1237 1260 1262 1210 992 1127 1119 1140 1157 1240 1112 949 798 839 1037
1986 2101 2017 1371 1096 1062 1244 1632 1842 1888 1859 1804 1695 1499 1593 1633 1595 1649 1706 1747 1778 1877 1843 1920 1810 1325 1054 1132 1182 1251 1225 1063 908 1246 1216 1151 1024 1072 1081 733 785 997 943
2055 2226 2325 1500 1209 1095 1204 1461 1701 1863 1913 1913 1857 1758 1725 1631 1638 1613 1665 1766 1818 1925 2038 2009 1436 1226 1115 1079 1123 1180 1114 887 1240 934 862 1019 1172 1039 990 826 908 824 930
2230 2414 2869 1786 1441 1221 1190 1334 1422 1537 1736 1905 1907 1918 1807 1661 1598 1586 1719 1792 1862 1985 2116 1804 1170 1133 1072 1047 1044 1043 979 852 1130 1040 896 978 1172 1049 966 839 624 717 884
2631 2533 2898 2264 1813 1412 1186 1182 1341 1452 1610 1833 1984 1914 1844 1716 1649 1661 1753 1813 1905 2022 1962 1644 1158 1080 1063 1019 997 971 908 800 1134 882 944 950 945 946 1056 788 608 678 746
2640 2837 3139 2577 2252 1929 1577 1209 1237 1356 1555 1800 1950 1945 1918 1926 1816 1797 1842 1861 1929 1932 1759 1526 1197 1108 1071 995 971 930 888 775 1183 1013 637 936 896 827 1070 683 654 572 584
2251 2530 2979 2653 2519 2346 2130 1799 1307 1264 1461 1753 1975 2018 2106 2366 2295 2229 2024 1903 1802 1770 1672 1488 1242 1113 1059 972 940 908 937 820 629 685 474 878 827 845 921 668 537 477 350
601 2358 2416 2585 2473 2855 2394 2408 1867 1756 1557 1731 1935 2268 2314 2066 2210 2014 1974 2022 1721 1731 1668 1507 1201 1069 986 1172 1070 869 1073 754 443 474 890 841 825 757 716 389 474 321 218
3 1993 2478 2339 2316 2448 2732 2532 2244 2141 2011 1974 1974 2057 2000 2100 2221 2055 2306 2140 2222 1812 1973 1505 1168 1220 1124 1002 905 838 754 810 660 514 811 784 795 755 773 502 342 248 145
0 862 2417 2455 2473 2380 2634 2442 2297 2081 2241 2139 2204 2472 2243 2259 2340 2361 2195 2222 2194 2134 1939 1805 1457 1227 1273 1323 1057 886 835 965 726 818 826 589 639 661 963 584 410 325 158
0 0 909 2356 2413 2523 2581 2589 2470 2481 2098 2174 2225 2470 2360 2027 2324 2463 2063 2300 2117 2055 2018 1992 1604 1484 1397 1255 1325 1093 1030 971 1021 672 1043 603 569 597 675 830 627 469 306
0 0 0 23 2123 2111 2357 2509 2539 2522 2235 2369 2200 2338 2692 2364 2355 2360 2228 1877 2129 1856 2000 2141 1834 1579 1498 1424 1362 1254 1194 1004 1117 919 968 764 420 518 553 702 851 680 400
0 0 0 0 0 1178 1819 2210 2389 2228 2228 2192 2144 2556 2438 2783 2558 2367 2411 2102 1644 1832 2093 2207 2194 1831 1581 1625 1480 1378 1279 1159 1052 835 722 904 553 305 411 469 379 459 401
0 0 0 0 0 0 444 1503 2092 2145 2267 2068 2181 2091 2341 2338 2504 2524 2201 2311 1956 1875 2235 2315 2234 2080 1645 1541 1464 1511 1351 1262 1076 953 787 721 643 593 285 383 431 283 21
0 0 0 0 0 0 0 560 1503 1902 2180 2058 1917 2075 2170 2394 2550 2498 2207 2192 2314 2160 2327 2192 2124 1979 1785 1721 1593 1492 1398 1236 1123 914 815 731 537 394 442 292 253 15 14
0 0 0 0 0 0 0 0 554 1380 1791 2276 2182 1959 2055 2679 2597 2436 2152 2158 2140 2367 2448 2420 2093 2007 1941 1768 1369 1361 1278 1284 1129 907 816 699 533 550 455 454 37 5 0
0 0 0 0 0 0 0 0 0 936 1416 1920 2266 2414 2060 2339 2795 2558 2474 2418 2222 2092 2127 2218 2240 2026 1722 1834 1435 1481 1296 1177 1135 954 881 572 544 543 634 448 397 57 7
0 0 0 0 0 0 0 0 0 0 470 1448 1877 2138 2545 2587 2668 2906 2794 2546 2601 2015 1774 1776 1867 2087 2075 2002 1556 1258 896 924 969 940 715 556 662 558 578 689 524 221 132
0 0 0 0 0 0 0 0 0 0 0 601 1479 1810 2336 2730 2868 2947 2912 2685 2426 2268 1784 1570 1517 1646 1703 1891 1736 977 672 392 571 739 698 684 618 587 603 511 300 221 91
0 0 0 0 0 0 0 0 0 0 0 42 1144 1657 1712 2611 2851 3058 3018 2909 2496 2226 1749 1451 1368 1426 1261 1222 1416 1395 949 502 480 399 625 603 622 609 621 543 247 87 50
0 0 0 0 0 0 0 0 0 0 0 0 3 1448 1649 2071 2458 2936 2895 2921 2590 2164 1815 1548 1305 1354 1320 1098 955 1236 1386 1205 913 714 428 412 424 411 468 456 369 69 7
0 0 0 0 0 0 0 0 1 2 0 0 28 347 1336 1760 2073 2740 2747 2636 2489 2072 1818 1711 1427 1110 1263 1061 913 881 931 1019 952 704 491 480 397 360 273 331 319 106 9

GFSSE_con_mlcape_120.txt.gz
CAPE
1854 1097 987 1025 1036 1118 1252 1297 1140 1066 1083 810 648 600 706 729 779 1114 1223 898 1449 1831 1896 1703 1328 1171 782 691 657 804 821 844 845 981 1109 1144 1089 784 731 819 1086 1055 1078
1558 1291 1006 980 987 1054 1163 1277 1189 1188 1207 988 731 726 820 888 927 1155 1388 1553 1362 1618 1730 1767 1615 1390 1183 1093 1070 968 929 951 956 1071 1165 1266 1060 921 888 950 1014 1084 1026
1326 1737 1235 1058 1018 1089 1158 1233 1304 1362 1373 1202 969 849 933 1015 1073 1224 1391 1504 1646 1917 2110 2003 1706 1542 1726 1205 1113 1084 1044 1019 969 957 1224 1049 1057 1134 1123 965 912 1093 1047
1718 2245 1523 1170 1077 1079 1208 1351 1480 1620 1617 1491 1221 1004 1103 1198 1230 1324 1429 1480 1729 2005 1833 1915 1810 1931 1695 1223 1123 1173 1055 1059 970 1035 1188 1057 957 1244 1027 833 877 1132 1145
1783 2859 2094 1237 1217 1182 1337 1548 1745 1877 1774 1597 1317 1169 1307 1400 1412 1474 1452 1589 1756 1805 1710 2080 1985 1900 1237 1110 1181 1192 1109 1090 898 1033 978 1058 963 1257 1089 741 713 919 1132
1965 2550 2096 1518 1241 1264 1514 1795 1979 1981 1840 1668 1466 1364 1452 1551 1583 1636 1501 1709 1811 1803 1760 1966 1969 1424 1182 1173 1211 1196 1090 973 877 842 892 906 1131 954 858 820 826 1012 969
2407 2492 2217 1816 1234 1323 1599 1907 2037 1944 1836 1759 1680 1561 1610 1680 1688 1623 1667 1828 1900 1885 1950 1902 1711 1282 1118 1144 1176 1181 996 958 823 270 834 900 932 795 902 947 917 847 981
2681 2964 2087 1648 1282 1292 1510 1838 1953 1929 1912 1915 1881 1738 1771 1783 1723 1633 1738 1805 1917 1935 2047 1892 1368 1240 1171 1127 1122 1101 925 889 799 782 652 714 737 809 1000 771 701 626 932
2693 3262 2886 2158 1491 1216 1411 1528 1690 1814 1917 1965 1992 1909 1961 1852 1709 1681 1774 1822 1840 1952 2007 1791 1211 1156 1102 1066 1018 976 836 824 832 733 798 868 789 825 902 752 688 758 800
2435 2944 3298 2589 1971 1426 1305 1285 1438 1551 1662 1878 1934 1995 2033 1864 1765 1768 1835 1860 1749 1892 1898 1686 1205 1086 1058 1000 952 916 761 701 704 702 740 947 761 1035 757 634 766 723 704
2094 2263 3001 2839 2436 1949 1635 1306 1234 1392 1626 1850 2017 2055 1966 2039 1960 1936 1913 1946 1881 1709 1863 1638 1293 1112 1062 966 915 881 742 613 808 591 653 889 800 945 830 727 676 630 605
61 2377 2571 2884 2468 2497 1993 1835 1292 1354 1505 1885 2131 2121 2235 2403 2496 2380 2183 2044 1856 1708 1695 1583 1335 1154 1057 1035 903 860 804 761 825 443 442 762 852 943 925 566 431 518 426
0 1500 2562 2430 2293 2618 2592 2292 1683 1668 1439 1793 2134 2445 2347 2528 2567 2075 2171 1886 2020 1801 1786 1611 1346 1185 1110 1300 1112 862 793 986 857 697 828 832 860 978 848 476 429 450 331
0 0 2325 2424 2051 2109 2862 2648 2280 2065 1919 1913 1965 2278 2233 2306 2227 1736 2189 2124 2065 2024 1940 1876 1578 1231 1193 1182 1278 954 785 754 963 774 751 769 885 922 986 698 538 400 215
0 0 174 2302 2255 2112 2181 2084 2276 2222 2224 2266 2198 2308 2493 2133 2294 2327 1872 2236 2072 2265 1971 2001 1785 1295 1303 1237 1367 1099 898 1003 1024 799 554 628 603 790 953 1040 731 366 285
0 0 0 0 1404 1820 1992 1837 2065 2096 2361 2382 2465 2569 2479 2477 2358 2379 2122 2447 2146 2144 2239 1977 2057 1739 1456 1569 1391 1138 1072 1116 1154 1032 852 560 573 584 708 1034 967 670 393
0 0 0 0 0 66 1493 1617 1762 1995 1858 2188 2190 2699 2620 2511 2428 2638 2217 2281 2394 2015 2358 2015 2167 1930 1663 1472 1298 1285 1289 1320 1180 1135 1063 795 463 434 470 564 817 762 471
0 0 0 0 0 0 0 512 1243 1514 1915 2098 2208 2175 2457 2707 2812 2488 2407 2565 2379 2376 2328 1877 1900 2153 1752 1512 1452 1358 1441 1331 1293 1181 925 1045 704 419 345 429 475 439 342
0 0 0 0 0 0 0 0 0 1248 1360 1835 2064 2289 2600 2369 2416 2919 2405 2237 2434 2601 2312 2114 2071 2184 2033 1692 1485 1569 1488 1467 1297 1169 1024 662 822 601 396 293 377 367 122
0 0 0 0 0 0 0 0 0 0 1604 1857 1923 1920 2319 2497 1980 2233 2775 2430 1886 2415 2535 2353 2145 2182 2184 1807 1605 1497 1576 1417 1275 1173 970 818 884 544 399 284 238 251 222
0 0 0 0 0 0 0 0 0 0 0 1831 2141 2155 2048 2277 2495 2071 2328 2661 2212 1815 2356 2549 2372 1954 1901 1836 1801 1637 1440 1358 1241 1130 1043 828 704 580 419 199 91 63 0
0 0 0 0 0 0 0 0 0 0 0 0 1277 2154 2247 2267 2423 2590 2417 2391 2465 1918 1948 2697 2551 2161 1984 1872 1676 1356 1226 1302 1310 1201 942 881 944 587 526 426 333 157 38
0 0 0 0 0 0 0 0 0 0 0 0 0 116 2154 2243 2245 2672 2673 2338 2427 2367 1899 2070 2429 2250 1782 1969 1721 1303 1069 749 870 999 1026 944 772 627 518 486 414 292 211
0 0 0 0 0 0 0 0 0 0 0 0 0 0 1275 2196 2266 2506 2715 2780 2539 2616 2318 2142 1976 1761 2019 1940 1851 1565 911 745 377 742 953 890 714 594 518 515 460 378 298
0 0 0 0 0 0 0 0 0 0 0 0 0 0 0 338 1914 2063 2070 2409 2742 2374 2442 1980 1733 1567 1720 1610 1835 1580 1480 1062 884 788 501 822 837 713 651 562 536 366 211
0 0 0 0 0 0 0 0 0 0 0 0 0 0 0 3 672 1802 1703 2102 2399 2490 1646 784 1567 1556 1535 1459 1365 1311 1348 1407 1182 798 783 557 490 585 553 606 600 428 200